Date StartTime U_cm/s V_cm/s W_cm/s Ustd_cm/s Vstd_cm/s Wstd_cm/s Uvar_(cm/s)^2 Vvar_(cm/s)^2 Wvar_(cm/s)^2 KE_(m/s)^2 TurbulentKE_(m/s)^2 HorizWindSpeed_cm/s FrictionSpeec_cm/s DragCoef SpeedOfSound_m/s SonicTemperature_C Pressure_mb 
10/13/2013  00:00:00       55.558       59.275        9.917       53.613       75.075       41.441     2874.377     5636.308     1717.390        0.846        0.511       81.242       40.527        0.249      336.098        7.171      858.554
10/13/2013  00:01:00       28.781      111.715       -1.869       45.732       68.424       41.687     2091.396     4681.885     1737.831        1.091        0.426      115.363       26.746        0.054      336.057        7.101      858.536
10/13/2013  00:02:00      122.370       94.752        2.813       85.094       51.478       41.156     7240.971     2649.982     1693.839        1.777        0.579      154.765       29.584        0.037      336.068        7.121      858.515
10/13/2013  00:03:00      168.596      110.470        4.255       95.983       66.322       52.324     9212.737     4398.566     2737.845        2.849        0.817      201.564       28.293        0.020      336.069        7.121      858.477
10/13/2013  00:04:00      136.468       84.541       25.451      100.504       61.206       54.785    10101.118     3746.213     3001.437        2.163        0.842      160.533       35.550        0.049      336.052        7.094      858.458
10/13/2013  00:05:00       73.673      144.724        4.487      121.880       92.589       54.555    14854.799     8572.732     2976.219        2.639        1.320      162.397       62.271        0.147      336.041        7.076      858.412
10/13/2013  00:06:00      134.296      138.826       -0.831       83.084       66.875       50.204     6903.015     4472.212     2520.469        2.560        0.695      193.153       25.506        0.017      336.054        7.096      858.388
10/13/2013  00:07:00       93.688      160.718       13.201       87.730       89.865       70.237     7696.631     8075.767     4933.238        2.774        1.035      186.031       65.323        0.123      336.026        7.050      858.358
10/13/2013  00:08:00       44.911      299.471      -26.175       91.292      152.056       73.360     8334.190    23120.995     5381.738        6.460        1.842      302.820       82.165        0.074      336.012        7.024      858.342
10/13/2013  00:09:00       -2.339      359.549      -44.700       65.567      116.735       36.453     4298.976    13626.985     1328.818        7.526        0.963      359.556       33.494        0.009      336.020        7.037      858.358
10/13/2013  00:10:00      -16.998      285.925      -37.316      104.556      120.153       50.470    10932.024    14436.679     2547.261        5.567        1.396      286.430       48.067        0.028      336.055        7.097      858.337
10/13/2013  00:11:00      -50.225      356.068      -33.174       88.185      113.820       55.062     7776.569    12954.925     3031.785        7.708        1.188      359.593       56.916        0.025      336.030        7.056      858.333
10/13/2013  00:12:00      -63.521      298.811      -26.625      114.906      124.386       69.125    13203.346    15471.910     4778.261        6.374        1.673      305.488       70.916        0.054      336.055        7.096      858.319
10/13/2013  00:13:00     -219.137      276.887      -66.270       79.262       72.409       49.165     6282.390     5243.113     2417.223        7.151        0.697      353.111       51.077        0.021      336.083        7.144      858.331
10/13/2013  00:14:00     -118.739      236.988      -22.787       75.993      103.993       48.957     5775.004    10814.639     2396.747        4.488        0.949      265.070       50.181        0.036      336.111        7.189      858.326
10/13/2013  00:15:00     -168.382      157.823      -31.712       77.268       84.019       50.851     5970.299     7059.197     2585.785        3.494        0.781      230.782       47.902        0.043      336.150        7.254      858.329
10/13/2013  00:16:00      -80.296      262.052      -26.318       72.280      118.841       53.861     5224.371    14123.130     2901.045        4.903        1.112      274.078       47.853        0.030      336.216        7.367      858.332
10/13/2013  00:17:00     -186.065      295.552      -41.365       94.260      129.846       60.828     8884.877    16859.963     3699.987        7.656        1.472      349.244       58.523        0.028      336.172        7.292      858.354
10/13/2013  00:18:00     -185.203      303.249      -48.694       92.651      147.996       69.155     8584.138    21902.717     4782.400        8.194        1.763      355.331       67.164        0.036      336.109        7.187      858.381
10/13/2013  00:19:00     -134.481      195.414      -32.578      102.056       86.430       66.469    10415.481     7470.210     4418.070        3.981        1.115      237.217       60.757        0.066      336.099        7.171      858.389
10/13/2013  00:20:00     -216.997      232.454      -49.685       77.302       95.950       53.369     5975.664     9206.440     2848.243        6.081        0.902      317.998       42.684        0.018      336.069        7.119      858.398
10/13/2013  00:21:00     -204.681      283.811      -42.943      108.251      111.278       58.842    11718.217    12382.888     3462.331        7.592        1.378      349.919       48.677        0.019      336.063        7.110      858.401
10/13/2013  00:22:00     -144.837      293.948      -40.244      100.486      103.611       45.331    10097.444    10735.195     2054.942        6.594        1.144      327.694       46.758        0.020      336.057        7.100      858.404
10/13/2013  00:23:00     -142.310      216.381      -22.156       82.437      118.537       64.463     6795.932    14050.919     4155.466        4.628        1.250      258.984       55.818        0.046      336.060        7.105      858.403
10/13/2013  00:24:00     -148.272      181.172      -23.365       74.558      129.997       51.856     5558.942    16899.132     2689.051        4.025        1.257      234.111       49.016        0.044      336.082        7.141      858.405
10/13/2013  00:25:00     -154.618       68.215      -17.938       65.045       85.163       40.006     4230.816     7252.807     1600.507        2.098        0.654      168.997       30.522        0.033      336.130        7.223      858.411
10/13/2013  00:26:00     -185.132      102.682      -35.526       82.000       50.820       35.370     6724.000     2582.684     1251.058        2.832        0.528      211.701       34.481        0.027      336.137        7.234      858.415
10/13/2013  00:27:00     -131.090      114.762      -18.680       71.157       68.629       48.748     5063.332     4710.005     2376.392        2.142        0.607      174.227       37.014        0.045      336.132        7.227      858.427
10/13/2013  00:28:00     -139.149      109.146      -32.241       41.816       60.890       36.133     1748.602     3707.623     1305.626        1.954        0.338      176.848       27.586        0.024      336.158        7.271      858.440
10/13/2013  00:29:00     -105.668       58.703      -13.971       67.910       58.879       43.929     4611.829     3466.731     1929.797        1.241        0.500      120.879       29.650        0.060      336.168        7.288      858.461
10/13/2013  00:30:00     -104.131      -11.008      -11.590       81.545       63.031       33.762     6649.517     3972.852     1139.860        1.143        0.588      104.711       23.616        0.051      336.200        7.342      858.471
10/13/2013  00:31:00     -175.478       -2.563      -33.903       88.216      114.418       37.407     7782.036    13091.480     1399.260        2.711        1.114      175.497       37.974        0.047      336.204        7.346      858.496
10/13/2013  00:32:00     -115.628       23.352      -11.425       72.110       67.274       40.828     5199.810     4525.743     1666.920        1.272        0.570      117.963       42.066        0.127      336.153        7.262      858.513
10/13/2013  00:33:00      -73.392       -0.028       -5.254       79.358       78.456       45.496     6297.752     6155.365     2069.899        0.997        0.726       73.392       40.068        0.298      336.176        7.301      858.521
10/13/2013  00:34:00      -91.987       19.236      -16.512       60.326       54.482       35.845     3639.278     2968.301     1284.897        0.850        0.395       93.977       25.865        0.076      336.180        7.308      858.519
10/13/2013  00:35:00     -142.384       75.268      -11.805       94.148       51.684       52.389     8863.768     2671.216     2744.607        2.018        0.714      161.054       54.483        0.114      336.074        7.129      858.534
10/13/2013  00:36:00      -68.114       53.482      -10.571       57.465       72.060       38.135     3302.227     5192.708     1454.295        0.878        0.497       86.601       28.547        0.109      336.072        7.127      858.541
10/13/2013  00:37:00     -120.453      194.372      -32.963       59.999       45.744       34.909     3599.922     2092.510     1218.666        3.014        0.346      228.669       32.224        0.020      336.073        7.127      858.554
10/13/2013  00:38:00     -119.288      166.938      -22.924       50.356       53.683       33.895     2535.680     2881.879     1148.842        2.459        0.328      205.178       30.069        0.021      336.046        7.082      858.565
10/13/2013  00:39:00      -92.657       50.526       -3.422       37.458       53.860       31.816     1403.067     2900.871     1012.280        0.823        0.266      105.538       27.821        0.069      336.116        7.201      858.574
10/13/2013  00:40:00      -96.114       80.566      -24.168       39.651       24.147       19.148     1572.213      583.075      366.661        0.942        0.126      125.415       14.786        0.014      336.089        7.157      858.590
10/13/2013  00:41:00      -86.016       70.432      -21.311       56.916       33.342       26.767     3239.473     1111.684      716.486        0.894        0.253      111.172       30.994        0.078      336.097        7.169      858.599
10/13/2013  00:42:00      -56.685       92.170      -11.256       35.618       46.158       23.783     1268.631     2130.536      565.643        0.790        0.198      108.206       24.062        0.049      336.131        7.226      858.609
10/13/2013  00:43:00      -19.952       68.128       15.834       35.459       29.152       23.436     1257.318      849.857      549.260        0.397        0.133       70.990       19.181        0.073      336.128        7.222      858.622
10/13/2013  00:44:00       -9.224       70.479        4.200       35.356       62.341       25.175     1250.074     3886.346      633.781        0.542        0.289       71.080       31.601        0.198      336.136        7.235      858.636
10/13/2013  00:45:00      -20.705      181.522      -16.783       19.532       47.526       16.153      381.489     2258.736      260.932        1.828        0.145      182.699       19.232        0.011      336.083        7.144      858.652
10/13/2013  00:46:00      -45.705      169.653      -17.608       43.462       89.238       24.643     1888.963     7963.417      607.279        2.082        0.523      175.702       28.876        0.027      336.092        7.159      858.660
10/13/2013  00:47:00      -78.869      193.690      -16.246       61.348       73.449       36.136     3763.533     5394.686     1305.820        2.723        0.523      209.132       27.284        0.017      336.054        7.096      858.667
10/13/2013  00:48:00      -53.246      197.336      -21.602       59.019       81.337       33.183     3483.248     6615.724     1101.079        2.672        0.560      204.393       28.573        0.020      336.052        7.093      858.684
10/13/2013  00:49:00     -135.915      116.113      -13.133       97.330       70.586       39.580     9473.137     4982.413     1566.571        2.407        0.801      178.760       35.354        0.039      336.021        7.043      858.676
10/13/2013  00:50:00     -185.341      185.402      -54.537       56.713       58.604       31.074     3216.319     3434.388      965.587        3.966        0.381      262.155       33.990        0.017      336.002        7.008      858.686
10/13/2013  00:51:00     -112.667       79.805      -17.492       50.506       48.899       27.570     2550.858     2391.146      760.123        1.253        0.285      138.067       33.176        0.058      336.004        7.010      858.673
10/13/2013  00:52:00     -171.184      113.283      -34.866       64.996       61.018       35.855     4224.454     3723.237     1285.563        2.629        0.462      205.273       30.331        0.022      336.077        7.135      858.665
10/13/2013  00:53:00     -227.919       58.551      -30.992       72.663       57.509       28.656     5279.869     3307.301      821.186        3.287        0.470      235.320       23.335        0.010      336.089        7.153      858.663
10/13/2013  00:54:00     -186.679       72.487      -25.783       50.968       65.831       41.305     2597.739     4333.768     1706.116        2.470        0.432      200.259       23.528        0.014      336.117        7.200      858.662
10/13/2013  00:55:00     -188.855      -31.997      -16.786       41.706       50.419       29.160     1739.422     2542.051      850.318        2.105        0.257      191.547        9.336        0.002      336.137        7.235      858.662
10/13/2013  00:56:00     -144.063       56.120      -14.394       47.095       96.368       32.721     2217.946     9286.713     1070.658        1.834        0.629      154.608       27.473        0.032      336.136        7.233      858.672
10/13/2013  00:57:00     -130.337       42.974      -27.903       58.814       79.961       38.958     3459.109     6393.825     1517.706        1.549        0.569      137.239       29.429        0.046      336.183        7.312      858.676
10/13/2013  00:58:00     -144.099       11.899      -16.668       64.959       99.096       37.320     4219.691     9820.093     1392.761        1.831        0.772      144.589       19.295        0.018      336.190        7.326      858.678
10/13/2013  00:59:00     -106.822       41.772      -24.897       72.465      104.748       31.632     5251.164    10972.095     1000.580        1.550        0.861      114.699       32.916        0.082      336.223        7.379      858.674
10/13/2013  01:00:00      -94.070       64.978      -27.717       93.131       48.580       41.862     8673.456     2360.003     1752.385        1.331        0.639      114.330       46.751        0.167      336.203        7.347      858.688
10/13/2013  01:01:00      -56.024       26.811        0.554       46.793       40.215       22.507     2189.631     1617.228      506.554        0.408        0.216       62.109       14.354        0.053      336.221        7.378      858.677
10/13/2013  01:02:00      -98.805       -0.364       -1.539       93.609       59.101       38.616     8762.715     3492.880     1491.205        1.175        0.687       98.805       43.481        0.194      336.215        7.366      858.684
10/13/2013  01:03:00     -101.023       64.267      -10.180       54.922       54.148       37.689     3016.401     2932.019     1420.432        1.090        0.368      119.732       27.077        0.051      336.273        7.464      858.677
10/13/2013  01:04:00     -102.305       -6.069      -12.737       64.947       85.464       36.106     4218.089     7304.150     1303.620        1.174        0.641      102.484       38.507        0.141      336.246        7.418      858.680
10/13/2013  01:05:00     -131.574        3.656      -15.787       63.754       54.629       37.243     4064.522     2984.288     1387.052        1.300        0.422      131.624       28.220        0.046      336.260        7.441      858.677
10/13/2013  01:06:00     -125.160       11.203      -11.879       86.321       64.012       42.725     7451.231     4097.565     1825.461        1.465        0.669      125.660       39.835        0.100      336.245        7.417      858.681
10/13/2013  01:07:00     -126.966       83.424      -25.345       61.051       55.513       41.943     3727.255     3081.682     1759.182        1.614        0.428      151.921       36.582        0.058      336.190        7.324      858.693
10/13/2013  01:08:00      -73.795       -1.127      -14.775       40.587       49.420       25.411     1647.266     2442.296      645.722        0.520        0.237       73.804       23.383        0.100      336.227        7.387      858.704
10/13/2013  01:09:00     -120.315        0.276      -36.726       56.705       51.962       37.177     3215.408     2700.022     1382.125        1.156        0.365      120.315       20.262        0.028      336.230        7.392      858.702
10/13/2013  01:10:00     -107.989      -15.028       -9.225       65.028       58.515       31.096     4228.634     3424.043      966.960        1.029        0.431      109.029       21.671        0.040      336.204        7.348      858.709
10/13/2013  01:11:00      -64.820       12.535        3.091       67.600       32.474       33.602     4569.725     1054.571     1129.115        0.556        0.338       66.021       35.970        0.297      336.209        7.357      858.701
10/13/2013  01:12:00     -198.321        4.590      -30.923       92.479       86.364       48.708     8552.311     7458.823     2372.457        2.934        0.919      198.374       51.156        0.066      336.162        7.277      858.699
10/13/2013  01:13:00     -190.310      -74.549       -7.051       76.684       70.485       40.638     5880.465     4968.182     1651.441        2.716        0.625      204.391       29.653        0.021      336.199        7.339      858.674
10/13/2013  01:14:00     -115.563      -44.214       -0.432       71.591       48.216       32.845     5125.250     2324.829     1078.813        1.192        0.426      123.732       31.115        0.063      336.158        7.272      858.671
10/13/2013  01:15:00      -93.506      -39.724       -5.192       50.526       40.476       26.544     2552.855     1638.334      704.558        0.762        0.245      101.594       25.664        0.064      336.181        7.310      858.661
10/13/2013  01:16:00     -106.634      -51.083        0.610       71.036       62.132       28.147     5046.149     3860.407      792.271        1.184        0.485      118.238       28.579        0.058      336.177        7.302      858.653
10/13/2013  01:17:00     -129.416      -52.800       -0.589       61.657       45.243       27.888     3801.608     2046.897      777.768        1.308        0.331      139.773       28.737        0.042      336.081        7.143      858.658
10/13/2013  01:18:00     -152.461      -51.377        2.092       69.429       60.222       32.718     4820.422     3626.686     1070.486        1.770        0.476      160.885       29.018        0.033      336.130        7.223      858.668
10/13/2013  01:19:00     -162.930      -43.580        5.855       94.467       65.028       38.728     8923.992     4228.665     1499.863        2.156        0.733      168.658       40.854        0.059      336.127        7.216      858.689
10/13/2013  01:20:00     -154.478       -4.228       -9.138       74.718       50.138       25.318     5582.754     2513.838      641.000        1.635        0.437      154.536       30.924        0.040      336.160        7.274      858.703
10/13/2013  01:21:00     -166.861      -40.767       -5.400       54.416       56.997       26.545     2961.059     3248.666      704.627        1.822        0.346      171.769       28.518        0.028      336.150        7.257      858.720
10/13/2013  01:22:00     -150.411      -26.840       -6.344       57.099       59.872       24.966     3260.284     3584.680      623.304        1.542        0.373      152.787       30.103        0.039      336.165        7.286      858.733
10/13/2013  01:23:00      -87.883      -10.333       -7.556       42.633       49.888       26.017     1817.574     2488.833      676.879        0.643        0.249       88.489       24.970        0.080      336.169        7.288      858.745
10/13/2013  01:24:00     -117.658      -31.061       -2.116       28.303       49.665       25.253      801.041     2466.624      637.706        0.936        0.195      121.689       15.855        0.017      336.167        7.287      858.745
10/13/2013  01:25:00     -139.110      -14.994      -10.619       56.715       49.808       35.947     3216.635     2480.809     1292.155        1.334        0.349      139.916       26.859        0.037      336.242        7.412      858.741
10/13/2013  01:26:00     -131.513       -7.046       -9.402       37.708       43.399       30.926     1421.928     1883.498      956.398        1.085        0.213      131.701       23.338        0.031      336.277        7.472      858.733
10/13/2013  01:27:00      -53.541       41.938        0.228       37.120       45.761       33.378     1377.895     2094.032     1114.063        0.460        0.229       68.010       15.583        0.052      336.299        7.506      858.730
10/13/2013  01:28:00     -115.416      -32.844      -20.282       21.414       33.673       15.554      458.566     1133.862      241.935        0.832        0.092      119.998       10.018        0.007      336.375        7.634      858.719
10/13/2013  01:29:00      -31.345      -18.973       -2.531       36.189       26.666       13.874     1309.672      711.060      192.477        0.178        0.111       36.640       13.524        0.136      336.376        7.638      858.714
10/13/2013  01:30:00       23.318      -44.737        6.563       21.690       24.426       19.887      470.437      596.629      395.505        0.203        0.073       50.450       10.596        0.044      336.454        7.766      858.703
10/13/2013  01:31:00      -37.429        7.237        0.100       27.278       30.800       13.964      744.085      948.612      194.998        0.167        0.094       38.122       10.633        0.078      336.466        7.786      858.703
10/13/2013  01:32:00      -40.169       27.577       -6.981       23.634       23.675       19.000      558.560      560.503      361.004        0.195        0.074       48.724       14.065        0.083      336.491        7.828      858.707
10/13/2013  01:33:00      -61.291      -31.293        0.280       45.270       50.739       20.925     2049.355     2574.492      437.865        0.490        0.253       68.817       24.758        0.129      336.476        7.803      858.711
10/13/2013  01:34:00      -50.594      -12.462      -11.305       29.994       31.855       17.723      899.618     1014.741      314.099        0.254        0.111       52.107       11.541        0.049      336.476        7.803      858.718
10/13/2013  01:35:00      -99.886       11.758      -19.636       42.201       39.465       21.868     1780.895     1557.493      478.219        0.716        0.191      100.575       15.492        0.024      336.488        7.821      858.729
10/13/2013  01:36:00      -49.524       -0.820       -6.780       25.971       24.106       16.810      674.493      581.115      282.571        0.202        0.077       49.531       12.875        0.068      336.459        7.774      858.731
10/13/2013  01:37:00      -45.915       72.567      -18.085       36.827       44.328       21.976     1356.218     1964.968      482.939        0.575        0.190       85.873       22.684        0.070      336.472        7.795      858.740
10/13/2013  01:38:00      -15.025       56.138        4.909       34.203       48.486       28.186     1169.854     2350.878      794.447        0.386        0.216       58.114       19.631        0.114      336.484        7.816      858.740
10/13/2013  01:39:00      -17.477       94.661       -0.456       16.986       35.480       26.488      288.531     1258.816      701.606        0.576        0.112       96.261       24.511        0.065      336.464        7.783      858.731
10/13/2013  01:40:00      -42.061       27.241       -9.579       32.243       40.063       13.014     1039.611     1605.081      169.363        0.271        0.141       50.112       11.285        0.051      336.487        7.821      858.731
10/13/2013  01:41:00      -77.844      -19.739       -6.909       19.448       19.827       13.793      378.243      393.126      190.243        0.373        0.048       80.308       10.621        0.017      336.476        7.801      858.734
10/13/2013  01:42:00      -77.514       -2.262       -2.589       18.285       23.301       15.546      334.352      542.946      241.686        0.357        0.056       77.547       14.576        0.035      336.471        7.791      858.738
10/13/2013  01:43:00       69.456       34.388       21.863       52.890       35.943       20.469     2797.354     1291.875      418.982        0.550        0.225       77.503        5.951        0.006      336.437        7.737      858.732
10/13/2013  01:44:00      145.553       95.327       31.031       46.833       33.938       42.251     2193.301     1151.787     1785.186        1.818        0.257      173.991       29.950        0.030      336.349        7.588      858.738
10/13/2013  01:45:00      144.503       76.553       17.451       60.218       38.250       28.393     3626.194     1463.062      806.152        1.647        0.295      163.528       17.638        0.012      336.245        7.417      858.747
10/13/2013  01:46:00      123.901       67.186        3.003       57.489       49.145       32.644     3304.969     2415.193     1065.661        1.333        0.339      140.945       17.763        0.016      336.208        7.356      858.749
10/13/2013  01:47:00      172.434       90.912        5.215       47.199       35.610       30.215     2227.722     1268.070      912.955        2.122        0.220      194.932       19.571        0.010      336.201        7.343      858.751
10/13/2013  01:48:00      164.783       82.687       12.918       67.545       66.702       43.409     4562.329     4449.102     1884.371        2.252        0.545      184.365       35.929        0.038      336.157        7.267      858.750
10/13/2013  01:49:00      173.907      109.800       15.452       56.954       56.903       37.320     3243.714     3238.004     1392.819        2.520        0.394      205.669       17.936        0.008      336.103        7.178      858.758
10/13/2013  01:50:00      116.380       52.383        8.365       79.520       56.983       35.302     6323.417     3247.113     1246.265        1.359        0.541      127.626       26.355        0.043      336.089        7.154      858.761
10/13/2013  01:51:00      175.002      104.910       26.223       46.658       51.938       39.095     2176.994     2697.517     1528.406        2.436        0.320      204.038       21.111        0.011      336.117        7.200      858.776
10/13/2013  01:52:00       94.612       68.404       10.886       58.916       42.379       39.774     3471.052     1796.020     1581.983        1.030        0.342      116.750       25.513        0.048      336.131        7.226      858.787
10/13/2013  01:53:00      146.915       94.428       19.719       55.537       51.071       39.216     3084.320     2608.216     1537.887        1.906        0.362      174.645       31.755        0.033      336.150        7.258      858.806
10/13/2013  01:54:00       41.988       62.513       11.946       65.947       49.002       46.341     4348.988     2401.169     2147.486        0.735        0.445       75.305       37.607        0.249      336.178        7.305      858.820
10/13/2013  01:55:00       39.312       72.395       -5.416       37.764       51.607       30.672     1426.135     2663.333      940.789        0.592        0.252       82.380       30.141        0.134      336.182        7.313      858.829
10/13/2013  01:56:00       77.484       69.866        9.934       52.992       42.628       47.716     2808.199     1817.179     2276.806        0.894        0.345      104.331       33.382        0.102      336.165        7.282      858.814
10/13/2013  01:57:00       38.317       64.544       -2.607       47.859       48.359       31.976     2290.446     2338.592     1022.447        0.565        0.283       75.060       31.981        0.182      336.177        7.304      858.828
10/13/2013  01:58:00       39.012      215.589      -27.682       42.851       87.901       44.997     1836.227     7726.519     2024.755        3.017        0.579      219.090       49.944        0.052      336.197        7.335      858.830
10/13/2013  01:59:00       77.132       55.819       26.231       79.036       44.841       46.411     6246.747     2010.722     2153.955        1.008        0.521       95.211       39.459        0.172      336.183        7.313      858.821
10/13/2013  02:00:00       36.889      220.873      -25.989       53.691      111.190       52.973     2882.753    12363.134     2806.178        3.443        0.903      223.933       63.848        0.081      336.202        7.343      858.825
10/13/2013  02:01:00       46.435       82.620       15.259       54.871       70.334       50.264     3010.795     4946.925     2526.435        0.985        0.524       94.775       46.693        0.243      336.181        7.311      858.810
10/13/2013  02:02:00       18.267      196.356      -27.213       53.045      125.537       41.992     2813.824    15759.555     1763.368        2.998        1.017      197.204       52.344        0.070      336.174        7.296      858.806
10/13/2013  02:03:00      -54.027      389.360      -39.899      103.129      114.758       57.495    10635.584    13169.491     3305.692        9.161        1.356      393.091       55.749        0.020      336.338        7.568      858.822
10/13/2013  02:04:00     -119.707      232.628      -27.550       70.734       79.779       46.980     5003.233     6364.726     2207.144        4.139        0.679      261.621       44.734        0.029      336.387        7.649      858.821
10/13/2013  02:05:00      -64.526      212.289      -22.387       97.351      111.210       46.622     9477.203    12367.627     2173.646        3.687        1.201      221.879       41.752        0.035      336.398        7.668      858.824
10/13/2013  02:06:00      -76.800      210.493      -23.987       65.206      131.636       40.311     4251.768    17327.991     1624.994        3.699        1.160      224.066       43.182        0.037      336.416        7.699      858.821
10/13/2013  02:07:00     -175.633      189.242      -40.512       79.848       97.035       44.997     6375.767     9415.835     2024.738        4.305        0.891      258.185       48.984        0.036      336.398        7.669      858.822
10/13/2013  02:08:00      -81.485      266.368      -19.725       69.389      108.843       45.635     4814.899    11846.874     2082.571        4.836        0.937      278.553       48.121        0.030      336.386        7.648      858.826
10/13/2013  02:09:00     -123.921      203.755      -26.998       85.695       83.745       44.431     7343.599     7013.304     1974.120        3.696        0.817      238.479       34.701        0.021      336.401        7.674      858.846
10/13/2013  02:10:00     -142.550      214.333      -33.130       65.440       97.306       50.316     4282.353     9468.394     2531.672        4.182        0.814      257.408       47.141        0.034      336.404        7.680      858.849
10/13/2013  02:11:00     -147.671      150.981      -22.359      105.850       65.743       51.101    11204.162     4322.170     2611.359        3.162        0.907      211.192       55.703        0.070      336.380        7.639      858.845
10/13/2013  02:12:00     -135.730      288.408      -42.520       76.168       79.007       46.646     5801.638     6242.078     2175.862        5.881        0.711      318.751       45.921        0.021      336.364        7.612      858.841
10/13/2013  02:13:00     -121.081      309.178      -36.308       65.202       94.188       52.203     4251.244     8871.391     2725.147        6.371        0.792      332.042       42.812        0.017      336.345        7.578      858.834
10/13/2013  02:14:00      -58.606      247.877      -24.343       70.354       71.653       34.830     4949.676     5134.205     1213.149        3.838        0.565      254.711       38.352        0.023      336.354        7.596      858.818
10/13/2013  02:15:00      -66.802      130.494      -12.425       43.775       62.910       31.810     1916.214     3957.620     1011.852        1.426        0.344      146.599       34.730        0.056      336.512        7.862      858.807
10/13/2013  02:16:00     -136.669      158.764      -32.427      104.613       60.666       40.010    10943.795     3680.328     1600.763        3.058        0.811      209.486       48.534        0.054      336.363        7.611      858.812
10/13/2013  02:17:00      -84.078      132.798      -18.855       75.877       85.995       36.101     5757.301     7395.157     1303.284        1.975        0.723      157.177       37.373        0.057      336.366        7.615      858.815
10/13/2013  02:18:00      -68.337      161.772       -9.040       51.632      151.463       42.302     2665.844    22941.157     1789.469        2.915        1.370      175.614       65.349        0.138      336.375        7.633      858.827
10/13/2013  02:19:00      -84.478      238.177      -26.467       74.692      116.413       54.342     5578.942    13552.001     2953.027        4.332        1.104      252.715       55.250        0.048      336.337        7.567      858.816
10/13/2013  02:20:00      -51.692       88.412       -0.164       54.842       89.176       47.110     3007.623     7952.284     2219.384        1.183        0.659      102.414       39.922        0.152      336.359        7.607      858.818
10/13/2013  02:21:00     -127.530      147.917      -22.562       59.712       70.958       46.952     3565.582     5035.008     2204.450        2.473        0.540      195.303       43.816        0.050      336.344        7.580      858.816
10/13/2013  02:22:00     -105.841      202.346      -30.026       56.851       49.734       37.627     3232.083     2473.422     1415.784        3.008        0.356      228.356       32.031        0.020      336.292        7.492      858.813
10/13/2013  02:23:00      -73.932       64.051        3.401       56.694       58.967       36.832     3214.252     3477.097     1356.574        0.881        0.402       97.818       41.303        0.178      336.355        7.601      858.807
10/13/2013  02:24:00     -129.462      136.373      -39.701       52.721       72.594       33.634     2779.522     5269.948     1131.227        2.306        0.459      188.037       23.757        0.016      336.310        7.524      858.806
10/13/2013  02:25:00     -102.333      193.000      -22.736       87.049       93.385       46.658     7577.482     8720.792     2176.947        3.335        0.924      218.452       49.224        0.051      336.315        7.532      858.800
10/13/2013  02:26:00     -128.042      196.280      -32.843       82.300       65.014       42.484     6773.230     4226.878     1804.911        3.440        0.640      234.351       49.141        0.044      336.295        7.498      858.786
10/13/2013  02:27:00      -62.588      185.623       -9.797       52.643       84.459       44.469     2771.238     7133.393     1977.523        2.517        0.594      195.891       45.441        0.054      336.320        7.539      858.778
10/13/2013  02:28:00      -76.702      116.645      -26.527       67.647       65.395       32.737     4576.095     4276.541     1071.684        1.506        0.496      139.604       33.642        0.058      336.327        7.553      858.761
10/13/2013  02:29:00      -73.026      127.427      -10.500       46.974       76.248       33.626     2206.562     5813.704     1130.694        1.541        0.458      146.869       41.915        0.081      336.310        7.524      858.749
10/13/2013  02:30:00     -146.055      187.763      -31.515       57.483       84.546       40.839     3304.286     7148.106     1667.860        3.485        0.606      237.880       33.108        0.019      336.267        7.450      858.742
10/13/2013  02:31:00      -95.744       87.909       -9.887       83.876       59.965       37.231     7035.139     3595.848     1386.136        1.450        0.601      129.981       28.129        0.047      336.264        7.448      858.744
10/13/2013  02:32:00     -113.097      142.470      -21.384       72.364       94.367       44.609     5236.503     8905.037     1989.938        2.484        0.807      181.903       50.901        0.078      336.228        7.386      858.752
10/13/2013  02:33:00     -112.117      211.998      -21.440       65.636      112.782       54.391     4308.081    12719.857     2958.431        3.898        0.999      239.820       41.907        0.031      336.233        7.395      858.765
10/13/2013  02:34:00     -156.712      229.185      -35.200       74.179       90.502       39.784     5502.537     8190.652     1582.756        4.680        0.764      277.641       43.569        0.025      336.208        7.351      858.785
10/13/2013  02:35:00     -116.703      177.590      -25.350       63.461       94.488       42.795     4027.274     8927.893     1831.394        3.029        0.739      212.504       45.525        0.046      336.235        7.398      858.792
10/13/2013  02:36:00     -107.968      163.876      -32.347       55.864       66.017       39.009     3120.775     4358.179     1521.709        2.428        0.450      196.246       38.483        0.038      336.242        7.410      858.794
10/13/2013  02:37:00     -102.039      140.876      -17.252       52.600       86.431       38.298     2766.727     7470.296     1466.718        2.113        0.585      173.948       24.311        0.020      336.240        7.406      858.794
10/13/2013  02:38:00     -125.415      121.457      -30.832       75.322       61.950       41.927     5673.351     3837.840     1757.869        2.135        0.563      174.587       40.260        0.053      336.216        7.367      858.793
10/13/2013  02:39:00      -80.904      122.855      -16.947       50.669       85.112       44.552     2567.392     7243.988     1984.862        1.686        0.590      147.101       40.510        0.076      336.230        7.391      858.798
10/13/2013  02:40:00      -72.771      139.925       -3.872       59.686       65.036       38.654     3562.449     4229.746     1494.106        1.709        0.464      157.717       43.099        0.075      336.262        7.443      858.799
10/13/2013  02:41:00     -119.789      147.011      -29.617       44.246       57.280       28.723     1957.730     3280.941      824.991        2.145        0.303      189.635       13.755        0.005      336.252        7.425      858.794
10/13/2013  02:42:00      -42.784      222.922      -31.550       45.763       81.032       32.883     2094.245     6566.231     1081.277        3.113        0.487      226.990       34.377        0.023      336.244        7.412      858.798
10/13/2013  02:43:00     -107.539      265.064      -33.609       69.056       90.403       43.651     4768.773     8172.669     1905.409        4.890        0.742      286.049       41.969        0.022      336.228        7.385      858.798
10/13/2013  02:44:00      -83.144      119.547       -8.722       52.210       64.368       37.456     2725.916     4143.254     1402.938        1.477        0.414      145.618       30.907        0.045      336.275        7.466      858.790
10/13/2013  02:45:00      -80.333      210.974      -21.589       47.526      108.786       33.951     2258.744    11834.394     1152.669        3.333        0.762      225.750       35.179        0.024      336.234        7.397      858.788
10/13/2013  02:46:00      -91.587      172.680      -22.045       52.671       69.614       36.896     2774.222     4846.164     1361.297        2.384        0.449      195.465       32.639        0.028      336.243        7.413      858.783
10/13/2013  02:47:00      -77.012      173.087      -12.889       70.380       62.758       49.853     4953.347     3938.564     2485.358        2.371        0.569      189.446       43.405        0.052      336.252        7.427      858.773
10/13/2013  02:48:00      -57.655      253.423      -28.337       69.405       80.803       47.931     4817.038     6529.112     2297.387        4.099        0.682      259.898       34.462        0.018      336.226        7.382      858.770
10/13/2013  02:49:00      -49.338      235.065      -10.461       49.546       95.465       46.253     2454.791     9113.495     2139.324        3.575        0.685      240.187       49.800        0.043      336.226        7.382      858.755
10/13/2013  02:50:00     -184.175      159.133      -34.884       77.563       96.802       44.683     6016.095     9370.603     1996.572        3.892        0.869      243.400       52.295        0.046      336.202        7.343      858.753
10/13/2013  02:51:00     -114.702      168.944      -27.068       69.667       57.466       38.164     4853.470     3302.328     1456.501        2.602        0.481      204.203       27.022        0.018      336.183        7.310      858.754
10/13/2013  02:52:00      -91.695      111.584      -20.117       66.379       57.325       35.122     4406.162     3286.135     1233.576        1.509        0.446      144.426       35.301        0.060      336.168        7.288      858.756
10/13/2013  02:53:00     -131.526      190.657      -36.923       64.564       69.278       37.217     4168.453     4799.462     1385.084        3.268        0.518      231.623       30.393        0.017      336.169        7.288      858.769
10/13/2013  02:54:00      -86.555      147.776      -23.803       72.159       57.362       35.981     5206.922     3290.447     1294.611        1.984        0.490      171.258       32.427        0.036      336.212        7.361      858.772
10/13/2013  02:55:00     -123.169      129.509      -25.387       57.206       84.330       33.035     3272.560     7111.616     1091.316        2.203        0.574      178.726       29.739        0.028      336.215        7.366      858.770
10/13/2013  02:56:00      -91.215      126.669      -15.268       64.973       66.670       32.314     4221.544     4444.896     1044.183        1.715        0.486      156.094       31.209        0.040      336.184        7.314      858.765
10/13/2013  02:57:00      -67.540      161.527      -20.123       47.536       70.404       32.267     2259.706     4956.677     1041.154        1.966        0.413      175.079       28.493        0.026      336.168        7.288      858.765
10/13/2013  02:58:00      -52.258      125.390       -9.412       46.993       75.330       38.078     2208.375     5674.611     1449.951        1.394        0.467      135.844       35.458        0.068      336.198        7.336      858.771
10/13/2013  02:59:00     -134.153      120.119      -22.682       69.349       73.163       33.895     4809.218     5352.757     1148.874        2.212        0.566      180.071       27.761        0.024      336.147        7.250      858.777
10/13/2013  03:00:00      -69.927      120.781      -13.104       69.439       54.856       46.368     4821.800     3009.159     2150.017        1.481        0.499      139.563       45.731        0.107      336.184        7.313      858.791
10/13/2013  03:01:00      -54.734      156.578      -14.154       45.711       70.813       30.408     2089.523     5014.533      924.620        1.787        0.401      165.869       24.527        0.022      336.190        7.324      858.795
10/13/2013  03:02:00      -76.182      114.000      -18.450       46.160       49.202       31.524     2130.763     2420.848      993.778        1.234        0.277      137.112       31.418        0.053      336.227        7.386      858.812
10/13/2013  03:03:00      -79.088      124.485       -5.458       47.383       94.595       37.743     2245.196     8948.263     1424.536        1.720        0.631      147.484       34.598        0.055      336.152        7.260      858.825
10/13/2013  03:04:00     -140.193       96.609      -30.753       41.752       55.490       27.828     1743.210     3079.109      774.403        1.776        0.280      170.257       31.363        0.034      336.140        7.239      858.832
10/13/2013  03:05:00      -99.507      158.686      -27.450       53.176       72.440       32.192     2827.675     5247.526     1036.350        2.247        0.456      187.304       28.232        0.023      336.146        7.249      858.828
10/13/2013  03:06:00      -50.020      109.535       -9.784       42.949       46.797       34.469     1844.581     2190.004     1188.138        0.991        0.261      120.415       33.348        0.077      336.188        7.320      858.825
10/13/2013  03:07:00      -44.479       95.166       -3.278       50.086       52.310       32.243     2508.583     2736.373     1039.582        0.866        0.314      105.047       21.719        0.043      336.193        7.330      858.820
10/13/2013  03:08:00      -58.421       84.145       -7.797       32.701       27.780       21.217     1069.369      771.702      450.144        0.642        0.115      102.437       14.238        0.019      336.184        7.315      858.814
10/13/2013  03:09:00      -37.853       59.285      -12.529       24.055       19.226       19.993      578.641      369.628      399.713        0.323        0.067       70.339       17.590        0.063      336.204        7.349      858.809
10/13/2013  03:10:00      -54.182       95.298      -10.502       30.540       46.905       26.458      932.719     2200.039      700.008        0.798        0.192      109.624       19.284        0.031      336.213        7.363      858.799
10/13/2013  03:11:00      -45.804       16.557       -8.997       41.104       41.808       19.756     1689.566     1747.921      390.315        0.314        0.191       48.704       14.340        0.087      336.219        7.374      858.785
10/13/2013  03:12:00      -24.047       44.720        2.451       26.188       30.752       19.674      685.828      945.666      387.080        0.230        0.101       50.775       19.487        0.147      336.250        7.425      858.773
10/13/2013  03:13:00      -54.314       21.697       -7.318       32.040       45.114       16.633     1026.588     2035.303      276.668        0.341        0.167       58.487       10.758        0.034      336.248        7.423      858.772
10/13/2013  03:14:00      -56.114       -8.013      -11.534       59.843       37.234       18.999     3581.148     1386.373      360.975        0.434        0.266       56.684       11.352        0.040      336.179        7.308      858.765
10/13/2013  03:15:00      -79.355       39.886      -17.599       40.468       33.026       18.403     1637.681     1090.741      338.659        0.563        0.153       88.815       20.925        0.056      336.191        7.327      858.761
10/13/2013  03:16:00      -51.135       -8.560        8.348       42.769       30.563       23.068     1829.173      934.079      532.139        0.303        0.165       51.846       16.536        0.102      336.219        7.374      858.752
10/13/2013  03:17:00      -40.910      -34.089        1.940       49.140       31.229       21.214     2414.788      975.238      450.051        0.334        0.192       53.251       21.882        0.169      336.172        7.293      858.747
10/13/2013  03:18:00      -89.420      -58.996      -11.758       44.334       38.354       25.152     1965.484     1471.004      632.624        0.784        0.203      107.128       24.338        0.052      336.190        7.326      858.751
10/13/2013  03:19:00      -67.320      -35.624       -1.000       55.179       34.200       19.446     3044.751     1169.653      378.157        0.520        0.230       76.165       11.495        0.023      336.135        7.233      858.757
10/13/2013  03:20:00      -86.519      -31.771      -10.344       39.317       33.424       24.317     1545.845     1117.149      591.330        0.593        0.163       92.168       17.451        0.036      336.067        7.121      858.762
10/13/2013  03:21:00      -44.045      -25.987       -2.840       27.890       28.396       14.353      777.835      806.345      206.008        0.221        0.090       51.140        6.545        0.016      336.081        7.142      858.761
10/13/2013  03:22:00       -5.428      -29.850        5.066       31.178       22.494       15.721      972.056      505.998      247.160        0.134        0.086       30.339       14.537        0.230      336.135        7.232      858.757
10/13/2013  03:23:00      -21.297      -15.175        9.867       33.009       23.832       21.683     1089.603      567.977      470.172        0.145        0.106       26.150       19.838        0.576      336.169        7.289      858.743
10/13/2013  03:24:00       11.080       89.832      -10.791       22.278       36.948       25.821      496.295     1365.174      666.713        0.542        0.126       90.513       21.987        0.059      336.152        7.262      858.733
10/13/2013  03:25:00      -22.922        0.784       14.224       23.767       34.931       18.583      564.850     1220.184      345.341        0.143        0.107       22.935       18.046        0.619      336.186        7.319      858.719
10/13/2013  03:26:00      -67.445        8.510       -3.787       29.035       44.609       14.144      843.023     1989.963      200.039        0.383        0.152       67.980       15.111        0.049      336.234        7.399      858.716
10/13/2013  03:27:00      -70.393       17.292      -12.865       30.424       22.543       14.132      925.603      508.192      199.700        0.353        0.082       72.486        7.244        0.010      336.238        7.406      858.718
10/13/2013  03:28:00      -91.870       61.177      -18.939       30.563       40.165       19.099      934.111     1613.212      364.777        0.773        0.146      110.375       21.958        0.040      336.155        7.264      858.713
10/13/2013  03:29:00     -101.953       97.039      -21.859       43.195       55.065       29.523     1865.780     3032.206      871.617        1.303        0.288      140.751       28.479        0.041      336.181        7.308      858.703
10/13/2013  03:30:00     -102.706       79.199      -20.201       57.048       65.771       30.212     3254.448     4325.792      912.789        1.286        0.425      129.696       30.521        0.055      336.193        7.330      858.694
10/13/2013  03:31:00     -105.053      142.317      -38.039       39.323       83.978       32.743     1546.323     7052.240     1072.107        2.120        0.484      176.891       26.704        0.023      336.202        7.346      858.692
10/13/2013  03:32:00     -110.103       51.552        5.767       84.338       82.633       47.850     7112.841     6828.143     2289.635        1.552        0.812      121.575       45.386        0.139      336.244        7.415      858.676
10/13/2013  03:33:00      -86.416       82.125      -23.187       49.388       73.553       28.338     2439.218     5409.980      803.014        1.170        0.433      119.215       24.301        0.042      336.275        7.465      858.683
10/13/2013  03:34:00      -68.986        5.393       -1.637       52.664       43.534       30.088     2773.494     1895.250      905.261        0.518        0.279       69.197       24.535        0.126      336.280        7.475      858.690
10/13/2013  03:35:00      -91.940      166.254      -22.961       78.212       64.835       44.221     6117.134     4203.564     1955.538        2.445        0.614      189.983       34.583        0.033      336.288        7.485      858.688
10/13/2013  03:36:00     -110.004       96.651      -32.308       50.503       44.975       38.061     2550.541     2022.740     1448.625        1.425        0.301      146.432       20.090        0.019      336.287        7.487      858.690
10/13/2013  03:37:00      -34.475      107.791        1.698       57.631       57.214       38.938     3321.298     3273.388     1516.155        1.046        0.406      113.170       27.251        0.058      336.355        7.603      858.692
10/13/2013  03:38:00      -56.601      109.324       -5.267       39.656       43.979       27.050     1572.618     1934.127      731.701        0.971        0.212      123.107       25.118        0.042      336.318        7.539      858.698
10/13/2013  03:39:00      -63.166       88.431        1.423       64.250       79.515       35.301     4128.037     6322.606     1246.140        1.175        0.585      108.674       33.088        0.093      336.359        7.607      858.697
10/13/2013  03:40:00      -96.271      132.367      -20.818       56.146       81.722       49.354     3152.387     6678.460     2435.816        1.974        0.613      163.674       50.745        0.096      336.343        7.579      858.703
10/13/2013  03:41:00      -65.344      193.201      -16.885       47.212       96.153       38.101     2228.978     9245.441     1451.678        2.740        0.646      203.952       45.234        0.049      336.321        7.540      858.707
10/13/2013  03:42:00      -38.690      271.577      -30.586       46.262       53.642       31.030     2140.132     2877.478      962.885        4.108        0.299      274.319       22.043        0.006      336.313        7.526      858.708
10/13/2013  03:43:00      -61.478      193.171      -17.305       39.214       77.257       30.432     1537.750     5968.693      926.100        2.491        0.422      202.718       35.498        0.031      336.396        7.666      858.711
10/13/2013  03:44:00      -75.370      116.418      -12.518       50.474       49.715       34.033     2547.590     2471.548     1158.253        1.278        0.309      138.686       27.668        0.040      336.360        7.607      858.713
10/13/2013  03:45:00      -84.874       99.014      -20.954       76.311       61.832       39.985     5823.430     3823.186     1598.781        1.434        0.562      130.413       49.990        0.147      336.404        7.680      858.715
10/13/2013  03:46:00      -62.305      140.447       -5.836       56.134      106.488       36.497     3151.026    11339.718     1332.000        1.973        0.791      153.647       35.650        0.054      336.350        7.592      858.720
10/13/2013  03:47:00      -76.447      208.827      -24.409       44.669       58.280       35.174     1995.292     3396.527     1237.244        2.834        0.331      222.380       28.036        0.016      336.388        7.652      858.718
10/13/2013  03:48:00      -50.423      132.995       -7.266       41.323       56.672       38.785     1707.569     3211.765     1504.244        1.335        0.321      142.233       33.676        0.056      336.393        7.664      858.724
10/13/2013  03:49:00      -63.839       42.270       -6.806       35.334       35.210       27.123     1248.468     1239.755      735.678        0.457        0.161       76.565       16.754        0.048      336.382        7.647      858.725
10/13/2013  03:50:00      -90.614       32.894       -7.742       54.755       36.141       27.000     2998.110     1306.185      728.990        0.719        0.252       96.400       23.000        0.057      336.415        7.700      858.734
10/13/2013  03:51:00     -140.611      120.279      -28.927       59.985       75.814       35.968     3598.221     5747.773     1293.679        2.286        0.532      185.037       33.051        0.032      336.307        7.519      858.750
10/13/2013  03:52:00      -97.173      124.002      -20.014       73.360       62.354       38.638     5381.642     3888.020     1492.867        1.799        0.538      157.541       47.107        0.089      336.305        7.514      858.745
10/13/2013  03:53:00      -75.617      136.930      -19.551       55.602       65.767       43.928     3091.595     4325.319     1929.688        1.710        0.467      156.421       43.510        0.077      336.306        7.518      858.742
10/13/2013  03:54:00      -68.640      112.056      -19.431       33.123       61.502       29.423     1097.143     3782.483      865.707        1.169        0.287      131.408       32.365        0.061      336.357        7.603      858.735
10/13/2013  03:55:00      -87.730      108.846       -9.851       66.594       84.670       38.885     4434.700     7168.998     1512.026        1.638        0.656      139.800       28.729        0.042      336.375        7.633      858.732
10/13/2013  03:56:00      -73.695        0.267       -3.325       61.639       56.519       28.557     3799.380     3194.361      815.474        0.662        0.390       73.695       24.600        0.111      336.396        7.670      858.736
10/13/2013  03:57:00      -96.464       29.577       -8.128       78.632       80.723       41.958     6183.068     6516.136     1760.508        1.235        0.723      100.896       39.062        0.150      336.400        7.674      858.746
10/13/2013  03:58:00     -102.826      133.217      -30.210       75.778       66.458       40.704     5742.320     4416.681     1656.808        2.052        0.591      168.285       36.449        0.047      336.344        7.581      858.756
10/13/2013  03:59:00     -146.349       65.259      -24.661       83.764       70.889       41.597     7016.471     5025.209     1730.315        2.003        0.689      160.239       36.460        0.052      336.331        7.558      858.768
10/13/2013  04:00:00     -151.791      139.490      -31.375       67.525       78.816       40.029     4559.649     6211.992     1602.347        2.793        0.619      206.150       34.121        0.027      336.314        7.529      858.778
10/13/2013  04:01:00     -156.704      114.285      -31.201       41.387       54.703       33.384     1712.885     2992.432     1114.497        2.220        0.291      193.951       36.279        0.035      336.323        7.544      858.787
10/13/2013  04:02:00      -69.782       73.321      -15.483       38.388       33.915       25.162     1473.673     1150.256      633.125        0.687        0.163      101.220       21.145        0.044      336.395        7.668      858.793
10/13/2013  04:03:00      -50.758       51.850       -6.277       42.087       86.669       30.804     1771.300     7511.497      948.884        0.777        0.512       72.559       29.076        0.161      336.489        7.825      858.801
10/13/2013  04:04:00      -92.014       94.473       -0.326       74.844       94.558       43.435     5601.597     8941.133     1886.635        1.691        0.821      131.878       36.425        0.076      336.406        7.683      858.810
10/13/2013  04:05:00      -98.382       68.262      -11.089       76.573       68.283       47.029     5863.394     4662.540     2211.680        1.360        0.637      119.745       51.886        0.188      336.408        7.688      858.819
10/13/2013  04:06:00     -102.350      120.676      -23.144       42.259       54.353       37.942     1785.851     2954.205     1439.621        1.588        0.309      158.235       18.058        0.013      336.419        7.707      858.815
10/13/2013  04:07:00      -97.933       53.992      -18.585       78.527       45.935       26.957     6166.487     2110.052      726.667        1.093        0.450      111.830       25.255        0.051      336.365        7.618      858.829
10/13/2013  04:08:00     -106.822       90.091      -15.252       68.737       68.849       34.811     4724.771     4740.162     1211.829        1.522        0.534      139.740       24.112        0.030      336.378        7.639      858.833
10/13/2013  04:09:00     -116.274      162.203      -21.249       67.382       78.717       39.588     4540.380     6196.363     1567.187        2.629        0.615      199.573       43.565        0.048      336.366        7.617      858.834
10/13/2013  04:10:00     -136.176      224.372      -24.501       57.130       78.565       41.851     3263.894     6172.386     1751.487        4.034        0.559      262.463       40.164        0.023      336.348        7.585      858.846
10/13/2013  04:11:00     -151.060      172.340      -31.319       67.616       77.448       38.248     4571.933     5998.224     1462.904        3.276        0.602      229.173       42.471        0.034      336.326        7.550      858.856
10/13/2013  04:12:00     -106.341      183.658      -26.237       48.976       77.593       37.254     2398.679     6020.692     1387.849        2.777        0.490      212.223       35.060        0.027      336.393        7.663      858.870
10/13/2013  04:13:00     -140.244      159.891      -26.182       87.016       69.545       46.483     7571.738     4836.462     2160.669        3.024        0.728      212.681       42.172        0.039      336.354        7.597      858.875
10/13/2013  04:14:00     -107.434      180.603       -8.848       72.266      106.134       42.592     5222.371    11264.440     1814.051        3.127        0.915      210.142       42.155        0.040      336.351        7.590      858.880
10/13/2013  04:15:00     -129.458      218.520      -24.648       66.946       92.558       53.232     4481.767     8566.913     2833.623        4.050        0.794      253.989       47.950        0.036      336.356        7.598      858.884
10/13/2013  04:16:00     -103.688      130.293      -10.048       67.874       57.718       35.079     4606.933     3331.316     1230.555        1.850        0.458      166.515       30.073        0.033      336.364        7.614      858.892
10/13/2013  04:17:00     -107.630       96.901      -25.702       43.081       42.887       24.479     1856.004     1839.336      599.210        1.296        0.215      144.824       17.753        0.015      336.378        7.639      858.902
10/13/2013  04:18:00     -141.516      159.529      -32.311       66.118       57.435       40.715     4371.598     3298.725     1657.737        2.792        0.466      213.252       31.895        0.022      336.334        7.561      858.902
10/13/2013  04:19:00     -101.758      127.028      -20.766       63.580       68.367       42.300     4042.472     4674.000     1789.276        1.871        0.525      162.760       41.146        0.064      336.336        7.567      858.914
10/13/2013  04:20:00     -121.667      176.216      -30.421       68.252       62.186       36.537     4658.391     3867.057     1334.922        2.832        0.493      214.137       33.816        0.025      336.319        7.537      858.928
10/13/2013  04:21:00     -125.759      198.440      -30.105       73.185       64.729       36.761     5356.079     4189.900     1351.371        3.350        0.545      234.934       37.921        0.026      336.326        7.549      858.936
10/13/2013  04:22:00     -111.280      151.641      -27.854       47.415       57.629       31.268     2248.155     3321.092      977.657        2.135        0.327      188.091       33.033        0.031      336.326        7.550      858.959
10/13/2013  04:23:00      -68.742       82.057      -10.355       37.686       36.677       21.631     1420.209     1345.229      467.882        0.740        0.162      107.046       16.037        0.022      336.433        7.733      858.973
10/13/2013  04:24:00      -46.014      139.208      -11.091       49.907       43.933       28.533     2490.734     1930.140      814.134        1.343        0.262      146.616       23.141        0.025      336.482        7.811      858.985
10/13/2013  04:25:00     -113.097      109.638      -14.789       58.832       72.778       36.003     3461.245     5296.691     1296.198        1.754        0.503      157.517       36.871        0.055      336.407        7.685      858.998
10/13/2013  04:26:00     -129.856      134.787      -27.247       70.363       56.333       44.210     4950.888     3173.369     1954.498        2.292        0.504      187.163       41.641        0.049      336.337        7.569      859.012
10/13/2013  04:27:00     -134.813      156.946      -39.790       69.904       64.857       43.502     4886.577     4206.367     1892.435        2.769        0.549      206.898       40.355        0.038      336.309        7.521      859.029
10/13/2013  04:28:00      -95.821      139.069      -19.620       85.716       68.663       52.695     7347.215     4714.676     2776.756        2.187        0.742      168.884       47.984        0.081      336.377        7.635      859.039
10/13/2013  04:29:00     -132.689      178.173      -18.580       98.681      139.865       52.800     9738.005    19562.284     2787.862        4.089        1.604      222.153       50.813        0.052      336.341        7.574      859.044
10/13/2013  04:30:00      -36.240       71.133        3.612       65.332       66.781       43.512     4268.303     4459.723     1893.333        0.850        0.531       79.833       37.823        0.224      336.387        7.652      859.054
10/13/2013  04:31:00     -170.731      107.563      -18.050       76.112       76.657       51.303     5793.112     5876.324     2632.002        2.767        0.715      201.789       50.462        0.063      336.400        7.671      859.058
10/13/2013  04:32:00     -111.423       69.414      -19.286       55.410       92.158       35.775     3070.255     8493.108     1279.859        1.522        0.642      131.276       41.979        0.102      336.399        7.673      859.067
10/13/2013  04:33:00     -159.246      -61.022      -17.330       45.378       53.982       30.964     2059.165     2914.082      958.751        1.766        0.297      170.538       14.804        0.008      336.390        7.658      859.071
10/13/2013  04:34:00     -164.457      -11.284      -13.360       56.090       57.381       39.753     3146.112     3292.609     1580.276        1.768        0.401      164.844       21.823        0.018      336.369        7.624      859.097
10/13/2013  04:35:00     -138.422      -28.178        7.513       92.715       80.572       50.158     8596.023     6491.854     2515.853        1.880        0.880      141.261       37.618        0.071      336.371        7.624      859.099
10/13/2013  04:36:00      -72.970       52.950       -3.622       67.080       55.866       39.173     4499.766     3120.999     1534.497        0.865        0.458       90.157       37.440        0.172      336.394        7.666      859.122
10/13/2013  04:37:00     -100.516       62.397      -14.256       70.348       49.252       39.893     4948.809     2425.760     1591.467        1.158        0.448      118.308       31.102        0.069      336.348        7.589      859.148
10/13/2013  04:38:00     -130.644       21.706       -4.981       95.264       84.650       48.836     9075.309     7165.614     2384.927        1.809        0.931      132.435       46.128        0.121      336.357        7.602      859.155
10/13/2013  04:39:00     -100.520       95.597      -23.336       92.782       59.540       41.447     8608.538     3545.008     1717.836        1.683        0.694      138.719       47.014        0.115      336.341        7.576      859.171
10/13/2013  04:40:00      -60.895       45.991       -3.449       55.093       78.823       40.561     3035.231     6213.006     1645.203        0.836        0.545       76.311       39.954        0.274      336.421        7.711      859.175
10/13/2013  04:41:00     -120.395       14.263      -14.075       68.565       74.604       34.024     4701.188     5565.721     1157.630        1.316        0.571      121.237       24.411        0.041      336.386        7.650      859.192
10/13/2013  04:42:00     -255.039       47.351      -27.089       49.877       65.698       35.139     2487.719     4316.227     1234.784        3.803        0.402      259.397       15.706        0.004      336.332        7.556      859.203
10/13/2013  04:43:00     -136.493       40.032      -19.056       63.449       53.083       38.204     4025.737     2817.846     1459.516        1.445        0.415      142.242       24.972        0.031      336.313        7.531      859.206
10/13/2013  04:44:00     -103.369      146.962       -4.993       74.656       71.113       53.540     5573.525     5057.102     2866.531        2.290        0.675      179.675       32.294        0.032      336.356        7.600      859.217
10/13/2013  04:45:00     -245.189      179.634      -47.965       93.371      134.060       62.552     8718.144    17971.971     3912.718        6.264        1.530      303.951       70.057        0.053      336.292        7.493      859.233
10/13/2013  04:46:00     -130.133      128.137      -21.292       91.859       86.224       50.463     8438.039     7434.598     2546.527        2.611        0.921      182.630       45.316        0.062      336.310        7.524      859.231
10/13/2013  04:47:00     -161.964      160.723      -38.342       71.100       63.704       48.063     5055.189     4058.203     2310.015        3.248        0.571      228.176       40.190        0.031      336.299        7.505      859.246
10/13/2013  04:48:00     -155.076      161.175      -14.128      102.631       90.731       59.536    10533.223     8232.171     3544.587        3.626        1.115      223.665       58.482        0.068      336.287        7.486      859.256
10/13/2013  04:49:00     -111.842      115.933      -15.768       55.748       55.436       37.229     3107.882     3073.202     1386.003        1.688        0.378      161.087       27.053        0.028      336.283        7.480      859.264
10/13/2013  04:50:00      -73.016      188.188      -19.066       50.447       70.102       33.939     2544.896     4914.342     1151.883        2.486        0.431      201.856       19.691        0.010      336.353        7.595      859.269
10/13/2013  04:51:00      -73.004       98.818       -5.329       53.979       43.200       38.440     2913.712     1866.231     1477.617        1.069        0.313      122.860       34.247        0.078      336.343        7.581      859.277
10/13/2013  04:52:00      -75.562      168.995      -12.798       73.019      106.544       43.120     5331.801    11351.667     1859.321        2.648        0.927      185.119       57.388        0.096      336.385        7.648      859.280
10/13/2013  04:53:00     -136.237      142.414      -25.171       67.708       75.987       40.299     4584.398     5773.975     1624.027        2.573        0.599      197.084       29.160        0.022      336.363        7.609      859.298
10/13/2013  04:54:00      -52.761      120.013       -3.984       52.757       83.252       40.529     2783.285     6930.846     1642.581        1.428        0.568      131.099       38.985        0.088      336.412        7.696      859.301
10/13/2013  04:55:00      -49.853      217.195      -15.628       79.317      103.917       47.441     6291.148    10798.777     2250.664        3.462        0.967      222.843       44.187        0.039      336.350        7.589      859.310
10/13/2013  04:56:00     -119.804      187.468      -22.039       81.002       79.238       44.380     6561.308     6278.687     1969.563        3.239        0.740      222.480       43.907        0.039      336.353        7.593      859.310
10/13/2013  04:57:00     -104.992      152.792      -29.139       67.548       60.561       43.111     4562.762     3667.636     1858.585        2.265        0.504      185.388       37.756        0.041      336.358        7.603      859.322
10/13/2013  04:58:00     -160.344      108.575      -24.237       91.711      112.845       55.886     8410.970    12734.002     3123.273        3.117        1.213      193.646       59.777        0.095      336.333        7.562      859.324
10/13/2013  04:59:00     -132.268      209.071      -31.368       89.161       83.866       47.143     7949.604     7033.577     2222.505        3.969        0.860      247.397       44.883        0.033      336.254        7.429      859.321
10/13/2013  05:00:00     -100.081      116.154      -19.412       59.141       81.719       37.468     3497.639     6677.968     1403.861        1.773        0.579      153.323       33.256        0.047      336.261        7.442      859.314
10/13/2013  05:01:00     -113.483      126.010      -22.398       61.086       61.537       41.351     3731.487     3786.805     1709.880        1.924        0.461      169.578       41.754        0.061      336.288        7.488      859.302
10/13/2013  05:02:00      -97.895       94.975      -19.049       57.396       96.301       38.047     3294.319     9273.830     1447.561        1.649        0.701      136.396       45.136        0.110      336.287        7.485      859.301
10/13/2013  05:03:00      -90.701      161.721      -27.260       68.027       80.237       38.788     4627.651     6438.033     1504.516        2.384        0.629      185.419       45.403        0.060      336.272        7.462      859.297
10/13/2013  05:04:00     -182.988      203.797      -47.169       90.160      104.011       53.935     8128.899    10818.311     2909.022        4.955        1.093      273.894       56.866        0.043      336.234        7.397      859.310
10/13/2013  05:05:00     -147.729      238.453      -33.192       68.837       58.528       46.843     4738.530     3425.503     2194.269        4.507        0.518      280.506       43.483        0.024      336.207        7.350      859.317
10/13/2013  05:06:00     -135.116      124.484      -26.067       86.313       93.105       42.861     7449.851     8668.506     1837.041        2.619        0.898      183.719       54.107        0.087      336.278        7.470      859.323
10/13/2013  05:07:00      -92.961       96.540       -8.255       60.995       56.125       41.817     3720.352     3150.039     1748.650        1.332        0.431      134.021       34.205        0.065      336.247        7.420      859.333
10/13/2013  05:08:00     -110.043      154.523      -30.355       78.904       66.839       48.339     6225.910     4467.421     2336.624        2.497        0.651      189.701       43.085        0.052      336.205        7.348      859.336
10/13/2013  05:09:00     -114.109      113.869      -19.829       45.834       46.773       30.065     2100.733     2187.722      903.921        1.579        0.260      161.205       25.882        0.026      336.235        7.400      859.336
10/13/2013  05:10:00      -97.062      216.927      -28.089       65.953       84.736       48.484     4349.811     7180.137     2350.656        3.557        0.694      237.652       46.457        0.038      336.253        7.428      859.344
10/13/2013  05:11:00      -78.828      186.466      -19.935       51.613       71.469       34.358     2663.901     5107.882     1180.474        2.516        0.448      202.444       27.846        0.019      336.245        7.415      859.343
10/13/2013  05:12:00     -106.102      238.806      -38.283       64.071       78.890       41.800     4105.146     6223.687     1747.256        4.091        0.604      261.316       38.268        0.021      336.174        7.295      859.349
10/13/2013  05:13:00      -51.960      262.197      -25.252       69.023       84.163       39.777     4764.218     7083.491     1582.249        4.275        0.671      267.296       39.127        0.021      336.186        7.316      859.360
10/13/2013  05:14:00     -121.361      134.974      -11.991       72.157       75.319       41.140     5206.628     5672.899     1692.469        2.283        0.629      181.512       41.505        0.052      336.204        7.346      859.371
10/13/2013  05:15:00      -34.958      208.900       -7.810       80.255      158.594       64.845     6440.872    25152.117     4204.892        4.035        1.790      211.804       74.665        0.124      336.217        7.369      859.374
10/13/2013  05:16:00     -113.810      120.419       -4.597       78.830      104.912       52.177     6214.101    11006.627     2722.397        2.370        0.997      165.691       38.404        0.054      336.214        7.362      859.382
10/13/2013  05:17:00     -181.729      235.917      -51.904       77.527      124.234       55.024     6010.400    15434.099     3027.634        5.792        1.224      297.796       54.233        0.033      336.122        7.208      859.394
10/13/2013  05:18:00      -50.108       39.592      -10.173       52.286       65.369       31.894     2733.863     4273.081     1017.211        0.610        0.401       63.862       18.568        0.085      336.234        7.398      859.396
10/13/2013  05:19:00      -12.141       65.620        8.242       44.420       73.532       34.293     1973.107     5406.890     1176.029        0.654        0.428       66.734       35.613        0.285      336.239        7.407      859.416
10/13/2013  05:20:00      -56.726      203.702      -24.334       43.655       61.385       36.436     1905.725     3768.153     1327.569        2.615        0.350      211.453       28.812        0.019      336.164        7.280      859.432
10/13/2013  05:21:00      -72.822      146.560       -0.443       60.876       71.903       43.573     3705.831     5170.044     1898.617        1.878        0.539      163.655       30.949        0.036      336.234        7.397      859.452
10/13/2013  05:22:00      -65.340      142.979      -19.759       64.238       57.621       32.536     4126.469     3320.219     1058.569        1.680        0.425      157.201       30.270        0.037      336.192        7.328      859.470
10/13/2013  05:23:00     -140.700      127.031      -24.691       84.290       64.333       42.461     7104.792     4138.705     1802.975        2.479        0.652      189.561       45.698        0.058      336.199        7.338      859.489
10/13/2013  05:24:00     -150.698      195.702      -43.265      108.800       87.640       58.508    11837.422     7680.823     3423.238        4.291        1.147      247.000       61.200        0.061      336.109        7.187      859.501
10/13/2013  05:25:00     -175.728      227.632      -45.420      107.580      100.005       61.311    11573.536    10001.093     3759.034        5.504        1.267      287.570       61.492        0.046      336.078        7.134      859.508
10/13/2013  05:26:00     -110.337      220.520      -28.266       55.232       76.794       44.761     3050.599     5897.243     2003.530        3.627        0.548      246.583       40.425        0.027      336.067        7.117      859.518
10/13/2013  05:27:00     -145.234      175.343      -34.528       66.181       85.447       47.845     4379.983     7301.183     2289.183        3.350        0.699      227.680       46.542        0.042      336.086        7.149      859.530
10/13/2013  05:28:00     -104.479      228.162      -35.292      115.637      104.998       45.816    13371.976    11024.586     2099.108        4.535        1.325      250.946       42.032        0.028      336.129        7.219      859.539
10/13/2013  05:29:00     -181.693      142.002      -28.378       85.691       72.506       50.461     7342.967     5257.119     2546.349        3.456        0.757      230.602       45.406        0.039      336.097        7.167      859.550
10/13/2013  05:30:00      -68.438       73.691      -19.867       47.729       51.946       30.476     2278.056     2698.385      928.761        0.821        0.295      100.569       21.182        0.044      336.137        7.236      859.550
10/13/2013  05:31:00     -123.396      218.511      -33.864       72.288       79.480       49.536     5225.588     6317.037     2453.819        3.906        0.700      250.945       38.863        0.024      336.122        7.208      859.552
10/13/2013  05:32:00     -141.454      108.712      -23.697       66.049       62.754       35.300     4362.442     3938.106     1246.119        2.097        0.477      178.403       14.850        0.007      336.117        7.201      859.548
10/13/2013  05:33:00     -186.532      147.983      -37.161       79.511       80.647       40.312     6322.077     6503.887     1625.069        3.626        0.723      238.104       40.587        0.029      336.109        7.187      859.553
10/13/2013  05:34:00      -98.906      159.571      -25.021       70.674       66.458       44.142     4994.880     4416.706     1948.535        2.361        0.568      187.737       38.393        0.042      336.164        7.280      859.567
10/13/2013  05:35:00     -187.728      201.318      -37.694       85.929       92.662       49.495     7383.742     8586.234     2449.767        4.780        0.921      275.265       51.634        0.035      336.115        7.198      859.583
10/13/2013  05:36:00     -152.250      165.357      -36.847       84.588       91.116       47.195     7155.102     8302.157     2227.334        3.478        0.884      224.773       56.053        0.062      336.133        7.227      859.585
10/13/2013  05:37:00     -217.100      224.362      -51.477       81.491       80.734       48.285     6640.737     6517.939     2331.428        5.780        0.775      312.203       48.388        0.024      336.090        7.155      859.589
10/13/2013  05:38:00     -103.524      270.359      -36.410       84.633       85.287       41.820     7162.739     7273.808     1748.930        5.066        0.809      289.502       34.807        0.014      336.144        7.246      859.592
10/13/2013  05:39:00     -118.604      189.215      -14.879       85.798      102.460       55.882     7361.356    10498.117     3122.801        3.553        1.049      223.314       53.669        0.058      336.106        7.183      859.596
10/13/2013  05:40:00      -73.511      262.148      -22.148       66.442       81.662       43.780     4414.495     6668.629     1916.651        4.381        0.650      272.260       37.808        0.019      336.104        7.177      859.601
10/13/2013  05:41:00      -66.993      169.994      -14.435       47.558       82.937       32.069     2261.766     6878.562     1028.437        2.188        0.508      182.719       30.397        0.028      336.208        7.354      859.615
10/13/2013  05:42:00     -115.478      173.823      -20.984       76.870      102.413       46.471     5909.049    10488.364     2159.552        3.127        0.928      208.686       43.083        0.043      336.144        7.245      859.621
10/13/2013  05:43:00     -193.147      198.692      -35.732       84.075      100.353       59.151     7068.664    10070.653     3498.815        4.935        1.032      277.099       51.848        0.035      336.045        7.080      859.627
10/13/2013  05:44:00     -137.764      171.530      -23.257       62.688       67.327       41.505     3929.842     4532.992     1722.633        2.956        0.509      220.003       33.100        0.023      336.070        7.121      859.626
10/13/2013  05:45:00     -187.505      226.362      -48.898       81.688      107.851       56.767     6672.961    11631.904     3222.533        5.515        1.076      293.935       61.985        0.044      336.023        7.043      859.622
10/13/2013  05:46:00     -143.412      204.005      -36.601       65.747       93.179       53.177     4322.684     8682.338     2827.775        3.968        0.792      249.369       57.292        0.053      336.016        7.032      859.630
10/13/2013  05:47:00     -109.083      124.556      -26.115       87.444       69.941       41.732     7646.514     4891.748     1741.527        2.118        0.714      165.570       43.867        0.070      336.047        7.086      859.623
10/13/2013  05:48:00     -105.505      245.140      -27.226       82.173       91.257       52.771     6752.392     8327.862     2784.787        4.491        0.893      266.880       54.406        0.042      336.009        7.021      859.613
10/13/2013  05:49:00     -147.383      201.040      -27.935       80.111      123.794       47.916     6417.710    15324.965     2295.952        4.347        1.202      249.277       55.210        0.049      336.012        7.026      859.604
10/13/2013  05:50:00     -150.451      179.510      -36.897       57.251       71.407       45.833     3277.651     5098.928     2100.677        3.335        0.524      234.221       40.697        0.030      335.997        7.000      859.606
10/13/2013  05:51:00      -63.284      174.682      -10.594       59.842      110.225       35.947     3581.049    12149.541     1292.195        2.582        0.851      185.792       29.288        0.025      336.047        7.085      859.616
10/13/2013  05:52:00      -90.419      142.407       -9.537       71.205       90.340       39.810     5070.122     8161.301     1584.798        2.168        0.741      168.687       29.334        0.030      336.103        7.178      859.623
10/13/2013  05:53:00     -132.097       66.539      -18.849       87.720       53.076       43.188     7694.723     2817.023     1865.227        1.730        0.619      147.909       45.283        0.094      336.048        7.085      859.631
10/13/2013  05:54:00      -93.740      104.744      -13.057       68.128       60.346       35.290     4641.374     3641.604     1245.374        1.473        0.476      140.565       43.892        0.098      336.044        7.081      859.636
10/13/2013  05:55:00      -78.599       87.314      -17.908       46.491       56.858       32.713     2161.431     3232.785     1070.114        1.029        0.323      117.480       30.618        0.068      336.058        7.105      859.638
10/13/2013  05:56:00      -26.442      117.329       -1.776       54.583       53.349       35.581     2979.342     2846.132     1266.013        1.078        0.355      120.271       36.824        0.094      336.125        7.216      859.640
10/13/2013  05:57:00      -73.780      137.837      -14.741       47.916      111.148       32.212     2295.940    12353.917     1037.601        2.017        0.784      156.341       39.910        0.065      336.011        7.024      859.660
10/13/2013  05:58:00     -121.850      108.892      -20.721       58.194       49.278       47.313     3386.554     2428.294     2238.476        1.759        0.403      163.416       34.562        0.045      336.024        7.046      859.667
10/13/2013  05:59:00      -89.444       86.499      -14.766       44.229       73.153       36.369     1956.199     5351.347     1322.696        1.216        0.432      124.428       24.639        0.039      336.070        7.124      859.668
10/13/2013  06:00:00     -163.194      154.549      -22.000       98.016       82.017       48.939     9607.075     6726.766     2395.067        3.486        0.936      224.762       44.415        0.039      336.020        7.038      859.684
10/13/2013  06:01:00     -132.168      138.084      -23.269      103.421       51.714       45.022    10695.997     2674.303     2027.002        2.623        0.770      191.143       45.439        0.057      335.978        6.970      859.699
10/13/2013  06:02:00      -44.408      214.824      -13.028       52.803       78.270       40.759     2788.172     6126.216     1661.327        2.943        0.529      219.366       42.257        0.037      336.062        7.108      859.703
10/13/2013  06:03:00     -150.945      238.841      -22.628       94.868      120.237       56.426     8999.921    14456.914     3183.904        5.349        1.332      282.541       50.959        0.033      335.972        6.957      859.711
10/13/2013  06:04:00     -112.274      188.821      -33.549       55.537       82.676       37.878     3084.412     6835.289     1434.749        3.037        0.568      219.679       40.853        0.035      335.981        6.976      859.727
10/13/2013  06:05:00     -178.499      194.133      -49.948       62.083       76.214       44.994     3854.293     5808.543     2024.499        4.186        0.584      263.722       45.604        0.030      335.972        6.957      859.743
10/13/2013  06:06:00     -183.034      146.878      -34.704       96.990      121.771       58.384     9407.144    14828.243     3408.730        4.196        1.382      234.680       71.833        0.094      335.971        6.958      859.746
10/13/2013  06:07:00     -101.111      114.404      -23.865       56.386       59.831       37.395     3179.434     3579.706     1398.388        1.602        0.408      152.682       37.799        0.061      336.008        7.020      859.749
10/13/2013  06:08:00     -114.158      166.721      -23.794       46.531       85.087       37.513     2165.113     7239.828     1407.223        2.610        0.541      202.059       34.543        0.029      335.996        6.998      859.761
10/13/2013  06:09:00     -113.023      196.819      -27.605       67.250       82.249       45.595     4522.596     6764.958     2078.904        3.282        0.668      226.962       36.518        0.026      336.033        7.062      859.765
10/13/2013  06:10:00     -112.862       74.537       -7.955       63.284       77.348       36.090     4004.910     5982.702     1302.479        1.482        0.565      135.254       32.406        0.057      336.075        7.133      859.768
10/13/2013  06:11:00     -149.229      123.402      -34.125       58.013       75.409       35.556     3365.507     5686.578     1264.232        2.449        0.516      193.642       32.182        0.028      336.020        7.040      859.794
10/13/2013  06:12:00     -227.438      192.911      -52.290       85.251      111.821       53.448     7267.786    12503.925     2856.697        5.715        1.131      298.232       68.133        0.052      335.987        6.982      859.805
10/13/2013  06:13:00      -71.264      126.058       -5.996       55.095       81.881       37.106     3035.464     6704.490     1376.826        1.606        0.556      144.807       36.029        0.062      336.087        7.153      859.805
10/13/2013  06:14:00      -66.967      216.027      -17.535       53.626       64.219       36.381     2875.758     4124.017     1323.587        2.989        0.416      226.169       30.309        0.018      336.083        7.144      859.810
10/13/2013  06:15:00     -108.918      124.518      -16.057       82.444       63.091       32.982     6797.016     3980.440     1087.813        1.974        0.593      165.433       25.396        0.024      336.086        7.150      859.813
10/13/2013  06:16:00      -62.241       89.877       -8.379       61.433       62.634       38.715     3774.069     3922.964     1498.889        1.061        0.460      109.324       35.579        0.106      336.164        7.282      859.824
10/13/2013  06:17:00      -72.399      169.860      -31.953       80.289       91.830       42.884     6446.368     8432.777     1839.056        2.591        0.836      184.646       38.610        0.044      336.131        7.224      859.827
10/13/2013  06:18:00      -97.510      156.200      -24.473       63.664      106.197       47.032     4053.167    11277.854     2212.046        2.602        0.877      184.138       43.017        0.055      336.118        7.203      859.835
10/13/2013  06:19:00      -44.646      181.187      -10.398       55.146       83.623       39.308     3041.135     6992.824     1545.134        2.325        0.579      186.607       34.371        0.034      336.142        7.242      859.842
10/13/2013  06:20:00     -135.800       50.110      -16.665      105.091       96.169       44.133    11044.070     9248.394     1947.710        2.173        1.112      144.750       43.093        0.089      336.130        7.221      859.852
10/13/2013  06:21:00      -87.145      119.157      -16.516       63.989       69.124       39.382     4094.612     4778.155     1550.971        1.624        0.521      147.623       34.429        0.054      336.099        7.172      859.846
10/13/2013  06:22:00     -122.641      134.283      -26.092       65.046       97.958       37.793     4230.920     9595.807     1428.277        2.450        0.763      181.860       39.021        0.046      336.062        7.109      859.863
10/13/2013  06:23:00      -54.812      279.034      -30.526       77.374       95.848       43.287     5986.695     9186.753     1873.761        4.942        0.852      284.367       38.444        0.018      336.037        7.066      859.866
10/13/2013  06:24:00      -42.449      244.443      -11.210       70.272      143.670       58.673     4938.194    20641.201     3442.477        4.535        1.451      248.101       71.468        0.083      336.085        7.148      859.870
10/13/2013  06:25:00      -40.790       59.050      -13.066       46.269       61.311       23.860     2140.838     3759.055      569.297        0.589        0.323       71.768       17.101        0.057      336.176        7.300      859.885
10/13/2013  06:26:00      -90.745      141.918      -14.735      114.826      108.488       49.476    13185.004    11769.600     2447.896        2.799        1.370      168.450       53.033        0.099      336.087        7.151      859.911
10/13/2013  06:27:00      -72.628      322.984      -29.723       69.105      100.445       49.030     4775.517    10089.141     2403.987        6.387        0.863      331.049       41.627        0.016      336.004        7.011      859.929
10/13/2013  06:28:00      -58.945      218.404      -24.587       82.424       83.483       43.351     6793.721     6969.406     1879.339        3.371        0.782      226.218       33.343        0.022      336.024        7.045      859.957
10/13/2013  06:29:00      -93.529      212.858      -19.947       89.364      112.473       37.790     7985.857    12650.100     1428.118        3.825        1.103      232.500       39.498        0.029      336.057        7.100      859.973
10/13/2013  06:30:00      -98.734      200.768      -21.056       76.161       82.656       48.085     5800.457     6832.097     2312.191        3.272        0.747      223.733       50.318        0.051      336.028        7.050      859.999
10/13/2013  06:31:00      -74.701      153.960       -1.231       93.640       82.688       50.803     8768.490     6837.375     2580.918        2.373        0.909      171.126       48.539        0.080      336.076        7.132      860.014
10/13/2013  06:32:00      -36.781      289.411      -26.943       82.278      110.344       57.661     6769.742    12175.845     3324.743        5.405        1.114      291.739       55.075        0.036      336.005        7.014      860.025
10/13/2013  06:33:00      -20.224      140.188      -16.973       63.897       66.316       36.147     4082.826     4397.826     1306.615        1.507        0.489      141.639       34.420        0.059      336.098        7.169      860.029
10/13/2013  06:34:00      -32.939      219.395      -21.986       42.889       82.687       39.614     1839.503     6837.162     1569.267        2.997        0.512      221.854       43.246        0.038      336.015        7.030      860.031
10/13/2013  06:35:00      -71.944      241.736      -25.818       74.335       86.739       36.719     5525.716     7523.663     1348.311        3.934        0.720      252.214       29.164        0.013      335.982        6.974      860.042
10/13/2013  06:36:00      -62.376       93.217        0.522       65.102       52.280       35.232     4238.297     2733.210     1241.277        1.039        0.411      112.161       34.538        0.095      336.071        7.126      860.047
10/13/2013  06:37:00      -44.924      149.380      -11.532       47.305       85.907       41.968     2237.785     7380.058     1761.289        1.792        0.569      155.989       44.138        0.080      336.065        7.114      860.054
10/13/2013  06:38:00      -38.410      304.592      -30.618       61.145       63.593       31.805     3738.732     4044.037     1011.563        5.199        0.440      307.004       21.806        0.005      336.004        7.010      860.059
10/13/2013  06:39:00      -88.535      216.160      -23.644       86.939       70.314       44.764     7558.359     4944.030     2003.860        3.481        0.725      233.588       40.275        0.030      336.037        7.069      860.064
10/13/2013  06:40:00      -40.967      216.549      -26.180       89.805      152.608       54.692     8064.917    23289.116     2991.265        4.179        1.717      220.390       66.453        0.091      336.019        7.038      860.063
10/13/2013  06:41:00      -62.302      215.158      -10.433       66.962      132.413       53.177     4483.952    17533.332     2827.833        3.756        1.242      223.996       55.742        0.062      336.031        7.057      860.075
10/13/2013  06:42:00      -84.134      197.592      -14.052       88.672      124.240       44.695     7862.718    15435.643     1997.671        3.580        1.265      214.758       39.684        0.034      335.995        6.998      860.091
10/13/2013  06:43:00      -67.091      108.346       -8.395       47.500       46.629       36.833     2256.290     2174.243     1356.695        1.105        0.289      127.437       34.207        0.072      336.055        7.099      860.108
10/13/2013  06:44:00     -102.434      127.375      -19.043       76.084       97.336       36.522     5788.846     9474.379     1333.870        2.184        0.830      163.454       39.980        0.060      336.072        7.128      860.126
10/13/2013  06:45:00      -33.909      171.674      -25.186       77.209       75.510       42.784     5961.204     5701.757     1830.466        2.237        0.675      174.991       34.552        0.039      335.987        6.984      860.135
10/13/2013  06:46:00      -79.580      152.032      -21.013       82.029       90.126       49.022     6728.705     8122.629     2403.189        2.357        0.863      171.601       38.498        0.050      336.075        7.132      860.140
10/13/2013  06:47:00      -82.764      108.942      -15.253       90.757       89.873       50.577     8236.873     8077.159     2558.000        1.891        0.944      136.815       54.186        0.157      336.055        7.097      860.153
10/13/2013  06:48:00     -170.929      171.203      -44.101      108.594      105.930       56.849    11792.715    11221.259     3231.812        4.335        1.312      241.924       58.463        0.058      335.983        6.976      860.150
10/13/2013  06:49:00     -203.310      216.269      -47.806       80.521       89.973       58.788     6483.670     8095.094     3456.083        5.421        0.902      296.829       55.437        0.035      335.926        6.882      860.155
10/13/2013  06:50:00      -97.135      194.939      -19.828       77.915       88.855       47.520     6070.813     7895.260     2258.174        3.202        0.811      217.799       33.971        0.024      335.962        6.941      860.155
10/13/2013  06:51:00     -141.585      214.237      -47.670       57.173       98.377       40.697     3268.735     9677.994     1656.220        4.141        0.730      256.796       33.397        0.017      335.958        6.936      860.177
10/13/2013  06:52:00      -96.519       86.478      -12.454       71.143       71.350       41.921     5061.337     5090.857     1757.410        1.443        0.595      129.593       40.846        0.099      335.992        6.993      860.193
10/13/2013  06:53:00     -171.056      117.453      -19.117      103.504       89.690       45.756    10713.181     8044.383     2093.597        3.213        1.043      207.498       47.462        0.052      335.998        7.001      860.219
10/13/2013  06:54:00     -236.738      112.178      -30.573       76.928       61.908       54.140     5917.856     3832.610     2931.126        4.112        0.634      261.971       43.832        0.028      335.929        6.885      860.248
10/13/2013  06:55:00     -127.018      171.902      -32.406       76.193       74.465       49.426     5805.348     5544.992     2442.964        3.026        0.690      213.738       34.114        0.025      335.936        6.898      860.253
10/13/2013  06:56:00     -119.244      170.487      -26.692       74.642      105.354       48.772     5571.378    11099.436     2378.704        3.152        0.952      208.051       35.779        0.030      335.915        6.863      860.264
10/13/2013  06:57:00     -167.669      129.127      -11.899      133.433      109.499       67.725    17804.361    11990.070     4586.646        3.965        1.719      211.628       70.235        0.110      335.945        6.912      860.271
10/13/2013  06:58:00      -79.067      235.530      -16.258       80.302       87.388       47.413     6448.377     7636.630     2247.972        3.916        0.817      248.447       45.412        0.033      335.915        6.863      860.278
10/13/2013  06:59:00     -164.676      138.727      -26.492       78.883       65.400       48.293     6222.566     4277.130     2332.190        2.995        0.642      215.322       42.280        0.039      335.928        6.884      860.290
10/13/2013  07:00:00     -139.352      165.844      -19.949       60.395       77.247       39.210     3647.615     5967.161     1537.391        2.923        0.558      216.618       42.965        0.039      335.903        6.844      860.299
10/13/2013  07:01:00      -62.355       95.047        2.731       56.262       60.729       37.734     3165.372     3688.068     1423.846        1.060        0.414      113.675       36.813        0.105      335.985        6.982      860.297
10/13/2013  07:02:00      -43.284      194.895      -19.679       61.953       87.199       41.441     3838.146     7603.682     1717.364        2.670        0.658      199.643       37.460        0.035      335.925        6.879      860.304
10/13/2013  07:03:00      -85.540       73.912       -0.671       68.626      111.743       37.552     4709.482    12486.553     1410.184        1.569        0.930      113.049       24.389        0.047      336.013        7.030      860.324
10/13/2013  07:04:00       -1.159       96.990        6.363       38.609       74.510       38.370     1490.677     5551.775     1472.242        0.898        0.426       96.997       42.546        0.192      336.043        7.079      860.346
10/13/2013  07:05:00     -143.640       73.757      -27.764       80.482       88.959       44.145     6477.372     7913.616     1948.787        2.159        0.817      161.470       34.240        0.045      335.964        6.945      860.384
10/13/2013  07:06:00     -140.610       83.140      -24.808       53.349       45.105       34.410     2846.131     2034.447     1184.014        1.668        0.303      163.351       29.886        0.033      335.934        6.897      860.403
10/13/2013  07:07:00      -84.805      115.606       -8.640       64.881       67.528       49.560     4209.484     4560.084     2456.220        1.593        0.561      143.376       47.844        0.111      335.934        6.896      860.419
10/13/2013  07:08:00     -125.976      146.866      -30.598       64.868       54.534       37.832     4207.820     2974.006     1431.268        2.349        0.431      193.493       36.684        0.036      335.955        6.930      860.421
10/13/2013  07:09:00      -63.515      157.227      -21.097       39.227       71.654       31.369     1538.775     5134.304      984.022        1.843        0.383      169.572       27.127        0.026      335.902        6.843      860.435
10/13/2013  07:10:00      -70.201       92.893      -18.827       36.963       51.122       22.869     1366.228     2613.431      522.971        0.921        0.225      116.436       26.448        0.052      335.974        6.963      860.443
10/13/2013  07:11:00     -126.759       37.030      -21.313       79.168       53.011       47.426     6267.565     2810.160     2249.186        1.461        0.566      132.057       41.122        0.097      335.958        6.937      860.455
10/13/2013  07:12:00     -137.318       58.203      -11.975       72.074       48.766       32.328     5194.730     2378.159     1045.130        1.550        0.431      149.144       21.737        0.021      335.950        6.923      860.458
10/13/2013  07:13:00      -61.892       31.106      -10.352       60.005       29.882       27.096     3600.547      892.931      734.212        0.507        0.261       69.269       29.561        0.182      335.964        6.948      860.476
10/13/2013  07:14:00     -166.464      129.844      -35.783       47.680       70.245       33.695     2273.425     4934.333     1135.375        2.710        0.417      211.116       27.180        0.017      335.892        6.823      860.476
10/13/2013  07:15:00      -89.248      133.685      -17.081       29.533       46.523       25.000      872.192     2164.420      624.986        1.489        0.183      160.739       16.966        0.011      335.919        6.872      860.495
10/13/2013  07:16:00      -22.079       57.566        3.235       40.025       43.764       23.433     1601.968     1915.327      549.119        0.394        0.203       61.655       23.732        0.148      336.013        7.028      860.517
10/13/2013  07:17:00      -53.470      119.584      -11.517       53.578       63.977       35.789     2870.620     4092.996     1280.847        1.277        0.412      130.994       30.365        0.054      336.041        7.076      860.535
10/13/2013  07:18:00      -70.876       57.377       -5.787       46.828       41.867       30.083     2192.830     1752.825      905.000        0.660        0.243       91.190       25.002        0.075      335.995        7.000      860.569
10/13/2013  07:19:00      -59.526      126.800       -5.223       74.187       89.391       43.515     5503.778     7990.820     1893.531        1.752        0.769      140.077       37.604        0.072      335.935        6.900      860.590
10/13/2013  07:20:00      -84.451      193.008      -16.546       69.773      126.300       48.428     4868.310    15951.790     2345.262        3.391        1.158      210.675       47.284        0.050      335.845        6.748      860.615
10/13/2013  07:21:00     -139.030      233.037      -30.206       95.907       75.091       56.641     9198.126     5638.661     3208.181        4.629        0.902      271.359       56.835        0.044      335.860        6.771      860.623
10/13/2013  07:22:00     -169.420      197.389      -43.156       97.687       87.575       50.044     9542.740     7669.326     2504.402        4.462        0.986      260.126       54.983        0.045      335.821        6.706      860.644
10/13/2013  07:23:00     -125.631      190.710      -31.090       63.978       83.871       44.778     4093.223     7034.428     2005.059        3.312        0.657      228.372       37.381        0.027      335.837        6.734      860.658
10/13/2013  07:24:00      -68.993      223.590      -26.069       55.847      102.870       43.438     3118.876    10582.175     1886.885        3.551        0.779      233.993       52.116        0.050      335.845        6.746      860.659
10/13/2013  07:25:00      -79.610      124.898       -9.781       40.664      113.083       39.246     1653.547    12787.685     1540.224        1.900        0.799      148.112       48.461        0.107      335.893        6.829      860.661
10/13/2013  07:26:00      -96.305       88.337      -22.913       58.762       75.403       35.979     3452.951     5685.550     1294.455        1.402        0.522      130.683       32.397        0.061      335.915        6.866      860.668
10/13/2013  07:27:00     -158.061      129.428      -23.214       70.531       76.292       43.647     4974.612     5820.412     1905.028        2.748        0.635      204.291       37.772        0.034      335.824        6.712      860.679
10/13/2013  07:28:00     -147.400      107.327      -18.871       91.578       59.747       49.995     8386.616     3569.687     2499.485        2.403        0.723      182.334       57.262        0.099      335.832        6.726      860.685
10/13/2013  07:29:00     -142.304      159.476      -17.799       93.969      125.330       60.816     8830.167    15707.667     3698.561        3.711        1.412      213.735       58.617        0.075      335.800        6.672      860.699
10/13/2013  07:30:00     -187.736      170.763      -33.112       93.233       94.838       57.302     8692.368     8994.298     3283.518        4.323        1.049      253.781       49.071        0.037      335.721        6.539      860.708
10/13/2013  07:31:00     -208.502      157.126      -39.360      104.175      100.231       63.407    10852.522    10046.204     4020.482        4.731        1.246      261.078       69.609        0.071      335.735        6.565      860.712
10/13/2013  07:32:00     -151.198      260.380      -33.893       74.252       95.633       53.946     5513.322     9145.715     2910.202        5.468        0.878      301.095       44.246        0.022      335.698        6.501      860.723
10/13/2013  07:33:00     -159.783      207.928      -37.385       91.720      124.065       59.847     8412.508    15392.005     3581.714        4.877        1.369      262.230       69.081        0.069      335.712        6.525      860.732
10/13/2013  07:34:00     -165.905      178.506      -40.121       64.817       96.897       60.098     4201.254     9388.949     3611.730        3.910        0.860      243.698       54.736        0.050      335.687        6.485      860.743
10/13/2013  07:35:00     -199.205      215.748      -43.090       99.620      102.267       50.984     9924.204    10458.551     2599.347        5.553        1.149      293.649       61.075        0.043      335.679        6.470      860.760
10/13/2013  07:36:00     -194.701      155.585      -51.130       70.903       70.160       33.621     5027.245     4922.477     1130.354        3.790        0.554      249.229       33.972        0.019      335.707        6.518      860.779
10/13/2013  07:37:00      -59.604      116.266      -14.823       50.136       70.628       37.613     2513.575     4988.293     1414.754        1.310        0.446      130.654       37.103        0.081      335.812        6.695      860.787
10/13/2013  07:38:00     -108.561      194.717      -24.386       50.731       93.819       36.350     2573.641     8801.991     1321.357        3.149        0.635      222.935       34.877        0.024      335.724        6.546      860.786
10/13/2013  07:39:00      -79.663      264.144      -30.515       71.686       74.804       41.272     5138.934     5595.679     1703.394        4.474        0.622      275.895       36.160        0.017      335.714        6.529      860.790
10/13/2013  07:40:00     -131.903      131.127      -18.635       81.650       65.898       41.287     6666.742     4342.590     1704.613        2.382        0.636      185.991       37.684        0.041      335.793        6.660      860.787
10/13/2013  07:41:00     -144.463      154.260      -24.734       86.109       73.677       45.064     7414.844     5428.360     2030.794        3.007        0.744      211.343       52.974        0.063      335.684        6.480      860.808
10/13/2013  07:42:00     -104.773      119.764      -12.495       33.440      100.099       36.495     1118.224    10019.784     1331.888        1.897        0.623      159.126       36.641        0.053      335.713        6.530      860.823
10/13/2013  07:43:00     -207.053       98.030      -24.371       91.014       50.438       41.946     8283.474     2544.040     1759.474        3.283        0.629      229.087       35.693        0.024      335.690        6.488      860.848
10/13/2013  07:44:00     -181.857      137.509      -37.529       64.844       74.142       45.500     4204.737     5497.097     2070.240        3.258        0.589      227.993       39.892        0.031      335.674        6.460      860.870
10/13/2013  07:45:00      -57.011      118.926       -0.972       47.336       77.240       33.749     2240.689     5965.942     1138.999        1.337        0.467      131.885       35.038        0.071      335.728        6.555      860.889
10/13/2013  07:46:00     -109.642       94.540      -20.634       47.642       54.799       29.495     2269.779     3002.942      869.968        1.376        0.307      144.773       24.170        0.028      335.782        6.645      860.901
10/13/2013  07:47:00     -104.955      136.295      -25.951       75.705       59.308       41.271     5731.274     3517.471     1703.326        2.061        0.548      172.023       37.006        0.046      335.754        6.598      860.915
10/13/2013  07:48:00      -47.338       97.043        2.325       30.067       75.982       31.940      904.001     5773.327     1020.141        0.968        0.385      107.973       28.920        0.072      335.858        6.771      860.916
10/13/2013  07:49:00      -58.667       89.434       -7.317       42.864       63.291       27.315     1837.302     4005.779      746.125        0.904        0.329      106.959       28.040        0.069      335.896        6.835      860.922
10/13/2013  07:50:00     -112.308      143.768      -26.677       36.111       73.013       28.640     1304.030     5330.914      820.243        2.072        0.373      182.434       18.778        0.011      335.767        6.618      860.938
10/13/2013  07:51:00     -115.340       28.141       14.419       98.769       58.394       35.588     9755.359     3409.854     1266.527        1.436        0.722      118.723       43.113        0.132      335.763        6.612      860.954
10/13/2013  07:52:00      -70.154      132.730      -12.820       44.603       58.799       29.110     1989.411     3457.289      847.412        1.450        0.315      150.129       28.354        0.036      335.755        6.599      860.973
10/13/2013  07:53:00      -44.178      125.696        0.607       47.681       63.084       41.260     2273.462     3979.611     1702.379        1.285        0.398      133.233       42.166        0.100      335.885        6.816      860.991
10/13/2013  07:54:00      -48.381      111.444       -4.844       36.056       41.763       27.749     1300.034     1744.180      769.981        0.930        0.191      121.493       22.733        0.035      335.830        6.725      861.013
10/13/2013  07:55:00      -66.845       88.272      -20.461       36.195       48.451       27.591     1310.099     2347.547      761.282        0.855        0.221      110.725       20.778        0.035      335.834        6.731      861.030
10/13/2013  07:56:00      -87.421      103.312      -21.054       64.890       75.728       36.469     4210.701     5734.716     1329.980        1.501        0.564      135.336       33.580        0.062      335.842        6.743      861.050
10/13/2013  07:57:00      -79.340      239.843      -34.133       84.867       73.228       43.479     7202.407     5362.339     1890.425        3.972        0.723      252.625       35.971        0.020      335.799        6.670      861.077
10/13/2013  07:58:00     -113.689      109.500      -23.339       60.076       56.125       37.334     3609.068     3149.969     1393.856        1.680        0.408      157.846       36.985        0.055      335.759        6.607      861.090
10/13/2013  07:59:00     -103.086      182.934      -30.101      101.819       85.360       42.455    10367.012     7286.410     1802.461        3.222        0.973      209.980       40.847        0.038      335.803        6.677      861.107
10/13/2013  08:00:00      -73.028      188.189      -21.112       71.837       57.982       42.521     5160.510     3361.950     1808.074        2.576        0.517      201.862       35.359        0.031      335.883        6.810      861.122
10/13/2013  08:01:00      -71.996      141.888       -4.445       74.771       99.074       44.935     5590.652     9815.709     2019.158        2.138        0.871      159.108       43.975        0.076      335.849        6.756      861.142
10/13/2013  08:02:00      -93.885      114.743      -12.448       67.259       72.347       44.733     4523.821     5234.031     2001.064        1.694        0.588      148.257       34.418        0.054      335.932        6.894      861.159
10/13/2013  08:03:00     -118.010      164.286      -12.085      105.578       86.263       49.860    11146.674     7441.320     2485.998        3.106        1.054      202.278       48.244        0.057      335.870        6.788      861.168
10/13/2013  08:04:00      -36.775      256.063      -18.491       58.762       76.323       47.987     3452.995     5825.274     2302.738        3.942        0.579      258.690       38.586        0.022      335.851        6.755      861.180
10/13/2013  08:05:00      -43.002      145.802       -4.811       41.196       98.127       37.808     1697.099     9629.003     1429.433        1.794        0.638      152.011       32.466        0.046      336.012        7.025      861.188
10/13/2013  08:06:00     -153.155      118.462      -21.405       78.024       57.319       42.718     6087.696     3285.475     1824.824        2.457        0.560      193.623       44.018        0.052      335.921        6.875      861.190
10/13/2013  08:07:00      -69.853       56.258      -10.880       53.815       61.962       33.911     2896.037     3839.252     1149.952        0.802        0.394       89.690       28.949        0.104      335.983        6.979      861.198
10/13/2013  08:08:00     -100.878      109.257      -21.800       87.955      105.082       46.159     7736.004    11042.156     2130.689        2.174        1.045      148.706       48.063        0.104      335.937        6.903      861.214
10/13/2013  08:09:00     -167.474      212.967      -43.193       89.958      112.756       54.056     8092.383    12713.834     2922.079        4.949        1.186      270.929       64.345        0.056      335.824        6.713      861.227
10/13/2013  08:10:00     -103.712      195.264      -16.506       78.854      126.376       57.599     6217.907    15970.847     3317.632        3.733        1.275      221.097       63.957        0.084      335.870        6.790      861.239
10/13/2013  08:11:00     -110.822      138.556       -9.215       82.539       93.588       49.215     6812.634     8758.684     2422.112        2.478        0.900      177.424       44.260        0.062      335.861        6.773      861.254
10/13/2013  08:12:00     -151.698      206.720      -32.592      119.292      105.123       63.235    14230.547    11050.898     3998.636        4.804        1.464      256.409       73.597        0.082      335.855        6.765      861.270
10/13/2013  08:13:00      -97.853      189.603      -21.563       67.044       85.721       53.543     4494.962     7348.026     2866.841        3.035        0.735      213.365       47.605        0.050      335.855        6.763      861.279
10/13/2013  08:14:00      -85.610      176.448      -22.809       50.702       72.108       40.853     2570.699     5199.614     1668.962        2.421        0.472      196.120       40.468        0.043      335.911        6.856      861.280
10/13/2013  08:15:00     -142.727       91.506      -25.194      109.265       71.716       42.114    11938.919     5143.191     1773.582        2.411        0.943      169.541       48.669        0.082      335.912        6.860      861.287
10/13/2013  08:16:00      -65.814      141.877      -18.483       66.911       81.307       43.616     4477.117     6610.895     1902.365        1.889        0.650      156.399       42.479        0.074      335.932        6.894      861.289
10/13/2013  08:17:00     -129.776      104.861      -22.294       78.431       70.526       48.922     6151.404     4973.971     2393.388        2.092        0.676      166.847       42.941        0.066      335.899        6.838      861.298
10/13/2013  08:18:00      -96.876       91.580      -20.731       56.112       51.690       34.605     3148.532     2671.825     1197.532        1.261        0.351      133.311       33.235        0.062      335.886        6.817      861.315
10/13/2013  08:19:00      -38.408      102.403       -8.432       48.344       48.496       32.069     2337.159     2351.840     1028.440        0.887        0.286      109.369       27.609        0.064      335.955        6.933      861.329
10/13/2013  08:20:00      -96.912      122.325      -26.628       42.716       57.481       35.249     1824.648     3304.059     1242.502        1.572        0.319      156.062       29.707        0.036      335.992        6.995      861.343
10/13/2013  08:21:00      -92.553      190.698      -33.698       39.746       77.275       34.867     1579.744     5971.395     1215.694        2.742        0.438      211.972       26.796        0.016      335.876        6.798      861.361
10/13/2013  08:22:00      -60.644      257.297      -25.830       55.085       71.908       41.602     3034.404     5170.736     1730.732        4.024        0.497      264.348       27.206        0.011      335.854        6.761      861.367
10/13/2013  08:23:00     -117.666      126.536      -16.586       73.244       71.510       44.947     5364.670     5113.748     2020.256        2.131        0.625      172.790       43.964        0.065      335.895        6.831      861.372
10/13/2013  08:24:00     -145.401      102.636      -15.202      110.707       92.014       59.313    12256.144     8466.646     3518.079        2.807        1.212      177.976       56.402        0.100      335.855        6.764      861.375
10/13/2013  08:25:00     -151.480      172.524      -32.306       62.975       78.027       44.519     3965.893     6088.236     1981.940        3.289        0.602      229.588       37.660        0.027      335.838        6.734      861.370
10/13/2013  08:26:00     -146.754      162.238      -27.192       89.808       96.638       48.555     8065.407     9338.849     2357.634        3.418        0.988      218.764       33.585        0.024      335.823        6.711      861.381
10/13/2013  08:27:00     -133.970      119.093      -21.794      106.196      116.925       45.419    11277.649    13671.339     2062.913        2.980        1.351      179.252       46.710        0.068      335.874        6.794      861.376
10/13/2013  08:28:00      -85.440      136.375      -13.985       92.204       71.216       44.387     8501.533     5071.775     1970.196        2.082        0.777      160.929       40.049        0.062      335.944        6.913      861.384
10/13/2013  08:29:00     -195.882      176.355      -49.266       68.739       86.492       46.485     4725.012     7480.928     2160.812        4.313        0.718      263.573       39.124        0.022      335.828        6.716      861.382
10/13/2013  08:30:00     -217.786      211.772      -58.713       76.022       96.692       46.646     5779.341     9349.405     2175.870        5.651        0.865      303.773       47.963        0.025      335.797        6.665      861.388
10/13/2013  08:31:00     -199.297      197.768      -48.898       80.424       85.979       46.814     6468.033     7392.471     2191.543        4.863        0.803      280.769       37.571        0.018      335.785        6.646      861.393
10/13/2013  08:32:00     -144.822      188.886      -35.599       58.591       60.042       44.563     3432.877     3605.059     1985.849        3.347        0.451      238.016       36.429        0.023      335.809        6.685      861.383
10/13/2013  08:33:00     -138.276      154.653      -23.076       72.955       68.645       49.469     5322.454     4712.125     2447.179        2.802        0.624      207.456       41.822        0.041      335.825        6.715      861.388
10/13/2013  08:34:00     -169.549      158.146      -27.473       88.072       84.018       42.121     7756.714     7059.093     1774.185        3.555        0.829      231.856       37.086        0.026      335.828        6.718      861.386
10/13/2013  08:35:00     -117.970      180.715      -19.924       96.389      123.507       52.903     9290.919    15254.087     2798.702        3.715        1.367      215.812       50.724        0.055      335.859        6.769      861.393
10/13/2013  08:36:00     -123.204       83.882      -20.044       67.643       91.619       46.729     4575.522     8393.967     2183.642        1.888        0.758      149.048       37.762        0.064      335.871        6.791      861.407
10/13/2013  08:37:00      -89.707      120.467       -4.026       84.866      130.462       50.918     7202.286    17020.315     2592.692        2.469        1.341      150.199       52.449        0.122      335.909        6.856      861.421
10/13/2013  08:38:00     -103.813      283.706      -35.407       84.640       96.018       44.007     7164.005     9219.389     1936.658        5.542        0.916      302.103       35.978        0.014      335.862        6.775      861.423
10/13/2013  08:39:00     -137.500       49.347       -7.020       86.474       49.545       39.096     7477.712     2454.716     1528.495        1.642        0.573      146.087       40.638        0.077      335.942        6.912      861.427
10/13/2013  08:40:00     -116.468      131.848      -26.986       69.314       47.051       37.058     4804.378     2213.829     1373.282        2.003        0.420      175.922       44.302        0.063      335.879        6.804      861.446
10/13/2013  08:41:00     -100.213      160.814      -21.981       59.554       50.214       41.175     3546.734     2521.492     1695.399        2.207        0.388      189.483       40.785        0.046      335.910        6.857      861.452
10/13/2013  08:42:00      -97.698      126.155      -20.891       47.835       48.972       36.041     2288.149     2398.247     1298.921        1.594        0.299      159.561       31.062        0.038      335.943        6.913      861.470
10/13/2013  08:43:00      -95.244      144.515      -19.354       67.139       66.727       42.326     4507.586     4452.546     1791.518        2.054        0.538      173.078       43.245        0.062      335.919        6.871      861.472
10/13/2013  08:44:00      -83.632      260.132      -29.636       68.516      120.143       43.210     4694.399    14434.259     1867.070        4.826        1.050      273.245       48.024        0.031      335.862        6.776      861.482
10/13/2013  08:45:00     -108.031      135.500      -25.648       61.259       65.063       37.104     3752.677     4233.170     1376.735        2.002        0.468      173.295       32.561        0.035      335.944        6.912      861.485
10/13/2013  08:46:00      -94.370       55.723       -1.990       52.382       80.311       40.420     2743.843     6449.807     1633.804        1.142        0.541      109.594       41.412        0.143      335.970        6.956      861.492
10/13/2013  08:47:00     -142.588      112.842      -21.914       82.789       82.871       41.576     6854.019     6867.573     1728.571        2.449        0.773      181.837       42.851        0.056      335.925        6.881      861.493
10/13/2013  08:48:00     -125.575      150.281      -31.281       49.320       72.349       36.017     2432.457     5234.395     1297.240        2.415        0.448      195.840       29.243        0.022      335.919        6.870      861.503
10/13/2013  08:49:00      -60.062      105.794        1.759       64.252       68.945       38.119     4128.296     4753.470     1453.086        1.257        0.517      121.655       32.853        0.073      336.033        7.063      861.505
10/13/2013  08:50:00      -68.670      262.258      -25.616       63.714       84.588       37.049     4059.426     7155.152     1372.642        4.337        0.629      271.099       30.945        0.013      335.996        6.996      861.518
10/13/2013  08:51:00      -46.674      171.895      -14.960       59.131       71.897       36.632     3496.510     5169.181     1341.937        2.098        0.500      178.119       32.837        0.034      335.977        6.968      861.536
10/13/2013  08:52:00      -27.976      179.738      -12.864       38.564       62.703       34.168     1487.184     3931.702     1167.446        1.992        0.329      181.902       32.766        0.032      335.914        6.864      861.549
10/13/2013  08:53:00      -51.340      117.110       -8.748       46.088       57.894       32.520     2124.070     3351.753     1057.573        1.148        0.327      127.869       33.244        0.068      336.076        7.134      861.565
10/13/2013  08:54:00      -10.877      159.041      -14.071       40.037       69.107       36.441     1602.931     4775.835     1327.975        1.666        0.385      159.413       37.217        0.055      335.990        6.991      861.582
10/13/2013  08:55:00      -88.608      220.361      -27.516       59.476       93.669       37.508     3537.412     8773.837     1406.875        3.544        0.686      237.509       30.361        0.016      335.930        6.888      861.587
10/13/2013  08:56:00      -47.764      245.815      -31.126       56.267       68.531       46.022     3165.933     4696.430     2117.979        3.683        0.499      250.412       35.632        0.020      335.916        6.866      861.597
10/13/2013  08:57:00      -37.888      271.758      -24.580       49.655       82.733       40.460     2465.646     6844.701     1636.998        4.342        0.547      274.387       33.222        0.015      335.875        6.794      861.592
10/13/2013  08:58:00      -36.737      220.441      -19.699       40.372       82.383       32.578     1629.877     6786.901     1061.313        2.990        0.474      223.481       30.087        0.018      335.895        6.829      861.599
10/13/2013  08:59:00       -9.380      252.149      -31.600       48.596       59.187       26.363     2361.602     3503.083      695.011        3.561        0.328      252.323       21.346        0.007      335.889        6.820      861.611
10/13/2013  09:00:00      -64.638      114.435       -2.231       54.364       74.248       37.326     2955.408     5512.797     1393.207        1.357        0.493      131.428       31.498        0.057      336.089        7.156      861.619
10/13/2013  09:01:00      -66.024      134.433      -25.464       44.031       54.516       34.934     1938.728     2971.973     1220.368        1.460        0.307      149.771       24.281        0.026      335.997        7.002      861.626
10/13/2013  09:02:00       -1.669      192.778      -19.406       46.712       71.815       37.998     2181.997     5157.368     1443.838        2.316        0.439      192.785       38.330        0.040      336.014        7.030      861.648
10/13/2013  09:03:00      -52.806      191.641      -16.418       55.725       88.447       41.954     3105.327     7822.818     1760.125        2.623        0.634      198.783       43.988        0.049      335.966        6.949      861.655
10/13/2013  09:04:00      -57.458      171.893      -23.436       74.860      106.434       41.746     5604.002    11328.186     1742.718        2.603        0.934      181.242       42.494        0.055      335.977        6.967      861.656
10/13/2013  09:05:00     -101.551      190.479      -26.681       72.431      103.783       42.095     5246.188    10770.900     1772.022        3.254        0.889      215.858       48.391        0.050      335.988        6.985      861.678
10/13/2013  09:06:00      -71.717      279.252      -26.639       77.265       88.588       45.508     5969.913     7847.791     2070.992        4.986        0.794      288.314       41.284        0.021      335.894        6.828      861.686
10/13/2013  09:07:00      -54.762      188.481      -14.312       48.818       90.080       34.792     2383.154     8114.454     1210.510        2.522        0.585      196.275       40.433        0.042      336.038        7.069      861.689
10/13/2013  09:08:00      -91.819      243.982      -27.514       59.438      100.007       41.128     3532.863    10001.432     1691.536        4.197        0.761      260.687       36.279        0.019      335.943        6.910      861.699
10/13/2013  09:09:00      -38.553      218.874      -23.727       45.986       51.632       31.240     2114.740     2665.820      975.928        2.785        0.288      222.244       26.097        0.014      336.005        7.011      861.711
10/13/2013  09:10:00      -44.156      211.171      -14.390       51.788       61.829       34.767     2682.003     3822.798     1208.744        2.723        0.386      215.738       31.687        0.022      336.049        7.088      861.705
10/13/2013  09:11:00      -67.032      104.004      -10.654       51.321       80.199       32.907     2633.796     6431.869     1082.865        1.278        0.507      123.734       39.771        0.103      336.036        7.067      861.715
10/13/2013  09:12:00     -111.534      196.328      -39.413       73.169       80.081       37.987     5353.668     6412.887     1443.017        3.287        0.660      225.797       33.544        0.022      335.988        6.984      861.712
10/13/2013  09:13:00      -67.840      191.342       -4.419       70.682       96.575       54.658     4995.907     9326.748     2987.460        2.927        0.866      203.012       41.483        0.042      336.065        7.113      861.706
10/13/2013  09:14:00      -48.327      161.069      -15.174       48.662       56.556       45.834     2367.998     3198.553     2100.791        1.809        0.383      168.163       30.856        0.034      336.074        7.132      861.716
10/13/2013  09:15:00      -52.412      184.473      -10.135       45.845       64.189       36.005     2101.804     4120.165     1296.334        2.220        0.376      191.774       35.377        0.034      336.155        7.264      861.720
10/13/2013  09:16:00      -68.288      197.454      -25.101       75.654       76.310       39.067     5723.491     5823.259     1526.232        2.867        0.654      208.929       35.391        0.029      336.041        7.073      861.741
10/13/2013  09:17:00     -104.520      273.977      -27.466       76.514       89.377       53.985     5854.344     7988.316     2914.364        5.175        0.838      293.237       56.614        0.037      336.001        7.006      861.743
10/13/2013  09:18:00     -122.209      219.810      -34.207       91.533       96.711       44.981     8378.208     9353.067     2023.273        4.208        0.988      251.498       38.814        0.024      336.071        7.124      861.735
10/13/2013  09:19:00      -31.251      300.131      -20.751       73.718      103.151       52.523     5434.351    10640.122     2758.694        5.516        0.942      301.754       54.171        0.032      336.027        7.050      861.736
10/13/2013  09:20:00      -59.454      133.071       -5.065       51.744       55.820       36.516     2677.485     3115.850     1333.386        1.420        0.356      145.749       24.750        0.029      336.129        7.222      861.744
10/13/2013  09:21:00     -106.033       76.541      -26.259       73.485       82.224       41.179     5400.035     6760.815     1695.719        1.582        0.693      130.772       54.066        0.171      336.122        7.209      861.763
10/13/2013  09:22:00      -40.396       67.701       -3.572       38.199       50.099       31.391     1459.141     2509.880      985.425        0.559        0.248       78.836       26.496        0.113      336.216        7.369      861.767
10/13/2013  09:23:00       -6.112      163.902      -14.257       56.296       58.684       39.989     3169.233     3443.834     1599.093        1.766        0.411      164.016       24.093        0.022      336.164        7.280      861.785
10/13/2013  09:24:00     -107.933      202.708      -29.651       89.453       95.350       45.640     8001.755     9091.631     2082.965        3.639        0.959      229.652       40.603        0.031      336.127        7.216      861.798
10/13/2013  09:25:00      -63.280      226.694      -17.611       75.692       81.246       51.281     5729.216     6600.971     2629.737        3.533        0.748      235.360       40.996        0.030      336.075        7.129      861.808
10/13/2013  09:26:00      -78.218      296.676      -28.541       70.108       84.101       38.737     4915.159     7072.924     1500.546        5.422        0.674      306.814       39.486        0.017      335.983        6.977      861.815
10/13/2013  09:27:00     -104.492      213.710      -24.489       67.380       91.183       39.241     4540.127     8314.364     1539.855        3.579        0.720      237.888       46.974        0.039      335.988        6.986      861.833
10/13/2013  09:28:00      -86.179      165.361      -18.271       53.739       75.825       36.346     2887.921     5749.401     1321.016        2.253        0.498      186.470       34.737        0.035      336.121        7.208      861.852
10/13/2013  09:29:00     -115.681      191.078      -30.332       49.235       72.968       34.954     2424.133     5324.347     1221.814        2.989        0.449      223.367       29.291        0.017      336.030        7.056      861.869
10/13/2013  09:30:00     -165.910      185.057      -44.535       71.170       66.934       47.910     5065.154     4480.123     2295.345        3.780        0.592      248.541       45.761        0.034      336.026        7.048      861.883
10/13/2013  09:31:00     -125.718       84.669      -28.520       65.660       58.871       35.016     4311.202     3465.814     1226.130        1.639        0.450      151.571       34.135        0.051      336.114        7.196      861.895
10/13/2013  09:32:00     -156.737      113.429      -23.304       70.355       72.272       37.829     4949.876     5223.282     1431.015        2.479        0.580      193.475       31.768        0.027      336.078        7.136      861.912
10/13/2013  09:33:00      -69.513      201.462       -9.291       50.832       79.153       40.833     2583.893     6265.163     1667.347        2.801        0.526      213.117       39.006        0.033      336.138        7.236      861.925
10/13/2013  09:34:00      -71.176       86.783      -11.316       48.795       79.276       32.617     2380.917     6284.761     1063.836        1.123        0.486      112.238       29.294        0.068      336.246        7.418      861.941
10/13/2013  09:35:00      -26.068       75.435       -4.729       57.186       44.015       25.843     3270.194     1937.337      667.858        0.613        0.294       79.812       27.155        0.116      336.191        7.327      861.950
10/13/2013  09:36:00      -43.978       82.937       -0.122       40.454       48.680       29.719     1636.493     2369.751      883.232        0.685        0.244       93.875       19.888        0.045      336.336        7.568      861.950
10/13/2013  09:37:00      -50.320      266.711      -27.976       52.863      100.382       40.709     2794.465    10076.575     1657.247        4.449        0.726      271.417       42.128        0.024      336.080        7.138      861.975
10/13/2013  09:38:00      -57.665      253.283      -22.658       40.166       58.575       28.359     1613.282     3431.022      804.258        3.692        0.292      259.765       17.084        0.004      336.037        7.066      861.976
10/13/2013  09:39:00      -86.700      108.992       -7.599       60.625      119.248       37.369     3675.409    14220.164     1396.414        1.937        0.965      139.270       40.431        0.084      336.211        7.359      861.975
10/13/2013  09:40:00      -92.111       69.870      -11.016       63.614       62.845       31.844     4046.781     3949.515     1014.059        1.125        0.451      115.613       35.439        0.094      336.155        7.266      861.996
10/13/2013  09:41:00      -90.405      108.466      -15.712       63.238       62.689       37.824     3998.988     3929.923     1430.674        1.477        0.468      141.202       45.191        0.102      336.101        7.177      862.008
10/13/2013  09:42:00      -40.782      157.615       -6.902       40.181       55.455       35.769     1614.528     3075.202     1279.435        1.626        0.298      162.805       34.931        0.046      336.143        7.247      862.012
10/13/2013  09:43:00      -71.824       72.073       -3.836       64.333       48.230       35.263     4138.729     2326.174     1243.513        0.904        0.385      101.751       32.689        0.103      336.220        7.376      862.019
10/13/2013  09:44:00      -45.404      106.924       -2.226       43.339       57.121       30.694     1878.247     3262.826      942.101        0.979        0.304      116.165       33.409        0.083      336.240        7.409      862.027
10/13/2013  09:45:00      -24.254      126.690      -13.416       35.754       46.363       24.776     1278.313     2149.498      613.842        1.043        0.202      128.991       17.061        0.017      336.303        7.514      862.029
10/13/2013  09:46:00      -44.394       53.324       -4.102       28.696       35.821       29.575      823.483     1283.109      874.685        0.391        0.149       69.385       23.841        0.118      336.350        7.593      862.016
10/13/2013  09:47:00      -41.408      103.769      -10.602       40.094       47.329       30.863     1607.497     2240.047      952.530        0.870        0.240      111.726       27.447        0.060      336.314        7.532      862.016
10/13/2013  09:48:00      -89.916       95.847      -15.254       61.380       53.123       37.397     3767.554     2822.053     1398.545        1.274        0.399      131.421       27.204        0.043      336.273        7.464      862.028
10/13/2013  09:49:00      -68.232      118.077      -10.923       53.251       51.982       36.270     2835.683     2702.140     1315.517        1.278        0.343      136.373       25.865        0.036      336.337        7.569      862.028
10/13/2013  09:50:00      -16.266      171.703      -10.288       46.329       65.000       33.533     2146.421     4225.013     1124.430        1.867        0.375      172.472       35.950        0.043      336.289        7.489      862.042
10/13/2013  09:51:00       30.676       87.589        1.265       55.997       75.721       45.806     3135.677     5733.666     2098.211        0.979        0.548       92.806       49.165        0.281      336.367        7.620      862.051
10/13/2013  09:52:00        7.235      210.396      -22.266       33.377       75.418       39.266     1113.991     5687.880     1541.857        2.658        0.417      210.521       39.318        0.035      336.299        7.504      862.054
10/13/2013  09:53:00      -29.096      251.788      -27.533       47.949       77.259       31.397     2299.077     5969.010      985.802        3.713        0.463      253.464       38.308        0.023      336.223        7.377      862.065
10/13/2013  09:54:00        6.695      155.567       -8.975       53.488       61.668       38.204     2860.944     3802.977     1459.528        1.622        0.406      155.711       37.222        0.057      336.386        7.653      862.078
10/13/2013  09:55:00        0.767       85.018       -5.520       45.486       66.848       25.208     2068.937     4468.595      635.456        0.721        0.359       85.021       24.145        0.081      336.341        7.576      862.091
10/13/2013  09:56:00      -32.025      198.053      -19.844       43.867       63.259       32.383     1924.282     4001.747     1048.645        2.381        0.349      200.625       23.297        0.013      336.359        7.606      862.100
10/13/2013  09:57:00      -72.947      129.001      -16.405       51.156       72.734       35.221     2616.945     5290.266     1240.498        1.569        0.457      148.198       38.774        0.068      336.343        7.581      862.110
10/13/2013  09:58:00       -5.046      117.488       -6.527       40.590       57.966       36.210     1647.548     3360.059     1311.162        1.009        0.316      117.596       38.375        0.106      336.420        7.711      862.108
10/13/2013  09:59:00      -63.096       72.826       -4.948       38.884       58.830       22.701     1511.980     3460.978      515.352        0.740        0.274       96.357       17.658        0.034      336.544        7.917      862.107
10/13/2013  10:00:00      -12.918      162.760      -16.565       40.951       76.948       28.974     1677.017     5921.047      839.488        1.768        0.422      163.272       30.747        0.035      336.466        7.784      862.112
10/13/2013  10:01:00      -14.000      138.035        2.142       51.004       63.512       41.085     2601.436     4033.751     1687.981        1.379        0.416      138.743       34.765        0.063      336.574        7.966      862.127
10/13/2013  10:02:00       52.617      135.572       -8.454       37.970       94.708       38.777     1441.690     8969.649     1503.661        1.657        0.596      145.425       49.041        0.114      336.419        7.707      862.134
10/13/2013  10:03:00       45.343       56.582       -7.587       63.845       54.093       33.664     4076.198     2926.073     1133.251        0.672        0.407       72.509       33.454        0.213      336.510        7.860      862.153
10/13/2013  10:04:00        8.634      122.489      -21.663       72.529       88.131       45.342     5260.514     7767.074     2055.942        1.531        0.754      122.793       54.482        0.197      336.497        7.838      862.165
10/13/2013  10:05:00        0.788      161.784      -16.401       66.429       65.684       46.479     4412.868     4314.437     2160.325        1.866        0.544      161.786       37.807        0.055      336.464        7.783      862.169
10/13/2013  10:06:00     -177.488      199.703      -47.732       67.847       66.005       43.355     4603.239     4356.705     1879.627        4.225        0.542      267.177       36.788        0.019      336.378        7.635      862.171
10/13/2013  10:07:00      -94.315      188.050      -28.440       50.311       63.730       38.166     2531.189     4061.567     1456.670        2.656        0.402      210.376       35.987        0.029      336.414        7.697      862.164
10/13/2013  10:08:00      -57.012      156.220      -12.249       41.866       69.282       32.981     1752.782     4800.053     1087.736        1.772        0.382      166.298       31.925        0.037      336.556        7.936      862.140
10/13/2013  10:09:00      -19.915       50.553        6.400       40.160       52.077       31.108     1612.851     2712.025      967.711        0.414        0.265       54.334       14.543        0.072      336.682        8.148      862.135
10/13/2013  10:10:00      -30.875      117.508       -6.058       42.182       86.542       43.647     1779.348     7489.587     1905.023        1.298        0.559      121.497       48.127        0.157      336.782        8.315      862.136
10/13/2013  10:11:00      -92.760       98.452      -15.556       57.542       53.361       32.525     3311.098     2847.350     1057.885        1.288        0.361      135.267       29.932        0.049      336.672        8.131      862.149
10/13/2013  10:12:00      -95.745      171.161      -14.227       49.263       75.235       44.999     2426.867     5660.323     2024.909        2.439        0.506      196.120       38.045        0.038      336.515        7.865      862.142
10/13/2013  10:13:00        2.061      147.419       -6.581       54.255       64.246       37.273     2943.613     4127.556     1389.305        1.512        0.423      147.433       37.402        0.064      336.579        7.975      862.152
10/13/2013  10:14:00       48.909       61.790       10.633       53.485       48.582       36.364     2860.688     2360.188     1322.354        0.643        0.327       78.804       33.396        0.180      336.529        7.893      862.143
10/13/2013  10:15:00       19.098       63.684       11.140       48.516       53.999       40.978     2353.786     2915.871     1679.233        0.575        0.347       66.486       34.031        0.262      336.645        8.086      862.136
10/13/2013  10:16:00      -22.169      116.757       -0.860       43.775       82.075       38.026     1916.251     6736.387     1445.974        1.211        0.505      118.843       38.647        0.106      336.687        8.156      862.150
10/13/2013  10:17:00      -60.644      166.229      -25.967       53.601       47.719       32.283     2873.015     2277.077     1042.194        1.909        0.310      176.946       24.717        0.020      336.526        7.886      862.172
10/13/2013  10:18:00      -71.239      108.163      -17.993       81.959       79.963       36.161     6717.252     6394.094     1307.584        1.576        0.721      129.516       29.467        0.052      336.616        8.037      862.169
10/13/2013  10:19:00     -121.066       65.299      -14.779       82.185       41.349       26.802     6754.404     1709.728      718.321        1.416        0.459      137.553       22.555        0.027      336.565        7.953      862.183
10/13/2013  10:20:00        0.455      198.094      -16.260       36.439       44.045       29.493     1327.830     1939.991      869.833        2.182        0.207      198.095       24.803        0.016      336.424        7.716      862.182
10/13/2013  10:21:00       11.169      107.357       -3.403       38.596       49.033       33.165     1489.664     2404.231     1099.934        0.833        0.250      107.936       28.172        0.068      336.600        8.011      862.180
10/13/2013  10:22:00      -27.190      174.330      -18.747       45.135       48.245       29.516     2037.174     2327.615      871.218        1.836        0.262      176.437       17.813        0.010      336.514        7.866      862.184
10/13/2013  10:23:00        4.391      163.437      -25.705       47.954       67.983       29.071     2299.587     4621.738      845.137        1.758        0.388      163.496       35.803        0.048      336.569        7.958      862.188
10/13/2013  10:24:00       51.366      108.343       -7.962       46.091       73.947       44.965     2124.409     5468.108     2021.865        1.203        0.481      119.903       44.019        0.135      336.607        8.023      862.183
10/13/2013  10:25:00       16.862       73.825        9.299       58.732       61.633       44.049     3449.430     3798.653     1940.320        0.750        0.459       75.726       35.624        0.221      336.747        8.258      862.184
10/13/2013  10:26:00      -29.621      176.559      -13.281       71.079       70.168       35.142     5052.251     4923.559     1234.980        2.172        0.561      179.026       25.167        0.020      336.642        8.079      862.191
10/13/2013  10:27:00     -175.054      119.702      -25.761       69.820       64.371       45.675     4874.898     4143.621     2086.164        2.837        0.555      212.067       45.060        0.045      336.534        7.897      862.195
10/13/2013  10:28:00      -87.423       89.572      -14.713       77.160       50.550       34.885     5953.637     2555.290     1216.961        1.280        0.486      125.164       40.118        0.103      336.673        8.133      862.189
10/13/2013  10:29:00      -98.033       34.296      -10.128       50.520       85.205       31.115     2552.308     7259.837      968.139        1.083        0.539      103.859       31.774        0.094      336.685        8.154      862.194
10/13/2013  10:30:00     -156.028       18.352      -18.744       59.846       61.101       32.921     3581.554     3733.280     1083.803        1.671        0.420      157.104       30.152        0.037      336.668        8.124      862.202
10/13/2013  10:31:00      -95.214       62.368       -7.613       68.550       75.566       38.670     4699.078     5710.165     1495.336        1.246        0.595      113.823       37.681        0.110      336.851        8.429      862.201
10/13/2013  10:32:00      -72.484       48.361       -7.487       78.217       54.134       30.497     6117.955     2930.486      930.052        0.881        0.499       87.136       30.110        0.119      336.927        8.557      862.226
10/13/2013  10:33:00     -140.485      -32.519       -6.051       99.221       55.142       43.318     9844.788     3040.670     1876.408        1.779        0.738      144.199       56.488        0.153      336.750        8.260      862.249
10/13/2013  10:34:00       -4.149       54.693       11.366       32.475       63.650       33.207     1054.645     4051.296     1102.714        0.467        0.310       54.850       34.331        0.392      337.080        8.812      862.270
10/13/2013  10:35:00       12.994      177.321      -18.036       41.737       63.863       41.852     1742.003     4078.501     1751.630        1.975        0.379      177.797       35.957        0.041      336.810        8.361      862.290
10/13/2013  10:36:00       -1.210      192.794      -21.878       29.289       74.586       28.768      857.836     5563.103      827.596        2.245        0.362      192.798       33.631        0.030      336.597        8.004      862.321
10/13/2013  10:37:00      -13.249       64.465       -0.810       29.488       32.632       25.417      869.548     1064.849      646.021        0.346        0.129       65.812       21.042        0.102      336.794        8.335      862.322
10/13/2013  10:38:00      -26.329       36.184        2.430       29.462       36.612       20.338      867.991     1340.460      413.643        0.231        0.131       44.749       16.115        0.130      336.924        8.553      862.317
10/13/2013  10:39:00      -25.929       18.095      -22.530       15.579       27.291       14.316      242.715      744.812      204.953        0.135        0.060       31.619       12.035        0.145      336.847        8.425      862.329
10/13/2013  10:40:00      -67.467       49.295        2.126       42.056       81.257       31.686     1768.729     6602.724     1004.014        0.818        0.469       83.557       24.107        0.083      336.946        8.588      862.338
10/13/2013  10:41:00     -138.225        5.736      -21.158       57.041       83.828       37.138     3253.665     7027.207     1379.243        1.562        0.583      138.343       34.963        0.064      336.927        8.556      862.338
10/13/2013  10:42:00      -85.539       61.219      -38.101       75.572       36.895       23.272     5711.178     1361.245      541.569        1.006        0.381      105.189       24.916        0.056      336.733        8.234      862.354
10/13/2013  10:43:00       41.898       43.977       -4.699       29.721       48.903       20.733      883.347     2391.494      429.846        0.371        0.185       60.741       22.016        0.131      336.931        8.565      862.360
10/13/2013  10:44:00      -50.312       18.358       -5.189       28.978       34.374       20.343      839.724     1181.574      413.823        0.266        0.122       53.556       16.460        0.094      336.994        8.667      862.359
10/13/2013  10:45:00      -32.931       -3.516       -1.437       33.266       24.324       24.557     1106.595      591.672      603.045        0.170        0.115       33.118       18.382        0.308      337.019        8.709      862.363
10/13/2013  10:46:00      -79.393       73.726       -3.991       86.905       75.528       43.021     7552.548     5704.449     1850.803        1.343        0.755      108.346       55.121        0.259      337.173        8.967      862.375
10/13/2013  10:47:00       -2.250      148.838       -8.228       68.457       73.502       46.801     4686.343     5402.501     2190.295        1.725        0.614      148.855       43.707        0.086      337.121        8.880      862.389
10/13/2013  10:48:00      -20.630       86.156       -1.526       30.605       44.579       29.238      936.678     1987.245      854.852        0.581        0.189       88.592       20.660        0.054      337.140        8.914      862.385
10/13/2013  10:49:00      -36.422       76.164       -0.802       38.563       48.652       27.960     1487.125     2367.040      781.747        0.588        0.232       84.425       25.440        0.091      337.273        9.137      862.393
10/13/2013  10:50:00     -125.885       66.956      -20.133       68.258       59.925       40.357     4659.207     3591.007     1628.717        1.531        0.494      142.584       40.711        0.082      337.044        8.752      862.399
10/13/2013  10:51:00      -40.069       86.278        8.969       46.999       48.761       40.122     2208.893     2377.654     1609.765        0.766        0.310       95.128       29.270        0.095      337.352        9.269      862.389
10/13/2013  10:52:00      -85.209       20.900        0.306       54.055       57.032       40.898     2921.960     3252.680     1672.686        0.777        0.392       87.734       33.055        0.142      337.233        9.068      862.378
10/13/2013  10:53:00      -62.147       -9.011        4.692       53.091       33.413       24.472     2818.629     1116.444      598.898        0.425        0.227       62.797       25.878        0.170      337.041        8.748      862.367
10/13/2013  10:54:00      -73.632       16.022        1.095       41.995       52.271       27.508     1763.539     2732.240      756.709        0.546        0.263       75.354       11.546        0.023      337.234        9.071      862.349
10/13/2013  10:55:00     -164.490      -27.617      -13.124       53.847       45.424       27.994     2899.543     2063.362      783.682        1.687        0.287      166.793       16.308        0.010      337.051        8.762      862.344
10/13/2013  10:56:00     -173.107      -56.834      -18.672       50.132       48.625       22.279     2513.218     2364.355      496.348        1.946        0.269      182.198       10.164        0.003      337.036        8.737      862.340
10/13/2013  10:57:00      -24.712       32.871        2.256       73.970       77.241       35.627     5471.509     5966.150     1269.296        0.720        0.635       41.124       22.103        0.289      337.130        8.897      862.343
10/13/2013  10:58:00       24.381       88.996       -7.246       27.927       47.379       33.198      779.930     2244.784     1102.130        0.635        0.206       92.275       31.153        0.114      336.941        8.582      862.352
10/13/2013  10:59:00       19.755       51.523       -7.042       38.909       27.336       22.049     1513.944      747.282      486.176        0.292        0.137       55.181       21.499        0.152      337.010        8.696      862.356
10/13/2013  11:00:00       -2.311        7.141       24.459       23.051       16.767       10.663      531.360      281.142      113.692        0.079        0.046        7.506        8.592        1.310      337.371        9.300      862.348
10/13/2013  11:01:00       52.392       51.408       13.281       35.576       20.243       22.317     1265.686      409.762      498.044        0.387        0.109       73.401       13.688        0.035      337.055        8.772      862.353
10/13/2013  11:02:00       19.936       49.275        7.766       66.548       25.030       23.607     4428.600      626.511      557.283        0.425        0.281       53.155       22.720        0.183      337.264        9.121      862.361
10/13/2013  11:03:00      -59.585       59.798      -34.666       42.414       53.199       26.692     1798.963     2830.177      712.441        0.683        0.267       84.416       30.846        0.134      337.129        8.894      862.372
10/13/2013  11:04:00      -26.678       24.837       -1.829       27.229       24.179       19.273      741.400      584.625      371.451        0.151        0.085       36.450       13.394        0.135      337.464        9.456      862.371
10/13/2013  11:05:00       -0.304       60.550        9.090       31.011       42.184       26.135      961.686     1779.495      683.057        0.359        0.171       60.551       25.887        0.183      337.693        9.841      862.367
10/13/2013  11:06:00      -14.875      107.303       -3.740       31.184       41.553       33.049      972.439     1726.642     1092.214        0.777        0.190      108.329       27.132        0.063      337.507        9.527      862.379
10/13/2013  11:07:00      -57.366       96.500       -7.264       32.261       42.359       28.133     1040.785     1794.315      791.484        0.814        0.181      112.263       20.460        0.033      337.373        9.304      862.390
10/13/2013  11:08:00       40.064       29.443        2.264       44.946       62.445       34.772     2020.134     3899.372     1209.126        0.480        0.356       49.720       27.961        0.316      337.192        9.000      862.393
10/13/2013  11:09:00       31.213       67.752       25.903       38.149       36.518       34.918     1455.376     1333.563     1219.270        0.512        0.200       74.596       18.134        0.059      337.356        9.274      862.394
10/13/2013  11:10:00      -41.785       42.097        6.595       38.305       29.353       31.213     1467.274      861.601      974.250        0.343        0.165       59.314       26.776        0.204      337.332        9.235      862.389
10/13/2013  11:11:00       62.479       45.411       22.459       71.711       43.210       33.636     5142.517     1867.118     1131.390        0.730        0.407       77.238       25.877        0.112      337.380        9.315      862.388
10/13/2013  11:12:00       13.641       55.529       15.156       59.348       34.986       38.714     3522.226     1224.007     1498.783        0.487        0.312       57.180       21.430        0.140      337.361        9.284      862.374
10/13/2013  11:13:00       45.451       30.983       34.256       64.904       37.755       35.048     4212.538     1425.473     1228.374        0.553        0.343       55.007       31.621        0.330      337.430        9.398      862.360
10/13/2013  11:14:00       88.877      142.854      -31.377       60.270       74.524       40.581     3632.472     5553.847     1646.855        2.006        0.542      168.245       41.219        0.060      337.114        8.869      862.356
10/13/2013  11:15:00      -10.078      112.083      -12.331       33.503       56.945       36.566     1122.421     3242.681     1337.044        0.926        0.285      112.535       30.779        0.075      337.138        8.909      862.351
10/13/2013  11:16:00       40.862       40.670        9.082       47.873       20.237       26.072     2291.844      409.525      679.730        0.339        0.169       57.652       16.464        0.082      337.248        9.094      862.346
10/13/2013  11:17:00       69.810       65.605       40.196       60.364       36.092       32.445     3643.868     1302.657     1052.707        0.840        0.300       95.799       25.581        0.071      337.346        9.257      862.350
10/13/2013  11:18:00       85.749       41.388       25.957       47.665       37.106       37.146     2271.973     1376.849     1379.859        0.738        0.251       95.215       18.359        0.037      337.197        9.009      862.353
10/13/2013  11:19:00       14.214       38.004       -0.671       33.985       51.948       20.816     1154.948     2698.610      433.295        0.297        0.214       40.575       22.935        0.320      337.421        9.383      862.367
10/13/2013  11:20:00       15.714       76.756       -4.804       28.774       76.533       29.952      827.934     5857.283      897.100        0.687        0.379       78.348       39.204        0.250      337.411        9.366      862.395
10/13/2013  11:21:00       -3.998      171.164       -9.593       40.961       48.109       32.171     1677.777     2314.517     1034.953        1.722        0.251      171.211       27.970        0.027      337.316        9.206      862.416
10/13/2013  11:22:00      -44.098      118.792       -3.864       56.403       86.390       35.433     3181.293     7463.187     1255.478        1.398        0.595      126.713       42.768        0.114      337.379        9.311      862.436
10/13/2013  11:23:00      -79.709       38.801       -9.182       73.694       75.053       27.199     5430.827     5632.899      739.762        0.987        0.590       88.651       22.612        0.065      337.507        9.528      862.431
10/13/2013  11:24:00       12.441        1.142      -12.140       55.119       20.797       26.337     3038.050      432.527      693.623        0.223        0.208       12.493       23.993        3.688      337.219        9.046      862.426
10/13/2013  11:25:00      -13.338       -8.911       -6.161       16.982       20.444       14.054      288.373      417.951      197.520        0.060        0.045       16.041       10.084        0.395      337.315        9.206      862.424
10/13/2013  11:26:00       23.681       26.321       19.332       19.362       23.327       19.737      374.885      544.129      389.542        0.147        0.065       35.406       11.379        0.103      337.430        9.397      862.437
10/13/2013  11:27:00       -1.682       69.206        9.272       46.947       52.311       27.143     2204.060     2736.483      736.731        0.528        0.284       69.226       29.497        0.182      337.581        9.650      862.454
10/13/2013  11:28:00       78.229       37.731       -6.771       49.187       41.081       32.049     2419.362     1687.632     1027.144        0.636        0.257       86.853       28.506        0.108      337.495        9.509      862.443
10/13/2013  11:29:00      -47.315      113.565       -2.451       56.104       66.770       36.610     3147.683     4458.187     1340.326        1.204        0.447      123.028       32.585        0.070      337.669        9.799      862.451
10/13/2013  11:30:00      -13.023      110.562       10.851       53.203       60.086       41.138     2830.537     3610.326     1692.346        1.032        0.407      111.326       41.895        0.142      337.576        9.644      862.442
10/13/2013  11:31:00       43.157       67.748        3.001       57.352       61.607       31.847     3289.276     3795.381     1014.245        0.728        0.405       80.327       32.997        0.169      337.512        9.536      862.442
10/13/2013  11:32:00       59.179       53.903       13.498       53.252       37.699       32.581     2835.758     1421.212     1061.540        0.595        0.266       80.048       25.506        0.102      337.388        9.328      862.437
10/13/2013  11:33:00       88.048       66.656       10.540       61.010       40.818       31.654     3722.178     1666.109     1001.967        0.935        0.320      110.433       19.116        0.030      337.328        9.227      862.444
10/13/2013  11:34:00       43.847       71.367        9.736       62.619       56.983       40.222     3921.164     3247.100     1617.848        0.795        0.439       83.761       37.211        0.197      337.634        9.741      862.442
10/13/2013  11:35:00      139.378       99.241        6.949       74.775       44.784       39.503     5591.331     2005.647     1560.505        1.924        0.458      171.099       23.680        0.019      337.466        9.458      862.459
10/13/2013  11:36:00       64.787       82.018       17.083      113.611       63.431       47.600    12907.559     4023.445     2265.722        1.520        0.960      104.519       35.376        0.115      337.853       10.106      862.461
10/13/2013  11:37:00      -76.236       87.739      -13.499       87.801       52.740       36.026     7709.093     2781.544     1297.877        1.274        0.589      116.233       38.337        0.109      338.016       10.380      862.490
10/13/2013  11:38:00     -118.691       21.532      -23.245       34.130       50.076       23.767     1164.840     2507.596      564.867        0.966        0.212      120.628       13.727        0.013      337.406        9.357      862.516
10/13/2013  11:39:00       30.032      -51.943       39.075       74.829       45.656       46.504     5599.403     2084.466     2162.614        0.748        0.492       60.000       42.375        0.499      337.715        9.875      862.496
10/13/2013  11:40:00       30.315      -78.681        3.446       38.806       62.323       39.804     1505.882     3884.207     1584.389        0.705        0.349       84.319       43.287        0.264      337.803       10.024      862.486
10/13/2013  11:41:00       44.741       77.915        3.386       48.894       52.271       30.688     2390.657     2732.256      941.753        0.707        0.303       89.847       20.954        0.054      337.681        9.819      862.484
10/13/2013  11:42:00       32.073      172.840      -14.584       77.137       95.356       46.818     5950.084     9092.721     2191.943        2.417        0.862      175.791       54.155        0.095      337.431        9.398      862.504
10/13/2013  11:43:00      -82.422      209.826      -19.845       67.917       74.422       48.733     4612.738     5538.571     2374.879        3.187        0.626      225.434       44.985        0.040      337.486        9.489      862.493
10/13/2013  11:44:00      -14.719      271.069      -29.281       63.968       90.525       45.636     4091.901     8194.698     2082.626        4.446        0.718      271.469       45.708        0.028      337.479        9.478      862.506
10/13/2013  11:45:00       17.591      292.819      -40.655       47.658       86.816       27.543     2271.324     7536.943      758.602        4.913        0.528      293.347       27.070        0.009      337.180        8.977      862.524
10/13/2013  11:46:00       70.797       50.976       27.214       86.586       54.617       48.585     7497.147     2983.001     2360.507        1.059        0.642       87.240       37.856        0.188      337.529        9.564      862.539
10/13/2013  11:47:00       51.119      108.444      -11.999       81.986       75.948       39.429     6721.654     5768.145     1554.661        1.428        0.702      119.888       32.424        0.073      337.430        9.399      862.547
10/13/2013  11:48:00       79.272       68.525        8.171       61.800       43.842       45.251     3819.260     1922.164     2047.689        0.942        0.389      104.784       33.207        0.100      337.416        9.374      862.544
10/13/2013  11:49:00      130.441       80.613        9.691       59.072       56.958       32.573     3489.449     3244.253     1061.004        1.570        0.390      153.340       32.745        0.046      337.291        9.165      862.539
10/13/2013  11:50:00      111.142       79.781       34.414       41.150       47.007       32.129     1693.283     2209.624     1032.292        1.242        0.247      136.812       20.244        0.022      337.269        9.128      862.528
10/13/2013  11:51:00       94.479       58.235       37.312       67.321       62.553       48.480     4532.120     3912.859     2350.347        1.225        0.540      110.985       28.677        0.067      337.334        9.238      862.526
10/13/2013  11:52:00       99.614       75.496        2.247       60.684       47.176       36.736     3682.560     2225.586     1349.500        1.144        0.363      124.990       24.271        0.038      337.340        9.247      862.524
10/13/2013  11:53:00      113.195       63.717       35.083       52.684       55.706       42.136     2775.634     3103.152     1775.481        1.288        0.383      129.897       24.578        0.036      337.521        9.550      862.536
10/13/2013  11:54:00       89.871       59.350       14.747       68.402       54.688       51.580     4678.785     2990.778     2660.493        1.107        0.517      107.700       31.313        0.085      337.567        9.627      862.538
10/13/2013  11:55:00      123.948       66.811       32.199       76.773       53.809       43.412     5894.134     2895.370     1884.569        1.577        0.534      140.808       25.962        0.034      337.736        9.911      862.546
10/13/2013  11:56:00      170.418      109.128       34.532       56.753       49.681       46.742     3220.943     2468.175     2184.806        2.501        0.394      202.364       36.534        0.033      337.350        9.262      862.562
10/13/2013  11:57:00      153.205       77.934       20.011       55.279       52.953       37.977     3055.787     2804.061     1442.236        1.862        0.365      171.888       24.179        0.020      337.364        9.286      862.570
10/13/2013  11:58:00      113.297       86.867       17.763       52.363       43.002       34.698     2741.896     1849.158     1203.947        1.325        0.290      142.766       24.388        0.029      337.421        9.384      862.560
10/13/2013  11:59:00       54.569       76.085        6.515       73.709       61.759       33.004     5433.015     3814.183     1089.282        0.957        0.517       93.630       34.977        0.140      337.410        9.366      862.567
10/13/2013  12:00:00       37.233       98.110       -3.350       38.176       45.753       27.198     1457.424     2093.364      739.747        0.766        0.215      104.938       26.349        0.063      337.524        9.556      862.562
10/13/2013  12:01:00       50.824      103.544      -14.908       36.415       62.073       36.540     1326.027     3853.039     1335.193        1.002        0.326      115.345       31.788        0.076      337.470        9.464      862.568
10/13/2013  12:02:00       25.193       96.097       -1.242       54.637       52.283       41.250     2985.155     2733.553     1701.582        0.864        0.371       99.344       29.804        0.090      337.468        9.464      862.571
10/13/2013  12:03:00       76.057       89.369        5.074       55.297       58.841       39.705     3057.744     3462.255     1576.466        1.095        0.405      117.352       34.373        0.086      337.480        9.482      862.591
10/13/2013  12:04:00      137.302       81.157       22.554       68.600       48.724       49.437     4706.007     2373.996     2444.038        1.773        0.476      159.494       22.708        0.020      337.471        9.465      862.600
10/13/2013  12:05:00       75.334       62.518        0.646       54.058       44.519       39.307     2922.261     1981.945     1545.052        0.802        0.322       97.897       29.451        0.091      337.558        9.613      862.616
10/13/2013  12:06:00       78.161      104.136       -5.636       62.537       50.555       40.973     3910.870     2555.780     1678.751        1.256        0.407      130.206       36.218        0.077      337.429        9.396      862.636
10/13/2013  12:07:00       75.236       61.183       11.183       54.538       39.096       34.529     2974.434     1528.528     1192.230        0.761        0.285       96.973       26.387        0.074      337.493        9.504      862.633
10/13/2013  12:08:00      161.910      114.638       16.316       47.450       55.305       45.608     2251.508     3058.669     2080.081        2.351        0.370      198.385       30.187        0.023      337.438        9.410      862.625
10/13/2013  12:09:00      220.989      110.648       32.222       66.593       42.258       49.411     4434.657     1785.751     2441.443        3.539        0.433      247.142       31.208        0.016      337.415        9.371      862.617
10/13/2013  12:10:00      151.587       89.325       35.620       71.658       55.281       50.434     5134.803     3056.000     2543.607        2.148        0.537      175.948       37.363        0.045      337.422        9.383      862.619
10/13/2013  12:11:00       92.505       83.118       30.212       47.643       46.829       37.573     2269.895     2192.991     1411.745        1.113        0.294      124.362       18.808        0.023      337.426        9.391      862.620
10/13/2013  12:12:00       43.222       67.350       15.628       27.609       37.180       36.352      762.268     1382.389     1321.500        0.506        0.173       80.026       29.214        0.133      337.501        9.519      862.617
10/13/2013  12:13:00       74.819       70.098       10.681       37.982       33.996       29.048     1442.660     1155.760      843.810        0.703        0.172      102.526       20.149        0.039      337.614        9.708      862.623
10/13/2013  12:14:00       71.203      117.383       -5.833       56.886       58.387       39.115     3235.991     3409.005     1529.946        1.353        0.409      137.290       28.843        0.044      337.521        9.552      862.626
10/13/2013  12:15:00      117.527       90.608       18.377       77.936       51.169       46.462     6074.072     2618.311     2158.681        1.660        0.543      148.400       30.536        0.042      337.423        9.387      862.628
10/13/2013  12:16:00       75.755       58.382       19.905       50.286       40.697       36.525     2528.643     1656.219     1334.087        0.753        0.276       95.641       21.531        0.051      337.513        9.537      862.631
10/13/2013  12:17:00       21.821       87.815       -0.586       38.343       51.354       35.572     1470.223     2637.222     1265.392        0.678        0.269       90.486       30.959        0.117      337.473        9.470      862.635
10/13/2013  12:18:00       97.454       85.119       10.561       71.040       42.386       44.823     5046.680     1796.534     2009.110        1.285        0.443      129.393       31.643        0.060      337.458        9.444      862.634
10/13/2013  12:19:00      120.668       85.035       13.324       55.160       41.861       43.212     3042.649     1752.313     1867.262        1.431        0.333      147.620       21.986        0.022      337.422        9.384      862.628
10/13/2013  12:20:00      112.962       57.528        5.556       53.935       43.617       34.143     2909.036     1902.410     1165.756        1.104        0.299      126.767       14.484        0.013      337.427        9.395      862.615
10/13/2013  12:21:00       75.416       74.382       11.642       58.394       28.905       30.893     3409.835      835.508      954.405        0.828        0.260      105.926       21.659        0.042      337.565        9.624      862.607
10/13/2013  12:22:00      120.259      101.329        1.632       52.664       36.928       35.346     2773.482     1363.704     1249.329        1.506        0.269      157.257       22.044        0.020      337.607        9.694      862.625
10/13/2013  12:23:00      153.338      100.815       10.976       66.325       56.317       44.606     4399.036     3171.583     1989.661        2.168        0.478      183.511       34.305        0.035      337.439        9.412      862.619
10/13/2013  12:24:00       58.006       39.812       22.441       38.551       44.433       36.171     1486.175     1974.305     1308.308        0.511        0.238       70.354       32.104        0.208      337.619        9.714      862.620
10/13/2013  12:25:00       48.620       38.329       25.576       56.126       44.718       45.484     3150.153     1999.715     2068.817        0.585        0.361       61.912       30.357        0.240      337.712        9.871      862.609
10/13/2013  12:26:00       63.613       62.385       33.781       70.853       47.711       42.971     5020.169     2276.327     1846.505        0.911        0.457       89.098       25.681        0.083      337.766        9.963      862.595
10/13/2013  12:27:00       43.903      141.953       -5.824       60.357      100.427       41.172     3642.919    10085.606     1695.102        1.876        0.771      148.587       48.461        0.106      337.689        9.831      862.593
10/13/2013  12:28:00       -3.402      111.936        5.214       48.763       68.278       44.827     2377.810     4661.928     2009.473        1.081        0.452      111.988       36.687        0.107      337.727        9.896      862.578
10/13/2013  12:29:00       64.062       64.698        7.058       56.283       49.144       27.351     3167.777     2415.152      748.076        0.733        0.317       91.049       22.305        0.060      337.852       10.105      862.564
10/13/2013  12:30:00       27.584       74.077       11.186       44.578       46.723       40.121     1987.179     2183.066     1609.675        0.608        0.289       79.046       30.847        0.152      337.877       10.149      862.550
10/13/2013  12:31:00      138.787      171.309        0.501      124.701       86.016       78.452    15550.290     7398.774     6154.737        3.885        1.455      220.473       64.205        0.085      337.782        9.985      862.565
10/13/2013  12:32:00       84.800      150.288       -1.718       91.057       88.232       68.257     8291.354     7784.920     4659.071        2.525        1.037      172.562       59.996        0.121      337.584        9.655      862.584
10/13/2013  12:33:00       55.902      139.573        7.003       73.483       94.794       65.690     5399.821     8985.913     4315.135        2.067        0.935      150.351       61.463        0.167      337.659        9.781      862.582
10/13/2013  12:34:00      105.683       94.112        2.501       72.411       62.154       47.285     5243.320     3863.076     2235.840        1.568        0.567      141.513       34.189        0.058      337.541        9.585      862.577
10/13/2013  12:35:00      127.937       76.161       22.238       67.386       43.629       51.108     4540.860     1903.518     2612.025        1.586        0.453      148.890       29.242        0.039      337.630        9.732      862.567
10/13/2013  12:36:00      105.755       68.185       22.703       68.358       53.182       41.188     4672.828     2828.340     1696.424        1.277        0.460      125.831       30.312        0.058      337.796       10.012      862.538
10/13/2013  12:37:00        3.549      206.559      -17.712       46.837      102.326       41.926     2193.672    10470.661     1757.829        2.870        0.721      206.590       49.687        0.058      337.671        9.798      862.527
10/13/2013  12:38:00      -22.393      178.471      -10.013       41.741       74.653       33.424     1742.274     5573.033     1117.183        2.044        0.422      179.870       37.430        0.043      337.823       10.056      862.520
10/13/2013  12:39:00       15.484      121.295       -7.620       52.328       70.161       41.447     2738.184     4922.535     1717.877        1.219        0.469      122.279       37.717        0.095      337.789        9.999      862.518
10/13/2013  12:40:00      -46.649      211.624       -5.383       55.148       81.611       47.279     3041.271     6660.328     2235.268        2.946        0.597      216.705       43.599        0.040      337.840       10.084      862.512
10/13/2013  12:41:00       46.069      136.877       -4.898       74.546       61.436       44.754     5557.157     3774.371     2002.902        1.611        0.567      144.422       42.229        0.085      337.884       10.159      862.507
10/13/2013  12:42:00      110.076       59.447        8.659       51.896       46.878       37.598     2693.150     2197.520     1413.619        1.101        0.315      125.102       33.759        0.073      337.599        9.683      862.492
10/13/2013  12:43:00      112.117       48.238       17.779       68.873       47.507       40.613     4743.554     2256.913     1649.434        1.193        0.432      122.054       30.451        0.062      337.748        9.931      862.479
10/13/2013  12:44:00      163.653      109.913       22.031       45.784       46.575       46.392     2096.168     2169.249     2152.189        2.288        0.321      197.138       16.462        0.007      337.685        9.824      862.468
10/13/2013  12:45:00      140.096      103.778       12.413       43.128       33.608       41.580     1860.053     1129.492     1728.914        1.763        0.236      174.346       31.087        0.032      337.716        9.878      862.463
10/13/2013  12:46:00       74.506       63.044       17.606       71.280       51.093       45.906     5080.895     2610.448     2107.349        0.982        0.490       97.600       32.022        0.108      337.914       10.210      862.468
10/13/2013  12:47:00      -50.451       28.164        1.871       48.919       24.089       24.337     2393.096      580.259      592.268        0.345        0.178       57.780       19.883        0.118      337.934       10.242      862.484
10/13/2013  12:48:00      -12.826        0.853       19.097       24.698       46.310       20.944      610.009     2144.630      438.647        0.186        0.160       12.854       13.365        1.081      338.229       10.738      862.466
10/13/2013  12:49:00       -7.924       63.034        1.077       31.143       67.008       22.342      969.904     4490.134      499.167        0.500        0.298       63.530       23.644        0.139      338.322       10.895      862.465
10/13/2013  12:50:00      -24.421      223.994      -13.969       39.598       65.468       43.403     1567.968     4286.048     1883.844        2.935        0.387      225.322       37.675        0.028      337.904       10.190      862.470
10/13/2013  12:51:00      -93.444      185.174      -12.560       52.575       53.209       42.601     2764.123     2831.149     1814.882        2.529        0.371      207.415       37.718        0.033      338.043       10.425      862.461
10/13/2013  12:52:00       40.406      175.465      -10.076       62.354       85.546       45.241     3888.070     7318.087     2046.738        2.288        0.663      180.057       48.770        0.073      338.171       10.639      862.458
10/13/2013  12:53:00        9.660      190.019      -18.241       90.934      125.786       47.403     8269.059    15822.214     2247.020        3.143        1.317      190.264       57.760        0.092      338.274       10.813      862.443
10/13/2013  12:54:00      -66.272      262.309      -36.226       40.794      100.339       26.951     1664.184    10067.972      726.333        4.348        0.623      270.552       16.231        0.004      337.654        9.771      862.460
10/13/2013  12:55:00      -41.030      221.172      -17.634       67.268      169.436       49.398     4525.020    28708.658     2440.150        4.329        1.784      224.946       66.466        0.087      338.182       10.658      862.441
10/13/2013  12:56:00      -74.036      308.992      -36.393       42.423       69.767       36.835     1799.735     4867.463     1356.782        5.515        0.401      317.737       32.556        0.010      337.759        9.945      862.441
10/13/2013  12:57:00      -68.217      162.036      -19.546       53.171       99.215       38.800     2827.141     9843.604     1505.412        2.273        0.709      175.810       50.606        0.083      338.011       10.371      862.431
10/13/2013  12:58:00     -135.484      196.003      -35.173       67.667       85.896       48.270     4578.872     7378.163     2330.028        3.615        0.714      238.271       54.651        0.053      338.132       10.575      862.435
10/13/2013  12:59:00      -80.486      141.271      -25.210       40.321       67.668       38.409     1625.797     4578.958     1475.231        1.737        0.384      162.589       34.217        0.044      338.082       10.491      862.447
10/13/2013  13:00:00      -66.150      136.973      -18.589       39.268       55.000       39.182     1541.997     3024.966     1535.231        1.479        0.305      152.110       26.296        0.030      338.256       10.785      862.443
10/13/2013  13:01:00     -138.614       83.228      -16.688       84.863       71.186       46.408     7201.813     5067.381     2153.700        2.042        0.721      161.680       48.801        0.091      338.351       10.943      862.425
10/13/2013  13:02:00      -52.667       63.964        6.399       96.639       48.518       46.475     9339.185     2353.976     2159.904        1.038        0.693       82.857       55.048        0.441      338.434       11.082      862.429
10/13/2013  13:03:00      -32.392      159.568      -11.974       38.504       94.584       28.405     1482.579     8946.102      806.819        1.894        0.562      162.822       35.095        0.046      338.402       11.027      862.434
10/13/2013  13:04:00       83.199       78.011       -2.225       63.917       64.606       32.445     4085.412     4173.917     1052.666        1.116        0.466      114.052       28.187        0.061      338.158       10.621      862.444
10/13/2013  13:05:00       -3.538       57.525       -9.261       45.744       54.556       25.613     2092.509     2976.408      656.043        0.457        0.286       57.634       29.562        0.263      338.256       10.784      862.439
10/13/2013  13:06:00       12.376       31.077       23.046       39.589       24.475       30.158     1567.271      599.039      909.526        0.236        0.154       33.451       22.776        0.464      338.636       11.422      862.423
10/13/2013  13:07:00        2.580      180.450      -12.522      112.437      135.729       60.695    12642.065    18422.278     3683.832        3.373        1.737      180.469       65.966        0.134      338.549       11.276      862.421
10/13/2013  13:08:00      128.704      114.771       12.231      126.433       69.816       58.530    15985.221     4874.270     3425.743        2.708        1.214      172.444       43.728        0.064      338.649       11.442      862.418
10/13/2013  13:09:00       57.535       72.059       17.341       95.511       75.730       60.176     9122.262     5735.016     3621.199        1.364        0.924       92.211       46.943        0.259      338.660       11.461      862.419
10/13/2013  13:10:00       14.190       62.740        0.869       54.600       65.999       37.257     2981.122     4355.850     1388.049        0.643        0.436       64.325       39.069        0.369      338.573       11.316      862.412
10/13/2013  13:11:00       10.950      190.906      -22.691       53.419       46.216       36.495     2853.605     2135.925     1331.912        2.170        0.316      191.220       23.920        0.016      338.754       11.620      862.412
10/13/2013  13:12:00       -3.327      269.637      -24.642       80.129      149.765       60.950     6420.613    22429.466     3714.925        5.294        1.628      269.658       77.099        0.082      338.551       11.278      862.409
10/13/2013  13:13:00      158.684      166.183        4.379       99.009      111.988       74.690     9802.710    12541.290     5578.564        4.036        1.396      229.776       69.724        0.092      338.222       10.724      862.414
10/13/2013  13:14:00       28.206      105.756      -13.849       47.963       98.557       40.524     2300.415     9713.534     1642.175        1.291        0.683      109.453       44.192        0.163      338.063       10.459      862.422
10/13/2013  13:15:00       13.296       30.068       17.560       36.538       39.079       22.270     1335.026     1527.162      495.939        0.237        0.168       32.876       23.269        0.501      338.557       11.290      862.390
10/13/2013  13:16:00      -11.768       93.760       18.037       84.671       70.241       53.568     7169.106     4933.736     2869.508        1.211        0.749       94.495       49.476        0.274      338.682       11.499      862.398
10/13/2013  13:17:00       51.883      128.416        2.433       74.599       61.733       51.803     5565.029     3811.014     2683.578        1.562        0.603      138.501       45.430        0.108      338.414       11.049      862.391
10/13/2013  13:18:00       25.293      143.383       -8.702       51.773       87.823       47.558     2680.481     7712.828     2261.738        1.696        0.633      145.597       50.202        0.119      338.308       10.870      862.383
10/13/2013  13:19:00     -107.431       84.209      -19.012       71.873       45.380       33.981     5165.682     2059.312     1154.724        1.369        0.419      136.501       27.207        0.040      338.578       11.324      862.388
10/13/2013  13:20:00      -75.226       66.091       -9.804       70.945       57.832       37.601     5033.139     3344.534     1413.824        0.996        0.490      100.135       28.139        0.079      338.528       11.241      862.395
10/13/2013  13:21:00      -50.326       55.547        4.020       45.747       41.464       32.975     2092.828     1719.232     1087.337        0.527        0.245       74.954       27.078        0.131      338.649       11.444      862.377
10/13/2013  13:22:00       36.032       73.548       24.341       52.513       73.747       43.883     2757.659     5438.619     1925.683        0.871        0.506       81.900       39.733        0.235      339.025       12.077      862.357
10/13/2013  13:23:00      -51.322       48.392       17.392       65.423       67.590       42.734     4280.186     4568.352     1826.178        0.797        0.534       70.539       32.113        0.207      339.495       12.867      862.347
10/13/2013  13:24:00      -50.832       90.476       -3.325       81.125       88.787       50.777     6581.193     7883.182     2578.260        1.391        0.852      103.777       43.194        0.173      339.084       12.175      862.357
10/13/2013  13:25:00     -106.747       81.992      -13.533       64.130       72.873       47.565     4112.608     5310.416     2262.417        1.499        0.584      134.602       47.793        0.126      338.623       11.399      862.371
10/13/2013  13:26:00      -20.700      149.811      -12.235       71.316       95.804       45.865     5085.967     9178.313     2103.570        1.969        0.818      151.235       38.027        0.063      338.859       11.796      862.374
10/13/2013  13:27:00      -17.127      213.703      -22.694       42.678       94.903       42.118     1821.406     9006.665     1773.952        2.954        0.630      214.389       53.775        0.063      338.368       10.969      862.367
10/13/2013  13:28:00      150.191      101.654       25.245      102.281       86.002       69.294    10461.304     7396.339     4801.669        2.809        1.133      181.359       45.345        0.063      338.376       10.982      862.355
10/13/2013  13:29:00      161.698      115.994       20.269      109.191       78.271       55.436    11922.751     6126.392     3073.170        3.056        1.056      199.000       38.870        0.038      338.295       10.847      862.349
10/13/2013  13:30:00      109.755       80.265       19.864       67.232       60.661       43.207     4520.170     3679.744     1866.814        1.447        0.503      135.973       30.092        0.049      338.336       10.917      862.341
10/13/2013  13:31:00      169.342      134.536       24.040      102.359       76.124       53.206    10477.386     5794.833     2830.928        3.322        0.955      216.279       19.966        0.009      338.257       10.785      862.334
10/13/2013  13:32:00      123.923      100.257       21.871       91.458       65.288       53.588     8364.589     4262.555     2871.665        2.069        0.775      159.400       16.444        0.011      338.344       10.931      862.343
10/13/2013  13:33:00      -11.934      314.178      -43.034       48.487       68.419       28.530     2350.990     4681.188      813.962        5.427        0.392      314.404       12.963        0.002      337.930       10.233      862.380
10/13/2013  13:34:00      -67.164      244.950      -19.152       47.276       83.928       43.538     2235.007     7043.910     1895.561        3.802        0.559      253.991       44.234        0.030      338.128       10.565      862.385
10/13/2013  13:35:00      -54.011      197.124      -14.972       52.254       73.292       42.977     2730.474     5371.654     1847.008        2.597        0.497      204.389       48.550        0.056      338.166       10.629      862.391
10/13/2013  13:36:00       37.451      104.370        3.166       56.819       67.419       50.255     3228.382     4545.373     2525.547        1.130        0.515      110.886       44.448        0.161      338.231       10.741      862.388
10/13/2013  13:37:00       47.980      106.602        3.825       58.186       73.835       61.785     3385.652     5451.673     3817.369        1.317        0.633      116.901       50.775        0.189      338.088       10.500      862.392
10/13/2013  13:38:00      117.297       74.509       21.625       69.108       55.835       49.414     4775.968     3117.492     2441.720        1.505        0.517      138.961       30.043        0.047      338.110       10.539      862.380
10/13/2013  13:39:00      181.583       89.097        0.848       47.078       36.131       39.962     2216.360     1305.414     1596.986        2.301        0.256      202.264       18.677        0.009      338.125       10.562      862.386
10/13/2013  13:40:00      134.884       87.359       31.516       62.708       34.933       42.333     3932.265     1220.349     1792.094        1.688        0.347      160.703       36.404        0.051      338.060       10.454      862.385
10/13/2013  13:41:00       -7.895       43.898       57.392       22.325       36.478       21.672      498.425     1330.621      469.673        0.379        0.115       44.603       19.788        0.197      338.332       10.912      862.393
10/13/2013  13:42:00        0.612       35.236       20.522       27.051       23.984       35.200      731.756      575.225     1239.020        0.210        0.127       35.241       15.296        0.188      338.310       10.874      862.386
10/13/2013  13:43:00        9.576       79.878       -2.317       40.964       52.529       26.602     1678.012     2759.279      707.678        0.581        0.257       80.450       13.983        0.030      338.252       10.777      862.396
10/13/2013  13:44:00      -71.619      103.430      -17.780       38.731       43.491       31.150     1500.126     1891.508      970.317        1.025        0.218      125.806       27.295        0.047      338.209       10.705      862.408
10/13/2013  13:45:00      -54.380      196.457      -17.353       30.578       43.565       22.571      934.989     1897.909      509.429        2.260        0.167      203.845       11.942        0.003      338.058       10.449      862.418
10/13/2013  13:46:00      -41.452       74.608       -5.945       35.536       57.233       25.556     1262.832     3275.572      653.115        0.625        0.260       85.350       29.498        0.119      338.310       10.874      862.428
10/13/2013  13:47:00      -29.008       80.648       -2.688       23.701       59.944       23.620      561.748     3593.294      557.889        0.603        0.236       85.706       29.661        0.120      338.277       10.820      862.421
10/13/2013  13:48:00       21.778       92.667      -11.778       36.982       34.118       26.874     1367.683     1164.059      722.208        0.623        0.163       95.191       18.981        0.040      338.150       10.606      862.418
10/13/2013  13:49:00       59.813       69.263       -0.548       44.781       53.555       27.173     2005.319     2868.177      738.351        0.699        0.281       91.514       25.258        0.076      338.088       10.505      862.403
10/13/2013  13:50:00       35.145       40.222        8.780       43.098       49.801       23.399     1857.461     2480.098      547.512        0.391        0.244       53.413       24.223        0.206      338.327       10.904      862.399
10/13/2013  13:51:00      -47.909       80.828       -1.538       26.508       52.262       33.899      702.697     2731.301     1149.126        0.671        0.229       93.960       30.955        0.109      338.444       11.100      862.415
10/13/2013  13:52:00      -23.533       83.329       -5.612       25.513       49.114       29.778      650.891     2412.233      886.741        0.574        0.197       86.588       25.622        0.088      338.350       10.943      862.423
10/13/2013  13:53:00      -74.010      -19.586      -16.136       48.264       37.707       28.917     2329.417     1421.836      836.216        0.535        0.229       76.558       24.361        0.101      338.265       10.798      862.423
10/13/2013  13:54:00       -5.559        6.865       28.528       26.994       21.013       17.563      728.699      441.552      308.466        0.118        0.074        8.834       11.861        1.803      338.682       11.500      862.423
10/13/2013  13:55:00      -83.514      106.132      -14.126       66.113       92.048       36.423     4370.966     8472.916     1326.630        1.630        0.709      135.051       40.951        0.092      338.400       11.026      862.422
10/13/2013  13:56:00      117.956      108.848       27.815       89.506       62.059       62.447     8011.336     3851.364     3899.610        2.115        0.788      160.504       39.410        0.060      338.559       11.291      862.419
10/13/2013  13:57:00      106.137      142.553       -0.254       89.405       87.046       52.191     7993.338     7576.963     2723.868        2.494        0.915      177.726       55.431        0.097      338.350       10.938      862.436
10/13/2013  13:58:00      159.992      120.560       19.884       80.430       60.118       46.065     6468.912     3614.129     2121.962        2.636        0.610      200.330       28.163        0.020      338.267       10.799      862.421
10/13/2013  13:59:00      149.727      137.822       -0.563      110.523       66.124       49.943    12215.294     4372.446     2494.259        3.024        0.954      203.502       16.945        0.007      338.408       11.039      862.414
10/13/2013  14:00:00       65.052      173.560      -10.496       80.327      146.094       56.575     6452.439    21343.346     3200.693        3.272        1.550      185.350       77.478        0.175      338.397       11.019      862.404
10/13/2013  14:01:00       -2.002      304.748      -31.578       41.495       72.273       41.242     1721.818     5223.435     1700.935        5.126        0.432      304.755       34.598        0.013      338.246       10.762      862.427
10/13/2013  14:02:00      -12.793      324.619      -38.021       44.458       75.205       29.833     1976.486     5655.780      889.993        5.775        0.426      324.871       34.559        0.011      338.235       10.747      862.428
10/13/2013  14:03:00      -27.890      311.598      -47.576       62.902       79.489       30.764     3956.682     6318.437      946.406        5.568        0.561      312.843       34.676        0.012      338.119       10.550      862.445
10/13/2013  14:04:00       12.912      196.669      -19.377       44.930      113.272       50.176     2018.692    12830.479     2517.666        2.829        0.868      197.092       63.165        0.103      338.160       10.621      862.467
10/13/2013  14:05:00       23.030       93.852        6.280       43.585       61.024       41.269     1899.638     3723.923     1703.164        0.835        0.366       96.636       32.670        0.114      338.387       11.004      862.463
10/13/2013  14:06:00       39.773      125.472      -22.796       28.140       99.042       35.520      791.874     9809.340     1261.657        1.485        0.593      131.625       42.476        0.104      338.221       10.724      862.455
10/13/2013  14:07:00       42.282       47.967       12.629       38.450       35.247       24.651     1478.430     1242.353      607.654        0.379        0.166       63.942       24.682        0.149      338.315       10.883      862.441
10/13/2013  14:08:00      108.377       75.335       22.391       45.867       38.006       29.007     2103.768     1444.463      841.428        1.116        0.219      131.988       18.793        0.020      338.493       11.182      862.425
10/13/2013  14:09:00      157.566       97.082       12.054       80.051       57.994       42.059     6408.147     3363.330     1768.957        2.297        0.577      185.073       26.708        0.021      338.411       11.041      862.426
10/13/2013  14:10:00       92.791       83.872       -6.607       46.822       54.910       35.898     2192.284     3015.145     1288.641        1.109        0.325      125.079       24.908        0.040      338.455       11.118      862.440
10/13/2013  14:11:00       -3.383      115.005       -4.602       66.280       94.618       42.037     4393.016     8952.650     1767.109        1.418        0.756      115.055       53.525        0.216      338.628       11.408      862.442
10/13/2013  14:12:00        4.327      160.664      -13.829       51.130       68.629       37.561     2614.292     4709.961     1410.841        1.738        0.437      160.722       37.222        0.054      338.501       11.194      862.464
10/13/2013  14:13:00       33.577      122.112       -7.469       47.771       70.276       42.794     2282.084     4938.679     1831.346        1.257        0.453      126.644       39.783        0.099      338.495       11.185      862.468
10/13/2013  14:14:00       98.268       73.249       -6.108       71.938       54.312       40.094     5175.076     2949.817     1607.538        1.239        0.487      122.564       35.705        0.085      338.322       10.894      862.477
10/13/2013  14:15:00      118.271       63.426       18.932       62.350       57.208       40.342     3887.564     3272.706     1627.452        1.358        0.439      134.204       27.137        0.041      338.259       10.788      862.464
10/13/2013  14:16:00      114.696       44.399       17.061       37.361       38.969       28.942     1395.846     1518.577      837.666        0.958        0.188      122.990       22.978        0.035      338.236       10.750      862.465
10/13/2013  14:17:00       37.690       21.375       39.723       23.986       42.373       31.593      575.331     1795.453      998.148        0.341        0.168       43.329       28.152        0.422      338.392       11.012      862.455
10/13/2013  14:18:00       42.396     -105.946       -6.864       44.502       52.960       25.285     1980.431     2804.711      639.315        0.925        0.271      114.114       23.210        0.041      338.405       11.035      862.441
10/13/2013  14:19:00       19.776       -1.419       43.114       35.844       84.674       51.211     1284.821     7169.707     2622.609        0.666        0.554       19.827       60.086        9.184      338.596       11.356      862.433
10/13/2013  14:20:00       21.229       42.981       41.637       25.602       23.844       23.620      655.454      568.544      557.902        0.291        0.089       47.938       20.180        0.177      338.539       11.260      862.437
10/13/2013  14:21:00        2.505       -0.490       32.634       18.548       24.850       20.417      344.020      617.529      416.856        0.122        0.069        2.553        9.826       14.815      338.864       11.805      862.446
10/13/2013  14:22:00        7.721        6.335       45.434       33.262       60.990       35.306     1106.336     3719.757     1246.483        0.412        0.304        9.987       41.156       16.983      338.892       11.854      862.446
10/13/2013  14:23:00       56.055       31.954       35.310       48.393       54.788       37.909     2341.883     3001.715     1437.101        0.609        0.339       64.523       36.721        0.324      338.797       11.693      862.461
10/13/2013  14:24:00      104.415       49.898        8.474       38.935       31.753       33.597     1515.936     1008.277     1128.767        0.856        0.183      115.725       16.985        0.022      338.576       11.321      862.473
10/13/2013  14:25:00      112.604       23.382       12.890       28.104       32.086       26.314      789.820     1029.511      692.440        0.795        0.126      115.006       15.226        0.018      338.536       11.253      862.482
10/13/2013  14:26:00       -0.971       13.696        0.584       63.838       30.802       22.152     4075.283      948.759      490.701        0.285        0.276       13.730       16.746        1.488      338.770       11.647      862.488
10/13/2013  14:27:00     -119.935      -27.818      -11.954       69.764       50.077       31.526     4867.033     2507.704      993.891        1.183        0.418      123.119       33.457        0.074      338.678       11.494      862.475
10/13/2013  14:28:00       44.254        1.606       41.929       36.447       49.311       28.860     1328.413     2431.604      832.890        0.416        0.230       44.283       16.048        0.131      339.062       12.137      862.480
10/13/2013  14:29:00        8.676       26.930        9.532       35.373       17.166       23.345     1251.272      294.658      544.966        0.149        0.105       28.293       22.057        0.608      338.843       11.770      862.502
10/13/2013  14:30:00     -130.120       24.018      -19.051       44.984       31.773       22.345     2023.592     1009.550      499.277        1.070        0.177      132.319       18.792        0.020      338.726       11.575      862.500
10/13/2013  14:31:00      -51.662      212.902      -22.674       46.182      122.809       35.306     2132.807    15082.086     1246.491        3.348        0.923      219.080       34.251        0.024      338.882       11.834      862.510
10/13/2013  14:32:00      -52.136      298.013      -32.474       52.129       87.883       36.605     2717.466     7723.488     1339.910        5.218        0.589      302.539       34.591        0.013      338.558       11.287      862.521
10/13/2013  14:33:00      -88.930      263.305      -37.388       61.837      100.179       35.813     3823.771    10035.747     1282.541        4.689        0.757      277.918       38.337        0.019      338.552       11.277      862.522
10/13/2013  14:34:00      -34.860      361.320      -41.554       32.865       81.558       25.126     1080.087     6651.691      631.302        7.093        0.418      362.998       28.894        0.006      338.300       10.854      862.527
10/13/2013  14:35:00        1.290      121.557       -9.836       51.271       59.525       36.350     2628.743     3543.282     1321.296        1.118        0.375      121.563       31.878        0.069      338.676       11.488      862.521
10/13/2013  14:36:00      115.622      107.219        8.645       96.934       75.295       61.066     9396.275     5669.293     3729.062        2.186        0.940      157.684       47.136        0.089      338.788       11.675      862.501
10/13/2013  14:37:00      147.810      113.876       10.462       65.823       68.043       57.006     4332.677     4629.845     3249.728        2.357        0.611      186.589       50.420        0.073      338.792       11.683      862.514
10/13/2013  14:38:00      106.916      172.981       -0.803       93.568      102.627       85.033     8754.906    10532.330     7230.652        3.393        1.326      203.356       71.258        0.123      338.670       11.478      862.536
10/13/2013  14:39:00       44.845      177.554       -9.941       83.435      119.346       76.844     6961.464    14243.375     5904.944        3.037        1.355      183.130       74.879        0.167      338.549       11.273      862.543
10/13/2013  14:40:00       71.268      271.456      -26.943       78.957      146.616       79.210     6234.276    21496.386     6274.209        5.674        1.700      280.656       68.987        0.060      338.526       11.235      862.531
10/13/2013  14:41:00       56.880      152.612       -8.731       78.341      130.840       69.159     6137.387    17119.212     4782.976        2.732        1.402      162.868       72.489        0.198      338.528       11.239      862.543
10/13/2013  14:42:00      106.912      101.156        6.636       73.461       64.277       64.183     5396.489     4131.579     4119.513        1.767        0.682      147.183       47.613        0.105      338.528       11.239      862.537
10/13/2013  14:43:00      -25.620      186.524      -20.288       74.741       92.190       40.713     5586.202     8499.033     1657.521        2.580        0.787      188.276       34.812        0.034      338.578       11.321      862.551
10/13/2013  14:44:00        3.759      167.546       -5.590       58.189      117.945       45.871     3385.958    13910.933     2104.184        2.376        0.970      167.588       60.205        0.129      338.684       11.498      862.557
10/13/2013  14:45:00       89.183       91.643        6.443       74.714       58.592       43.716     5582.214     3433.071     1911.062        1.366        0.546      127.875       25.326        0.039      338.741       11.598      862.559
10/13/2013  14:46:00      126.381      126.624       11.332      112.609       74.304       56.210    12680.804     5521.137     3159.588        2.674        1.068      178.902       40.432        0.051      338.567       11.304      862.555
10/13/2013  14:47:00      168.286      108.918       25.964       84.724       79.167       65.337     7178.182     6267.426     4268.982        2.928        0.886      200.457       35.684        0.032      338.543       11.261      862.556
10/13/2013  14:48:00      172.996      124.010       10.638       85.420       59.978       46.951     7296.584     3597.394     2204.434        2.926        0.655      212.853       27.729        0.017      338.516       11.218      862.574
10/13/2013  14:49:00      155.450      110.247       15.977       54.361       54.402       46.869     2955.099     2959.546     2196.722        2.234        0.406      190.576       33.563        0.031      338.478       11.153      862.579
10/13/2013  14:50:00      102.604       85.816       14.223       78.466       62.251       50.502     6156.936     3875.138     2550.491        1.534        0.629      133.760       33.454        0.063      338.525       11.235      862.585
10/13/2013  14:51:00       31.669       99.392       15.373       52.421       63.479       57.352     2747.936     4029.640     3289.228        1.059        0.503      104.316       48.002        0.212      338.548       11.272      862.594
10/13/2013  14:52:00      118.067       91.294       12.016       99.022       58.147       50.740     9805.406     3381.113     2574.559        1.909        0.788      149.247       33.324        0.050      338.591       11.344      862.608
10/13/2013  14:53:00      159.315      138.059       46.395      107.905       67.011       72.965    11643.537     4490.485     5323.912        3.402        1.073      210.812       61.577        0.085      338.600       11.358      862.603
10/13/2013  14:54:00      156.511       86.010       44.014       95.192       60.937       54.618     9061.446     3713.367     2983.113        2.479        0.788      178.587       32.901        0.034      338.465       11.132      862.605
10/13/2013  14:55:00      141.257       97.488       12.020       43.775       32.528       35.441     1916.224     1058.052     1256.092        1.692        0.212      171.631       28.349        0.027      338.427       11.070      862.601
10/13/2013  14:56:00       44.957       31.476        0.383       43.541       29.496       20.153     1895.853      870.019      406.158        0.309        0.159       54.881       12.898        0.055      338.568       11.308      862.600
10/13/2013  14:57:00      115.585       36.547       36.117       79.743       65.523       49.506     6358.871     4293.228     2450.807        1.455        0.655      121.226       33.400        0.076      338.663       11.466      862.590
10/13/2013  14:58:00       94.908       80.434       53.884      101.978       69.975       68.353    10399.429     4896.451     4672.075        1.917        0.998      124.407       32.973        0.070      338.760       11.629      862.579
10/13/2013  14:59:00        7.954      114.751      -20.855       49.435       59.036       28.749     2443.836     3485.227      826.520        1.021        0.338      115.027       23.016        0.040      338.759       11.628      862.613
10/13/2013  15:00:00        0.850       72.300       -6.745       32.284       50.586       31.100     1042.268     2558.919      967.182        0.492        0.228       72.305       31.533        0.190      338.939       11.932      862.614
10/13/2013  15:01:00       79.512       42.259       14.959       55.797       44.104       35.570     3113.278     1945.130     1265.241        0.733        0.316       90.044       32.757        0.132      338.946       11.942      862.610
10/13/2013  15:02:00       20.733       12.565       15.655       39.977       32.258       27.215     1598.152     1040.552      740.664        0.211        0.169       24.243       17.572        0.525      339.130       12.254      862.602
10/13/2013  15:03:00       52.170       63.852        4.991       56.230       51.281       38.057     3161.805     2629.724     1448.310        0.703        0.362       82.455       29.201        0.125      338.988       12.014      862.611
10/13/2013  15:04:00       43.889      130.909       -2.975       67.519      100.113       56.269     4558.881    10022.633     3166.235        1.841        0.887      138.071       48.556        0.124      338.896       11.858      862.610
10/13/2013  15:05:00       98.672      129.794        0.348      107.546       78.010       57.041    11566.213     6085.505     3253.682        2.374        1.045      163.042       47.096        0.083      338.839       11.761      862.613
10/13/2013  15:06:00       72.273      231.971      -25.931      121.457      130.775       78.949    14751.832    17102.219     6232.877        4.889        1.904      242.969       75.342        0.096      338.933       11.918      862.607
10/13/2013  15:07:00      -15.840      274.897      -20.692       82.303      102.118       63.574     6773.851    10428.152     4041.654        4.874        1.062      275.353       63.168        0.053      338.940       11.929      862.612
10/13/2013  15:08:00      -47.305      268.669        0.279       82.297      178.106       64.729     6772.870    31721.684     4189.793        5.854        2.134      272.801       81.681        0.090      338.893       11.852      862.633
10/13/2013  15:09:00       -7.331      196.411       -6.709       73.523      151.515       62.719     5405.631    22956.889     3933.655        3.548        1.615      196.548       70.562        0.129      338.897       11.860      862.645
10/13/2013  15:10:00       84.747      166.688       10.988       90.318      109.701       75.800     8157.268    12034.366     5745.702        3.051        1.297      186.995       65.048        0.121      338.948       11.945      862.664
10/13/2013  15:11:00      159.692      179.797       16.619      128.964      112.598      102.431    16631.704    12678.347    10492.066        4.895        1.990      240.475       71.043        0.087      338.803       11.699      862.685
10/13/2013  15:12:00      144.210      211.192       16.280      146.130      138.053      107.066    21354.023    19058.699    11463.183        5.876        2.594      255.731       75.607        0.087      338.730       11.578      862.675
10/13/2013  15:13:00      155.723      169.325       -7.598      144.685       91.512       77.094    20933.778     8374.534     5943.412        4.411        1.763      230.044       59.435        0.067      338.630       11.410      862.704
10/13/2013  15:14:00      143.287      120.372       10.937      107.448      101.332       70.638    11545.013    10268.123     4989.685        3.097        1.340      187.138       65.694        0.123      338.660       11.460      862.706
10/13/2013  15:15:00      148.577      139.393       15.641       87.043       79.611       66.119     7576.545     6337.980     4371.734        3.001        0.914      203.729       53.782        0.070      338.762       11.632      862.712
10/13/2013  15:16:00      340.988      210.478       37.360      114.647       94.711       84.647    13143.923     8970.182     7165.169        9.562        1.464      400.716       52.184        0.017      338.610       11.374      862.719
10/13/2013  15:17:00      258.934      201.289       46.808      111.042      107.391      109.570    12330.403    11532.906    12005.690        7.280        1.793      327.970       67.692        0.043      338.642       11.429      862.731
10/13/2013  15:18:00      260.667      207.313       30.691      119.636       98.486       84.505    14312.776     9699.445     7141.153        7.150        1.558      333.056       66.015        0.039      338.522       11.228      862.756
10/13/2013  15:19:00      194.855      142.162       23.767       93.244       72.378       78.424     8694.508     5238.541     6150.306        3.941        1.004      241.203       52.277        0.047      338.502       11.194      862.770
10/13/2013  15:20:00      240.486      138.822       47.556      105.082       63.709       54.402    11042.298     4058.835     2959.598        4.871        0.903      277.678       47.722        0.030      338.586       11.335      862.750
10/13/2013  15:21:00      191.613      130.271       19.193       77.271       65.141       70.205     5970.817     4243.395     4928.711        3.460        0.757      231.702       25.035        0.012      338.670       11.477      862.770
10/13/2013  15:22:00      137.483      101.474       31.497       97.955       55.474       60.413     9595.119     3077.406     3649.744        2.325        0.816      170.876       38.792        0.052      338.736       11.589      862.773
10/13/2013  15:23:00       99.821       74.570       20.309       70.260       60.495       49.937     4936.459     3659.667     2493.741        1.351        0.554      124.599       40.043        0.103      338.790       11.681      862.760
10/13/2013  15:24:00      101.735      109.320       25.825      112.074       82.097       56.749    12560.648     6739.908     3220.482        2.274        1.126      149.334       47.917        0.103      338.783       11.668      862.766
10/13/2013  15:25:00      287.463      155.408       28.442      105.721       81.850       71.617    11176.972     6699.477     5128.996        6.530        1.150      326.782       54.882        0.028      338.531       11.242      862.780
10/13/2013  15:26:00      229.646      172.458       18.913      160.716      112.337       70.816    25829.764    12619.676     5014.973        6.314        2.173      287.192       16.386        0.003      338.718       11.557      862.814
10/13/2013  15:27:00       70.112       68.761        1.853      105.834       69.129       40.879    11200.927     4778.815     1671.085        1.365        0.883       98.203       22.586        0.053      338.861       11.799      862.856
10/13/2013  15:28:00       57.858       98.922       -9.090       85.303       93.937       36.934     7276.572     8824.211     1364.093        1.534        0.873      114.600       34.968        0.093      338.798       11.693      862.862
10/13/2013  15:29:00      104.887      179.361       -6.175       75.990      119.905       55.208     5774.554    14377.237     3047.880        3.320        1.160      207.778       62.085        0.089      338.646       11.437      862.855
10/13/2013  15:30:00      247.508      171.928       35.827      123.250       90.259       72.514    15190.635     8146.752     5258.349        6.034        1.430      301.362       34.641        0.013      338.680       11.492      862.835
10/13/2013  15:31:00      234.843      148.713       39.786      115.657       90.213       84.656    13376.546     8138.407     7166.673        5.376        1.434      277.969       47.318        0.029      338.620       11.392      862.840
10/13/2013  15:32:00      153.300      124.823       11.307       97.888       80.855       73.241     9582.062     6537.591     5364.288        3.034        1.074      197.691       52.697        0.071      338.577       11.322      862.854
10/13/2013  15:33:00      110.040      171.729       -2.054      109.562      111.876       80.394    12003.907    12516.349     6463.189        3.629        1.549      203.960       71.455        0.123      338.751       11.612      862.861
10/13/2013  15:34:00      116.468      117.923       14.018      104.683       82.564       82.754    10958.600     6816.803     6848.246        2.614        1.231      165.743       57.442        0.120      338.636       11.421      862.883
10/13/2013  15:35:00       62.786      129.063       -1.904       75.233       92.070       58.294     5659.963     8476.856     3398.228        1.907        0.877      143.525       55.526        0.150      338.765       11.637      862.881
10/13/2013  15:36:00       96.075      151.256      -16.102       81.950       97.353       55.812     6715.847     9477.511     3114.976        2.583        0.965      179.189       48.224        0.072      338.937       11.927      862.894
10/13/2013  15:37:00      203.049      205.985        3.323      158.919      110.965       76.464    25255.345    12313.214     5846.712        6.353        2.171      289.238       55.778        0.037      338.776       11.655      862.900
10/13/2013  15:38:00      179.953      155.181        8.526      139.021       80.110       64.473    19326.796     6417.549     4156.813        4.321        1.495      237.622       31.953        0.018      338.582       11.329      862.899
10/13/2013  15:39:00      117.432      208.284      -15.318      107.575      125.844       73.383    11572.335    15836.826     5385.115        4.509        1.640      239.107       69.167        0.084      338.755       11.619      862.871
10/13/2013  15:40:00      227.640      202.303       24.442      145.470      108.397       77.474    21161.561    11749.874     6002.183        6.612        1.946      304.544       57.667        0.036      338.752       11.613      862.877
10/13/2013  15:41:00      113.680      153.085        6.716      121.170      124.440       82.774    14682.133    15485.215     6851.537        3.670        1.851      190.678       73.008        0.147      338.843       11.767      862.886
10/13/2013  15:42:00      146.534      103.634        4.710       95.903       91.700       65.122     9197.304     8408.963     4240.905        2.704        1.092      179.478       45.048        0.063      338.849       11.778      862.891
10/13/2013  15:43:00      211.301      155.294       30.748       96.788       89.654       68.789     9367.926     8037.907     4731.982        4.592        1.107      262.230       39.150        0.022      338.983       12.002      862.882
10/13/2013  15:44:00      226.963      166.453       24.618      119.616       90.930       78.937    14307.999     8268.293     6231.045        5.431        1.440      281.459       56.346        0.040      338.792       11.682      862.884
10/13/2013  15:45:00      116.276      142.009       -5.918      120.330       99.879       89.307    14479.386     9975.913     7975.783        3.307        1.622      183.539       68.606        0.140      338.723       11.567      862.883
10/13/2013  15:46:00      245.157      165.450       20.065      145.324      117.233       90.022    21119.161    13743.515     8103.920        6.541        2.148      295.763       71.011        0.058      338.702       11.530      862.849
10/13/2013  15:47:00      250.883      221.050      105.526      166.059       93.805      100.861    27575.645     8799.312    10173.035        8.473        2.327      334.373       98.254        0.086      338.850       11.780      862.834
10/13/2013  15:48:00      243.954      177.267       61.903      140.989       95.087      101.797    19877.784     9041.608    10362.582        6.702        1.964      301.558       56.441        0.035      338.874       11.821      862.865
10/13/2013  15:49:00       96.049      240.836      -13.538      100.007      171.913       79.463    10001.320    29553.971     6314.424        5.663        2.293      259.282       83.292        0.103      338.858       11.793      862.903
10/13/2013  15:50:00       97.439      267.019      -38.073      110.536      198.692       94.055    12218.185    39478.548     8846.392        7.138        3.027      284.242      107.229        0.142      338.622       11.396      862.899
10/13/2013  15:51:00       87.814      175.456       10.030      102.987      132.631       85.954    10606.347    17591.001     7388.092        3.708        1.779      196.204       84.663        0.186      338.705       11.536      862.885
10/13/2013  15:52:00      110.753      217.453        5.527      160.660      169.935       83.539    25811.604    28877.797     6978.818        6.061        3.083      244.033       86.441        0.125      338.921       11.900      862.885
10/13/2013  15:53:00      133.191      175.724       -6.026      130.480      117.148       84.366    17025.139    13723.597     7117.566        4.325        1.893      220.496       81.741        0.137      338.884       11.838      862.906
10/13/2013  15:54:00      288.688      168.539       21.965      110.071       93.640       66.987    12115.724     8768.389     4487.246        6.879        1.269      334.285       49.098        0.022      338.767       11.640      862.896
10/13/2013  15:55:00      217.631      167.712       32.069      144.602       97.602       88.359    20909.797     9526.202     7807.321        5.737        1.912      274.755       56.083        0.042      338.764       11.635      862.883
10/13/2013  15:56:00      174.657      138.801       15.462      128.751       82.704       76.732    16576.822     6840.024     5887.790        3.965        1.465      223.094       50.559        0.051      338.891       11.847      862.894
10/13/2013  15:57:00      285.882      161.204       49.299      122.237      100.420       77.516    14941.950    10084.134     6008.747        7.058        1.552      328.200       39.584        0.015      338.864       11.802      862.891
10/13/2013  15:58:00      240.693      148.323       43.806      153.056      107.218       83.998    23426.068    11495.654     7055.582        6.191        2.099      282.724       59.515        0.044      338.990       12.015      862.899
10/13/2013  15:59:00      246.877      130.264       31.893      140.065      110.925       76.846    19618.073    12304.371     5905.381        5.837        1.891      279.136       48.640        0.030      338.883       11.835      862.889
10/13/2013  16:00:00      231.235      161.229       50.182      131.157       96.143       84.643    17202.087     9243.427     7164.424        5.779        1.680      281.894       23.466        0.007      338.873       11.818      862.910
10/13/2013  16:01:00      273.670      176.153       62.913      108.567       97.401       76.605    11786.839     9486.948     5868.343        6.851        1.357      325.462       13.353        0.002      338.691       11.511      862.917
10/13/2013  16:02:00      216.634      144.826       52.516       88.200       83.494       67.725     7779.266     6971.184     4586.677        4.500        0.967      260.585       24.569        0.009      338.814       11.718      862.932
10/13/2013  16:03:00      150.163       85.820       42.963      112.110       64.743       59.409    12568.653     4191.600     3529.390        2.602        1.014      172.957       46.235        0.071      338.905       11.872      862.949
10/13/2013  16:04:00      103.191      114.810       -1.554       93.255      101.167       76.102     8696.436    10234.685     5791.467        2.427        1.236      154.368       62.893        0.166      338.938       11.930      862.972
10/13/2013  16:05:00      218.477      148.178       56.473       94.357       57.301       64.287     8903.285     3283.454     4132.857        4.460        0.816      263.986       43.163        0.027      338.962       11.965      862.979
10/13/2013  16:06:00      102.796       93.675        2.331       75.562       86.319       45.635     5709.680     7451.014     2082.552        1.729        0.762      139.075       22.922        0.027      338.859       11.796      862.989
10/13/2013  16:07:00      215.740      115.219       42.390       99.826       77.135       59.080     9965.222     5949.813     3490.485        4.051        0.970      244.580       15.613        0.004      338.838       11.760      862.986
10/13/2013  16:08:00       97.792      159.168      -10.962      102.777       93.569       52.462    10563.115     8755.213     2752.306        2.854        1.104      186.809       52.537        0.079      338.920       11.896      863.034
10/13/2013  16:09:00      129.453      184.665        5.428      119.037      120.469       72.185    14169.746    14512.887     5210.630        4.238        1.695      225.520       70.428        0.098      338.730       11.576      863.046
10/13/2013  16:10:00      -62.130      197.987      -18.018       56.999       56.421       37.041     3248.931     3183.355     1372.010        2.559        0.390      207.506       28.932        0.019      338.840       11.762      863.056
10/13/2013  16:11:00      -26.557      183.278      -26.010       87.090       77.109       43.343     7584.633     5945.739     1878.582        2.519        0.770      185.192       42.627        0.053      338.852       11.783      863.066
10/13/2013  16:12:00      -26.155      225.299      -35.076       52.232       70.122       31.992     2728.194     4917.084     1023.486        3.067        0.433      226.812       29.749        0.017      338.807       11.707      863.065
10/13/2013  16:13:00       -9.783      127.093       -1.862       53.039       74.485       36.264     2813.121     5548.013     1315.080        1.296        0.484      127.469       38.383        0.091      338.879       11.830      863.055
10/13/2013  16:14:00      -15.061      178.767      -12.682       63.897      129.209       47.883     4082.853    16695.009     2292.742        2.770        1.154      179.400       68.018        0.144      338.878       11.827      863.057
10/13/2013  16:15:00      132.970       84.009       11.370      136.517       83.680       48.167    18636.933     7002.364     2320.059        2.641        1.398      157.284       43.939        0.078      338.929       11.913      863.064
10/13/2013  16:16:00      224.002       92.600       35.013       74.662       67.672       56.421     5574.422     4579.531     3183.292        3.665        0.667      242.387       32.773        0.018      338.948       11.943      863.054
10/13/2013  16:17:00       59.598       96.046       -4.673      112.263       65.408       43.422    12602.930     4278.147     1885.444        1.578        0.938      113.034       28.667        0.064      339.181       12.338      863.053
10/13/2013  16:18:00        8.280      262.293      -29.212       66.666      150.204       51.762     4444.307    22561.170     2679.320        4.970        1.484      262.424       72.329        0.076      338.980       11.998      863.071
10/13/2013  16:19:00      -14.501      275.110      -40.971       61.762       70.659       28.778     3814.508     4992.762      828.174        4.360        0.482      275.492       18.994        0.005      338.848       11.775      863.070
10/13/2013  16:20:00       37.195      120.994       -8.155       65.847       94.783       42.081     4335.801     8983.901     1770.851        1.559        0.755      126.582       46.391        0.134      339.032       12.086      863.061
10/13/2013  16:21:00       89.788      136.778       -3.915       83.769       84.807       60.950     7017.322     7192.233     3714.958        2.235        0.896      163.616       55.701        0.116      338.885       11.838      863.049
10/13/2013  16:22:00      285.931      170.885       30.089       94.067       69.285       66.914     8848.651     4800.377     4477.425        6.499        0.906      333.104       37.577        0.013      338.905       11.872      863.043
10/13/2013  16:23:00       54.185       28.924       37.273       96.030       59.856       47.379     9221.703     3582.781     2244.781        1.010        0.752       61.421       31.084        0.256      339.207       12.381      863.032
10/13/2013  16:24:00       18.058       65.199        9.109       73.226       76.410       41.555     5362.048     5838.539     1726.796        0.879        0.646       67.654       34.015        0.253      339.262       12.475      863.064
10/13/2013  16:25:00       44.051      196.302      -18.805       66.461      123.303       64.537     4417.013    15203.549     4164.971        3.230        1.189      201.184       63.243        0.099      339.106       12.211      863.077
10/13/2013  16:26:00      102.539      162.083       25.419      123.926      121.659       65.212    15357.696    14800.835     4252.597        3.591        1.721      191.794       66.478        0.120      339.152       12.286      863.100
10/13/2013  16:27:00      187.310      155.340       22.016      134.203      105.244       68.503    18010.448    11076.201     4692.658        4.673        1.689      243.342       49.932        0.042      338.954       11.955      863.111
10/13/2013  16:28:00      194.261      121.374       10.713       92.087       77.295       72.272     8479.975     5974.465     5223.182        3.613        0.984      229.061       45.687        0.040      338.922       11.901      863.104
10/13/2013  16:29:00      229.796      114.513       31.392      108.328       77.767       81.102    11734.873     6047.760     6577.597        4.563        1.218      256.748       35.475        0.019      338.964       11.970      863.090
10/13/2013  16:30:00      335.883      189.827       63.788      130.080      118.791       90.815    16920.929    14111.406     8247.403        9.609        1.964      385.813       60.347        0.024      338.811       11.714      863.070
10/13/2013  16:31:00      222.051      148.889       46.411      141.585      115.398       77.677    20046.423    13316.659     6033.656        5.650        1.970      267.348       52.266        0.038      338.887       11.841      863.081
10/13/2013  16:32:00      237.533      156.982       33.574      146.278      102.701       82.557    21397.151    10547.460     6815.645        6.047        1.938      284.720       59.254        0.043      338.917       11.891      863.073
10/13/2013  16:33:00      220.157       92.076       47.120      135.668      119.117       91.187    18405.927    14188.825     8315.070        5.003        2.045      238.636       48.996        0.042      338.907       11.876      863.049
10/13/2013  16:34:00      231.803      195.975        1.016      121.299      116.824       89.286    14713.456    13647.959     7972.072        6.423        1.817      303.544       74.442        0.060      338.701       11.528      863.096
10/13/2013  16:35:00      128.633      136.775       13.981       93.915       95.390       77.065     8820.072     9099.279     5938.960        2.965        1.193      187.760       62.718        0.112      338.728       11.573      863.105
10/13/2013  16:36:00      266.562      179.388       31.083      146.214       82.639       71.812    21378.431     6829.140     5156.968        6.878        1.668      321.302       34.299        0.011      338.794       11.685      863.133
10/13/2013  16:37:00      214.807      125.720       54.864      187.755       89.354       68.999    35251.940     7984.112     4760.795        5.647        2.400      248.892       37.926        0.023      338.803       11.701      863.125
10/13/2013  16:38:00      136.975       88.938       16.235      112.115       80.675       62.113    12569.882     6508.440     3858.015        2.493        1.147      163.316       41.009        0.063      338.982       12.002      863.135
10/13/2013  16:39:00       54.195      154.906      -29.481       64.568       89.288       50.896     4168.968     7972.367     2590.382        2.126        0.737      164.112       40.942        0.062      339.006       12.043      863.158
10/13/2013  16:40:00       84.544      215.544      -18.396       96.564      137.088       84.568     9324.699    18793.076     7151.715        4.460        1.763      231.532       82.011        0.125      338.794       11.686      863.161
10/13/2013  16:41:00       50.551      219.320       -7.711      102.147      159.126       80.549    10434.032    25320.960     6488.067        4.647        2.112      225.071       80.261        0.127      338.728       11.574      863.178
10/13/2013  16:42:00       78.482      288.874      -29.320      107.772      160.273       90.544    11614.783    25687.354     8198.297        6.797        2.275      299.346       89.370        0.089      338.687       11.505      863.180
10/13/2013  16:43:00       74.499      231.723       -6.745      120.071      135.566       80.332    14417.109    18378.034     6453.228        4.926        1.962      243.404       73.098        0.090      338.655       11.453      863.192
10/13/2013  16:44:00      188.641      126.050       23.105      102.800       69.574       64.728    10567.762     4840.523     4189.711        3.580        0.980      226.879       33.293        0.022      338.702       11.531      863.195
10/13/2013  16:45:00      249.440      141.880       29.979       93.341       76.044       66.894     8712.633     5782.709     4474.854        5.111        0.949      286.968       27.209        0.009      338.587       11.335      863.202
10/13/2013  16:46:00      161.073      108.685       53.996      118.069       85.152       82.554    13940.290     7250.861     6815.244        3.433        1.400      194.312       70.012        0.130      338.618       11.389      863.192
10/13/2013  16:47:00      199.796      132.980       23.417       81.453       95.094       75.473     6634.601     9042.921     5696.179        3.976        1.069      240.005       48.421        0.041      338.539       11.257      863.198
10/13/2013  16:48:00      181.137      124.920       15.007       73.125       73.208       62.892     5347.196     5359.368     3955.420        3.165        0.733      220.036       48.760        0.049      338.579       11.324      863.227
10/13/2013  16:49:00      222.638      174.912       35.095      139.553       97.045       90.937    19474.950     9417.762     8269.589        5.927        1.858      283.129       64.220        0.051      338.549       11.274      863.243
10/13/2013  16:50:00      140.693      118.213       22.423      119.559       80.505       77.262    14294.391     6481.085     5969.484        3.050        1.337      183.763       60.416        0.108      338.610       11.376      863.238
10/13/2013  16:51:00       95.626      221.926      -11.874      109.687      133.315       92.471    12031.292    17772.842     8550.968        4.844        1.918      241.652       79.863        0.109      338.526       11.235      863.266
10/13/2013  16:52:00      136.509      184.471       10.364      114.921      114.708       86.713    13206.925    13157.833     7519.178        4.332        1.694      229.487       68.859        0.090      338.514       11.214      863.267
10/13/2013  16:53:00       27.711      244.352      -32.805       54.864       89.974       41.661     3010.090     8095.394     1735.620        3.719        0.642      245.918       43.004        0.031      338.560       11.291      863.280
10/13/2013  16:54:00       39.408      302.128      -22.210       89.383      170.966       72.581     7989.316    29229.541     5267.981        6.790        2.124      304.687       88.813        0.085      338.649       11.441      863.294
10/13/2013  16:55:00       71.414      158.518       -8.531      107.456      125.369       86.785    11546.704    15717.368     7531.567        3.254        1.740      173.862       79.193        0.207      338.610       11.377      863.294
10/13/2013  16:56:00      158.444      126.128       18.652      128.620       91.645       65.595    16543.213     8398.785     4302.742        3.530        1.462      202.516       42.939        0.045      338.612       11.380      863.290
10/13/2013  16:57:00      267.546      190.248       25.415      116.450       94.697       72.706    13560.696     8967.453     5286.145        6.811        1.391      328.291       50.962        0.024      338.607       11.371      863.292
10/13/2013  16:58:00       47.349      230.449      -19.873       74.249      101.541       60.365     5512.982    10310.641     3643.992        3.760        0.973      235.263       56.185        0.057      338.654       11.449      863.311
10/13/2013  16:59:00       69.107      165.838        6.690       97.076       89.002       64.352     9423.735     7921.439     4141.196        2.690        1.074      179.661       45.013        0.063      338.685       11.502      863.311
10/13/2013  17:00:00      161.463      184.394        5.807      114.689      104.417       87.564    13153.493    10902.893     7667.430        4.591        1.586      245.095       74.165        0.092      338.647       11.436      863.319
10/13/2013  17:01:00       53.000       98.886       -2.577       76.361       80.066       55.679     5830.938     6410.508     3100.099        1.396        0.767      112.194       49.667        0.196      338.788       11.677      863.327
10/13/2013  17:02:00       97.042       98.065        4.259       86.710       95.578       58.831     7518.586     9135.179     3461.092        1.958        1.006      137.963       46.806        0.115      338.724       11.569      863.324
10/13/2013  17:03:00      132.836       92.295       25.812      111.514       84.769       57.617    12435.362     7185.795     3319.714        2.488        1.147      161.752       34.430        0.045      338.669       11.476      863.328
10/13/2013  17:04:00       58.630       53.872       15.143       89.342       47.369       42.478     7981.957     2243.805     1804.416        0.930        0.602       79.622       17.881        0.050      338.734       11.586      863.345
10/13/2013  17:05:00       96.417      151.310       12.458      108.163      102.607       82.928    11699.324    10528.197     6876.997        3.072        1.455      179.418       70.697        0.155      338.695       11.518      863.355
10/13/2013  17:06:00       66.320      138.244        0.998       81.650       83.313       55.064     6666.730     6941.015     3031.994        2.007        0.832      153.329       48.110        0.098      338.805       11.705      863.334
10/13/2013  17:07:00      178.236       96.510       22.413      109.201       83.553       67.256    11924.877     6981.158     4523.339        3.250        1.171      202.688       39.121        0.037      338.740       11.593      863.348
10/13/2013  17:08:00      218.025      176.128       19.708      139.402       98.626       82.844    19432.877     9727.012     6863.046        5.748        1.801      280.278       44.177        0.025      338.623       11.397      863.375
10/13/2013  17:09:00      180.161      179.249       12.680      131.421       82.872       67.218    17271.361     6867.788     4518.200        4.670        1.433      254.142       48.962        0.037      338.595       11.351      863.393
10/13/2013  17:10:00      180.006      128.075       33.421      100.204       55.514       40.098    10040.912     3081.770     1607.823        3.232        0.737      220.920       30.848        0.019      338.590       11.343      863.424
10/13/2013  17:11:00      127.845       78.416       23.819       87.525       57.628       47.185     7660.602     3320.935     2226.395        1.813        0.660      149.978       23.334        0.024      338.624       11.400      863.436
10/13/2013  17:12:00      155.806      118.045       15.217      104.017       79.615       57.061    10819.583     6338.545     3255.906        2.942        1.021      195.475       45.630        0.054      338.584       11.332      863.444
10/13/2013  17:13:00      156.351      127.905       37.702      117.607       94.663       89.315    13831.300     8961.022     7977.170        3.649        1.538      202.003       71.391        0.125      338.553       11.282      863.434
10/13/2013  17:14:00      153.154      141.121       -3.441       84.124       73.455       55.075     7076.930     5395.628     3033.233        2.944        0.775      208.258       41.483        0.040      338.562       11.296      863.435
10/13/2013  17:15:00      120.313      168.278      -10.370       96.075       89.895       66.781     9230.342     8081.107     4459.744        3.233        1.089      206.864       62.345        0.091      338.563       11.297      863.455
10/13/2013  17:16:00       56.035      195.027      -12.547       94.400      145.195       64.935     8911.430    21081.503     4216.585        3.776        1.710      202.917       72.388        0.127      338.505       11.201      863.454
10/13/2013  17:17:00       57.595      239.140       -8.393       74.867      153.765       76.457     5605.072    23643.524     5845.659        4.783        1.755      245.978       86.156        0.123      338.508       11.206      863.473
10/13/2013  17:18:00      106.263      105.018        4.969       93.035       90.256       60.555     8655.530     8146.059     3666.876        2.140        1.023      149.401       51.912        0.121      338.499       11.190      863.474
10/13/2013  17:19:00      108.226      122.576        7.401       91.547       78.239       55.816     8380.897     6121.390     3115.455        2.220        0.881      163.517       42.152        0.066      338.516       11.219      863.482
10/13/2013  17:20:00       82.817      164.727       -1.757       94.863      156.238       82.543     8999.027    24410.235     6813.331        3.710        2.011      184.374       90.688        0.242      338.495       11.183      863.499
10/13/2013  17:21:00       92.990      218.372       -4.523      116.380      163.182       95.815    13544.334    26628.383     9180.596        5.284        2.468      237.346      107.106        0.204      338.463       11.129      863.517
10/13/2013  17:22:00       42.351      300.499      -30.901       64.916      183.529       73.151     4214.118    33682.888     5351.137        6.814        2.162      303.469       95.089        0.098      338.459       11.121      863.524
10/13/2013  17:23:00      113.866       98.059       25.521      105.791       90.109       69.600    11191.715     8119.562     4844.226        2.369        1.208      150.270       52.768        0.123      338.455       11.116      863.553
10/13/2013  17:24:00      124.885       82.288       18.131       88.208       50.636       50.172     7780.652     2564.026     2517.265        1.778        0.643      149.558       32.730        0.048      338.461       11.127      863.558
10/13/2013  17:25:00      222.675      181.364       16.091      122.870       78.324       68.016    15096.948     6134.711     4626.237        5.429        1.293      287.188       53.898        0.035      338.399       11.020      863.561
10/13/2013  17:26:00      205.807      190.099       21.919      138.317      110.633      102.121    19131.523    12239.769    10428.606        6.038        2.090      280.168       63.135        0.051      338.395       11.015      863.560
10/13/2013  17:27:00      148.846      106.046       14.183       93.307       69.921       58.651     8706.108     4888.993     3439.972        2.532        0.852      182.759       36.325        0.040      338.389       11.004      863.582
10/13/2013  17:28:00       77.854       55.488       24.838       76.785       56.578       37.621     5895.890     3201.092     1415.343        1.013        0.526       95.604       18.858        0.039      338.393       11.012      863.597
10/13/2013  17:29:00       76.645      103.946       -6.074       58.142       66.001       45.832     3380.441     4356.067     2100.567        1.327        0.492      129.148       43.630        0.114      338.368       10.971      863.597
10/13/2013  17:30:00      134.224      112.161       35.103      110.868       60.440       53.659    12291.763     3652.949     2879.333        2.532        0.941      174.918       38.290        0.048      338.355       10.950      863.588
10/13/2013  17:31:00       87.369       93.578       -1.056       82.554       44.656       37.974     6815.201     1994.157     1441.988        1.332        0.513      128.025       23.226        0.033      338.338       10.920      863.598
10/13/2013  17:32:00      280.735      147.516       26.493      148.079      104.368       71.812    21927.461    10892.669     5156.994        6.962        1.899      317.133       57.197        0.033      338.315       10.881      863.585
10/13/2013  17:33:00      120.875      206.114       -7.791      113.534      122.292       63.738    12890.024    14955.259     4062.556        4.452        1.595      238.943       74.954        0.098      338.310       10.874      863.604
10/13/2013  17:34:00      112.890      146.221        8.159      105.866       72.227       65.496    11207.715     5216.669     4289.684        2.745        1.036      184.728       53.848        0.085      338.307       10.868      863.609
10/13/2013  17:35:00      187.010      140.827       32.458      154.818      109.853       71.645    23968.698    12067.664     5132.991        4.851        2.058      234.105       57.176        0.060      338.271       10.806      863.600
10/13/2013  17:36:00      204.138      142.847       24.606      140.883       91.974       74.748    19848.028     8459.211     5587.279        4.828        1.695      249.154       40.028        0.026      338.263       10.792      863.578
10/13/2013  17:37:00      281.019      206.232       22.940      152.213      109.614       73.780    23168.899    12015.186     5443.466        8.132        2.031      348.573       44.793        0.017      338.277       10.817      863.571
10/13/2013  17:38:00      152.623      128.690       25.300      121.638       90.177       70.664    14795.906     8131.829     4993.449        3.420        1.396      199.637       55.139        0.076      338.272       10.809      863.572
10/13/2013  17:39:00      188.194      147.634       24.152      122.200       96.699       76.512    14932.855     9350.739     5854.152        4.396        1.507      239.192       45.683        0.036      338.288       10.837      863.582
10/13/2013  17:40:00       83.608       71.385       14.253       71.929       68.014       50.709     5173.805     4625.940     2571.399        1.233        0.619      109.937       43.749        0.158      338.276       10.819      863.592
10/13/2013  17:41:00       65.626       78.274       16.253       52.327       58.515       45.442     2738.107     3424.003     2064.989        0.946        0.411      102.145       38.533        0.142      338.274       10.814      863.609
10/13/2013  17:42:00       43.678      131.044       11.781      114.611      121.306       69.476    13135.688    14715.042     4826.984        2.594        1.634      138.132       68.099        0.243      338.267       10.801      863.615
10/13/2013  17:43:00       80.586      196.381       -7.819       85.271      118.964       69.519     7271.112    14152.423     4832.833        3.568        1.313      212.273       60.462        0.081      338.233       10.744      863.626
10/13/2013  17:44:00      117.955      213.713       -7.345      125.553      125.108       82.514    15763.513    15652.034     6808.511        4.892        1.911      244.104       71.378        0.086      338.207       10.699      863.632
10/13/2013  17:45:00      123.354      132.561       13.118      112.790       76.376       60.576    12721.529     5833.362     3669.488        2.759        1.111      181.076       49.461        0.075      338.200       10.688      863.626
10/13/2013  17:46:00       66.498       96.661        2.437       73.478       85.837       54.149     5398.984     7367.953     2932.128        1.473        0.785      117.326       53.681        0.209      338.176       10.648      863.622
10/13/2013  17:47:00      150.794      149.549        5.292      118.577       72.135       64.618    14060.600     5203.500     4175.519        3.428        1.172      212.376       39.010        0.034      338.165       10.629      863.627
10/13/2013  17:48:00      100.556      146.832       -0.190       93.661       98.420       68.376     8772.349     9686.433     4675.324        2.740        1.157      177.964       62.903        0.125      338.163       10.625      863.635
10/13/2013  17:49:00      187.372      127.708       13.954      128.935      100.611       65.910    16624.281    10122.622     4344.086        4.135        1.555      226.755       43.993        0.038      338.163       10.623      863.636
10/13/2013  17:50:00      156.991      131.055        9.508      113.768       97.142       65.224    12943.209     9436.518     4254.139        3.427        1.332      204.504       54.613        0.071      338.149       10.601      863.640
10/13/2013  17:51:00      106.836       83.273       11.144       64.715       53.551       56.268     4188.006     2867.670     3166.059        1.435        0.511      135.456       27.394        0.041      338.127       10.565      863.658
10/13/2013  17:52:00      110.915      111.553       16.455       97.206       67.892       51.945     9449.098     4609.291     2698.325        2.088        0.838      157.309       40.693        0.067      338.111       10.538      863.671
10/13/2013  17:53:00       66.578      111.318        2.595       76.442       56.905       52.466     5843.418     3238.153     2752.704        1.433        0.592      129.709       39.508        0.093      338.136       10.581      863.678
10/13/2013  17:54:00       61.194       57.727       21.347       73.094       51.415       35.412     5342.691     2643.459     1253.992        0.838        0.462       84.126       21.133        0.063      338.120       10.554      863.676
10/13/2013  17:55:00      141.499       86.457       11.837       48.081       36.293       34.069     2311.760     1317.195     1160.687        1.621        0.239      165.821       10.900        0.004      338.122       10.558      863.677
10/13/2013  17:56:00       90.476       60.970       26.648       71.835       56.037       44.609     5160.284     3140.188     1989.929        1.145        0.515      109.102       33.671        0.095      338.119       10.553      863.685
10/13/2013  17:57:00       52.098       23.285       14.049       49.373       37.075       25.191     2437.738     1374.563      634.597        0.395        0.222       57.065       11.958        0.044      338.063       10.461      863.709
10/13/2013  17:58:00      105.156       91.791       15.000       64.796       57.434       54.944     4198.499     3298.680     3018.838        1.511        0.526      139.582       38.758        0.077      338.115       10.546      863.718
10/13/2013  17:59:00       83.678      117.706       -5.321       76.826       80.755       65.704     5902.296     6521.314     4317.020        1.881        0.837      144.418       57.827        0.160      338.135       10.579      863.723
10/13/2013  18:00:00       74.034       64.638       23.273       56.216       46.783       47.228     3160.238     2188.664     2230.509        0.889        0.379       98.281       34.293        0.122      338.121       10.557      863.733
10/13/2013  18:01:00       93.045       87.917       14.458      102.826       64.144       45.013    10573.128     4114.482     2026.165        1.665        0.836      128.011       30.759        0.058      338.104       10.528      863.744
10/13/2013  18:02:00       47.743      146.549      -14.146       83.433      103.807       61.049     6961.014    10775.904     3726.921        2.271        1.073      154.130       69.475        0.203      338.086       10.499      863.750
10/13/2013  18:03:00       97.837      154.933       -2.423      109.228      108.576       72.972    11930.652    11788.835     5324.908        3.131        1.452      183.238       66.384        0.131      338.112       10.540      863.743
10/13/2013  18:04:00       55.432      131.163      -10.251       67.649       92.175       57.575     4576.320     8496.311     3314.896        1.838        0.819      142.395       55.732        0.153      338.089       10.502      863.753
10/13/2013  18:05:00       44.917      132.545       -4.462       63.641      113.575       54.783     4050.128    12899.247     3001.161        1.977        0.998      139.949       54.149        0.150      338.061       10.454      863.742
10/13/2013  18:06:00       68.906      108.497       -5.736       69.175       73.507       57.102     4785.169     5403.223     3260.605        1.500        0.672      128.529       47.519        0.137      338.065       10.464      863.752
10/13/2013  18:07:00      140.769      122.255       19.583       89.679       72.052       62.734     8042.305     5191.454     3935.600        2.615        0.858      186.446       47.549        0.065      338.065       10.462      863.747
10/13/2013  18:08:00      178.946      150.073       31.072      133.148       83.261       67.577    17728.419     6932.380     4566.644        4.236        1.461      233.546       59.580        0.065      338.088       10.501      863.747
10/13/2013  18:09:00      138.050      140.986       16.276      112.690      103.004       59.721    12699.141    10609.844     3566.564        3.303        1.344      197.319       53.217        0.073      338.088       10.500      863.743
10/13/2013  18:10:00      116.264      106.522       17.594       75.051       65.766       47.883     5632.671     4325.226     2292.737        1.871        0.613      157.684       33.362        0.045      338.078       10.484      863.755
10/13/2013  18:11:00       83.365       87.097       14.614       90.277       69.974       53.570     8149.872     4896.363     2869.784        1.533        0.796      120.564       31.885        0.070      338.035       10.413      863.764
10/13/2013  18:12:00      129.403      140.094        8.422       84.174       84.392       48.811     7085.240     7122.057     2382.534        2.651        0.829      190.713       39.508        0.043      338.053       10.442      863.762
10/13/2013  18:13:00       54.666       87.485        1.031       58.585       45.905       42.689     3432.251     2107.289     1822.342        0.900        0.368      103.160       34.437        0.111      338.031       10.406      863.758
10/13/2013  18:14:00      116.444      164.596        3.756      103.899      100.542       62.827    10794.901    10108.657     3947.223        3.275        1.243      201.621       62.893        0.097      338.073       10.475      863.765
10/13/2013  18:15:00       55.251      168.368       -3.931       76.470      101.160       60.992     5847.729    10233.254     3720.002        2.560        0.990      177.202       58.428        0.109      338.025       10.394      863.784
10/13/2013  18:16:00       69.378      133.978      -15.774       80.618       83.296       62.865     6499.280     6938.219     3952.070        2.020        0.869      150.875       51.360        0.116      338.014       10.378      863.805
10/13/2013  18:17:00       77.302      207.155       -2.733       75.641      138.099       81.439     5721.608    19071.300     6632.266        4.015        1.571      221.108       85.060        0.148      338.035       10.412      863.835
10/13/2013  18:18:00       65.034      183.094       -2.076       76.535      127.069       72.842     5857.537    16146.596     5305.896        3.253        1.366      194.301       71.269        0.135      338.032       10.408      863.850
10/13/2013  18:19:00       55.392      158.945      -10.401       77.795       96.949       65.959     6052.092     9399.067     4350.632        2.412        0.990      168.321       59.173        0.124      338.015       10.379      863.862
10/13/2013  18:20:00      148.484      106.450       22.742       97.888       59.910       54.762     9582.045     3589.203     2998.926        2.503        0.809      182.699       33.508        0.034      338.025       10.394      863.887
10/13/2013  18:21:00      110.839      108.101       28.019       80.386       59.320       54.915     6461.860     3518.888     3015.624        1.887        0.650      154.827       41.996        0.074      337.982       10.324      863.907
10/13/2013  18:22:00       57.014       60.296        3.503       57.694       61.270       39.672     3328.635     3753.973     1573.903        0.778        0.433       82.983       34.780        0.176      337.938       10.251      863.925
10/13/2013  18:23:00       34.187       90.422        2.399       56.470       61.334       34.138     3188.835     3761.809     1165.371        0.873        0.406       96.669       32.647        0.114      337.934       10.243      863.953
10/13/2013  18:24:00       28.757       92.071        5.565       43.105       60.861       32.960     1858.041     3704.062     1086.382        0.799        0.332       96.458       27.869        0.083      337.919       10.218      863.964
10/13/2013  18:25:00      113.466       90.543       15.333       87.366       66.519       43.171     7632.878     4424.759     1863.771        1.761        0.696      145.164       36.945        0.065      337.937       10.247      863.976
10/13/2013  18:26:00       29.639      207.928      -21.898       67.741      103.867       63.149     4588.888    10788.292     3987.786        3.197        0.968      210.030       59.705        0.081      337.943       10.257      863.975
10/13/2013  18:27:00      100.456      122.951        5.982       79.299       69.573       65.259     6288.308     4840.435     4258.737        2.031        0.769      158.771       53.372        0.113      337.914       10.207      863.993
10/13/2013  18:28:00       73.178       87.443        6.576       76.958       59.607       49.655     5922.530     3552.947     2465.579        1.249        0.597      114.023       40.010        0.123      337.889       10.166      864.003
10/13/2013  18:29:00       62.654       85.465       -4.952       51.556       42.316       31.951     2658.004     1790.602     1020.853        0.836        0.273      105.970       23.592        0.050      337.854       10.109      864.007
10/13/2013  18:30:00       68.967       92.871       17.139       70.530       63.078       51.096     4974.521     3978.843     2610.830        1.262        0.578      115.679       40.448        0.122      337.859       10.115      864.011
10/13/2013  18:31:00       64.362      178.702      -19.694       63.377       96.700       47.538     4016.706     9350.811     2259.825        2.604        0.781      189.940       44.967        0.056      337.854       10.108      864.023
10/13/2013  18:32:00       47.731       93.292       -0.659       60.183       60.991       42.112     3622.051     3719.934     1773.432        1.005        0.456      104.794       37.726        0.130      337.812       10.038      864.030
10/13/2013  18:33:00       38.800       86.671       -7.552       31.945       37.042       28.444     1020.484     1372.147      809.062        0.614        0.160       94.960       24.162        0.065      337.830       10.070      864.037
10/13/2013  18:34:00       34.493       62.780       -3.484       47.063       38.969       30.164     2214.903     1518.556      909.846        0.489        0.232       71.632       25.859        0.130      337.817       10.047      864.051
10/13/2013  18:35:00       57.262       56.009       10.883       50.468       41.668       36.553     2547.054     1736.258     1336.138        0.608        0.281       80.099       23.899        0.089      337.784        9.992      864.055
10/13/2013  18:36:00       46.378       75.126       -1.209       50.636       51.971       34.940     2564.031     2700.962     1220.837        0.714        0.324       88.288       29.789        0.114      337.794       10.009      864.057
10/13/2013  18:37:00       42.428      124.661       -6.091       40.368       88.865       43.879     1629.596     7896.982     1925.397        1.441        0.573      131.683       47.765        0.132      337.789        9.999      864.062
10/13/2013  18:38:00       70.151      114.948       -9.054       52.820       69.971       42.773     2789.948     4895.893     1829.537        1.386        0.476      134.664       39.174        0.085      337.781        9.986      864.065
10/13/2013  18:39:00       57.913       72.225        4.517       53.198       47.252       35.164     2830.035     2232.757     1236.536        0.744        0.315       92.576       28.873        0.097      337.724        9.890      864.072
10/13/2013  18:40:00      121.148       87.345       10.940       61.662       42.364       35.403     3802.247     1794.739     1253.394        1.464        0.343      149.352       27.189        0.033      337.725        9.893      864.080
10/13/2013  18:41:00       49.870      128.249       -8.498       48.023       83.707       43.574     2306.215     7006.866     1898.681        1.511        0.561      137.604       45.702        0.110      337.693        9.839      864.076
10/13/2013  18:42:00       77.128      168.651       -1.945       73.221      115.475       66.870     5361.336    13334.570     4471.637        2.878        1.158      185.450       75.307        0.165      337.726        9.892      864.080
10/13/2013  18:43:00       69.588      140.169        4.446       74.255       77.418       61.064     5513.778     5993.496     3728.829        1.987        0.762      156.492       54.723        0.122      337.746        9.928      864.094
10/13/2013  18:44:00       51.134      126.996       -7.122       80.483       69.923       45.380     6477.572     4889.254     2059.318        1.611        0.671      136.904       41.742        0.093      337.728        9.898      864.105
10/13/2013  18:45:00       80.248      181.199        3.031       76.054      110.008       75.290     5784.199    12101.843     5668.637        3.141        1.178      198.174       77.419        0.153      337.736        9.910      864.119
10/13/2013  18:46:00       54.554      137.301       -5.065       76.236      103.489       65.066     5811.889    10709.966     4233.646        2.130        1.038      147.742       68.016        0.212      337.718        9.879      864.134
10/13/2013  18:47:00       23.324      196.635      -14.151       59.615      133.837       52.856     3553.923    17912.436     2793.746        3.183        1.213      198.013       61.514        0.097      337.699        9.849      864.157
10/13/2013  18:48:00       54.838      133.696       -3.911       55.421       79.491       53.027     3071.522     6318.798     2811.887        1.655        0.610      144.505       49.505        0.117      337.681        9.818      864.180
10/13/2013  18:49:00       43.885       81.769        8.967       64.100       64.032       45.932     4108.867     4100.126     2109.780        0.950        0.516       92.801       34.218        0.136      337.670        9.801      864.191
10/13/2013  18:50:00       28.693      144.949       -8.333       51.166      112.587       51.675     2617.959    12675.791     2670.348        1.993        0.898      147.762       55.049        0.139      337.672        9.803      864.204
10/13/2013  18:51:00       37.980      110.441       -3.820       71.724       74.244       46.589     5144.352     5512.194     2170.520        1.324        0.641      116.789       42.779        0.134      337.647        9.760      864.219
10/13/2013  18:52:00       28.718      144.616       -7.809       55.366       84.865       42.353     3065.344     7202.084     1793.802        1.693        0.603      147.440       34.568        0.055      337.658        9.778      864.230
10/13/2013  18:53:00       22.483      152.244       -9.747       45.201       89.182       42.941     2043.103     7953.355     1843.923        1.781        0.592      153.895       47.974        0.097      337.629        9.732      864.250
10/13/2013  18:54:00       88.911      120.976       -4.949       62.401       72.173       48.010     3893.882     5208.995     2304.954        1.698        0.570      150.135       43.240        0.083      337.617        9.712      864.263
10/13/2013  18:55:00       92.978      124.616       -2.425       96.225       84.622       62.771     9259.315     7160.868     3940.229        2.227        1.018      155.480       54.621        0.123      337.640        9.749      864.260
10/13/2013  18:56:00       46.363      103.062       -4.686       48.685       78.394       43.980     2370.249     6145.620     1934.257        1.162        0.523      113.010       50.315        0.198      337.603        9.688      864.286
10/13/2013  18:57:00       64.801      135.889       12.030       53.810       96.866       69.681     2895.516     9383.000     4855.486        1.997        0.857      150.549       64.074        0.181      337.624        9.723      864.295
10/13/2013  18:58:00       33.853      129.863       -2.800       62.159      101.183       59.002     3863.780    10238.003     3481.212        1.780        0.879      134.203       55.489        0.171      337.598        9.680      864.312
10/13/2013  18:59:00       44.311      153.353       -5.530       54.246      120.596       48.362     2942.644    14543.308     2338.897        2.266        0.991      159.627       58.691        0.135      337.603        9.685      864.327
10/13/2013  19:00:00       52.621      105.308        1.733       62.178       75.788       53.420     3866.152     5743.827     2853.732        1.316        0.623      117.723       51.099        0.188      337.563        9.620      864.336
10/13/2013  19:01:00       52.373      117.946       -3.807       69.656       90.499       57.042     4851.962     8190.024     3253.738        1.648        0.815      129.051       56.004        0.188      337.562        9.617      864.337
10/13/2013  19:02:00       48.216      104.811       -0.547       72.298       89.976       57.858     5227.017     8095.664     3347.494        1.499        0.834      115.370       49.835        0.187      337.539        9.579      864.342
10/13/2013  19:03:00       83.571      136.994        2.616       72.520      105.278       72.650     5259.125    11083.555     5278.072        2.369        1.081      160.473       64.552        0.162      337.562        9.618      864.348
10/13/2013  19:04:00       44.223       94.932        1.124       76.791       62.944       50.839     5896.856     3961.933     2584.633        1.170        0.622      104.727       38.858        0.138      337.531        9.567      864.351
10/13/2013  19:05:00       54.804      115.881        1.858       63.756       92.297       47.921     4064.864     8518.746     2296.457        1.565        0.744      128.187       42.968        0.112      337.529        9.564      864.376
10/13/2013  19:06:00       94.756      107.004        2.760       65.836       68.508       55.619     4334.320     4693.325     3093.437        1.628        0.606      142.928       46.348        0.105      337.528        9.563      864.389
10/13/2013  19:07:00       87.040      122.567       10.961       80.757       96.947       65.551     6521.707     9398.689     4296.940        2.146        1.011      150.328       60.502        0.162      337.537        9.577      864.427
10/13/2013  19:08:00       44.538      192.038      -31.664       58.390       63.543       44.716     3409.334     4037.668     1999.495        2.465        0.472      197.135       36.001        0.033      337.543        9.584      864.448
10/13/2013  19:09:00       18.831      158.798       -8.406       52.983       90.047       44.295     2807.190     8108.538     1962.057        1.926        0.644      159.910       43.081        0.073      337.508        9.528      864.472
10/13/2013  19:10:00       34.816      191.479      -24.919       56.928      103.436       47.507     3240.746    10698.921     2256.940        2.734        0.810      194.619       57.743        0.088      337.561        9.616      864.489
10/13/2013  19:11:00       39.762      133.972       -4.229       48.136       79.631       46.901     2317.075     6341.065     2199.743        1.520        0.543      139.748       50.109        0.129      337.510        9.531      864.501
10/13/2013  19:12:00       69.669      122.935      -10.578       54.095      114.114       56.396     2926.215    13021.918     3180.478        1.960        0.956      141.304       62.605        0.196      337.565        9.624      864.495
10/13/2013  19:13:00       47.918      172.623       -1.482       58.080      106.312       66.595     3373.240    11302.291     4434.913        2.560        0.956      179.150       69.742        0.152      337.543        9.586      864.492
10/13/2013  19:14:00       66.176      135.031       -5.109       61.553       88.168       56.378     3788.741     7773.546     3178.426        1.869        0.737      150.375       55.199        0.135      337.530        9.564      864.494
10/13/2013  19:15:00       35.141      127.087      -14.220       43.741       65.892       40.653     1913.243     4341.766     1652.700        1.275        0.395      131.856       27.442        0.043      337.524        9.554      864.500
10/13/2013  19:16:00       32.345       99.017       -3.372       42.717       85.986       44.345     1824.705     7393.670     1966.501        1.102        0.559      104.166       45.063        0.187      337.490        9.498      864.524
10/13/2013  19:17:00       61.636      101.249        6.887       59.709       68.366       62.651     3565.164     4673.897     3925.126        1.313        0.608      118.534       45.447        0.147      337.469        9.462      864.521
10/13/2013  19:18:00       60.952      111.403       -7.856       57.913       64.065       43.385     3353.920     4104.316     1882.225        1.276        0.467      126.988       40.026        0.099      337.463        9.453      864.540
10/13/2013  19:19:00       67.179       56.895       11.937       51.428       37.754       35.639     2644.881     1425.359     1270.171        0.662        0.267       88.035       24.292        0.076      337.446        9.425      864.541
10/13/2013  19:20:00       31.792       83.530       -0.517       44.467       61.818       33.161     1977.295     3821.486     1099.623        0.744        0.345       89.376       33.810        0.143      337.428        9.394      864.551
10/13/2013  19:21:00       63.231       66.231       -9.036       53.885       50.827       26.664     2903.611     2583.341      710.987        0.733        0.310       91.568       18.724        0.042      337.431        9.400      864.559
10/13/2013  19:22:00       56.968      100.459       -7.803       39.801       54.590       37.081     1584.090     2980.061     1374.973        0.967        0.297      115.488       37.595        0.106      337.446        9.424      864.570
10/13/2013  19:23:00       64.171      102.151       -0.509       54.308       69.601       53.088     2949.306     4844.256     2818.367        1.258        0.531      120.635       48.659        0.163      337.412        9.367      864.592
10/13/2013  19:24:00       21.955      122.464      -19.969       40.114       80.384       35.898     1609.149     6461.617     1288.700        1.262        0.468      124.416       32.103        0.067      337.427        9.393      864.600
10/13/2013  19:25:00        4.815      112.008      -10.713       31.264       55.074       27.911      977.453     3033.180      779.034        0.874        0.239      112.112       28.093        0.063      337.407        9.360      864.603
10/13/2013  19:26:00       21.484      160.103      -16.823       50.254       47.499       34.508     2525.512     2256.178     1190.774        1.617        0.299      161.538       30.270        0.035      337.447        9.427      864.620
10/13/2013  19:27:00       29.205       91.915       -2.500       40.441       75.684       45.837     1635.469     5728.121     2101.018        0.938        0.473       96.443       46.144        0.229      337.387        9.326      864.620
10/13/2013  19:28:00        8.588      118.225       -6.438       44.262       67.241       36.441     1959.153     4521.327     1327.914        1.095        0.390      118.537       32.988        0.077      337.409        9.363      864.618
10/13/2013  19:29:00       26.426       91.544        3.999       47.110       67.713       41.789     2219.345     4585.031     1746.286        0.882        0.428       95.282       47.091        0.244      337.408        9.362      864.615
10/13/2013  19:30:00        2.093      173.266      -24.042       51.109       55.225       32.951     2612.112     3049.789     1085.792        1.867        0.337      173.279       32.804        0.036      337.505        9.522      864.613
10/13/2013  19:31:00       21.611      166.821      -18.097       48.839       97.933       41.753     2385.205     9590.919     1743.275        2.117        0.686      168.215       52.170        0.096      337.429        9.395      864.615
10/13/2013  19:32:00        9.723      161.690      -13.124       37.056       79.638       38.322     1373.132     6342.148     1468.542        1.780        0.459      161.983       42.916        0.070      337.476        9.474      864.633
10/13/2013  19:33:00       15.728      207.554      -33.585       33.732       29.494       18.334     1137.855      869.924      336.127        2.340        0.117      208.149       10.596        0.003      337.516        9.542      864.630
10/13/2013  19:34:00        8.353      188.913      -39.288       32.229       48.815       23.105     1038.715     2382.882      533.829        2.063        0.198      189.098       18.287        0.009      337.534        9.571      864.630
10/13/2013  19:35:00       -5.806      181.035      -22.267       50.866       54.598       25.130     2587.323     2980.922      631.513        1.975        0.310      181.128       22.390        0.015      337.553        9.603      864.641
10/13/2013  19:36:00        6.643      224.704      -29.340       39.277       59.852       28.096     1542.695     3582.243      789.404        2.865        0.296      224.802       28.425        0.016      337.605        9.689      864.640
10/13/2013  19:37:00        3.378      207.390      -25.661       42.327       48.205       23.674     1791.570     2323.743      560.449        2.418        0.234      207.418       24.892        0.014      337.606        9.693      864.632
10/13/2013  19:38:00       12.219      161.664      -24.695       24.542       42.544       21.862      602.310     1810.030      477.956        1.489        0.145      162.125       24.468        0.023      337.576        9.644      864.632
10/13/2013  19:39:00       -4.891      207.328      -25.583       32.728       48.689       19.325     1071.136     2370.646      373.469        2.374        0.191      207.385       18.915        0.008      337.657        9.778      864.639
10/13/2013  19:40:00       -2.667      160.218      -21.767       38.706       48.967       28.550     1498.183     2397.752      815.106        1.543        0.236      160.241       14.124        0.008      337.613        9.706      864.631
10/13/2013  19:41:00      -22.800      135.599      -22.474       42.403       56.185       25.442     1798.039     3156.795      647.272        1.251        0.280      137.502       28.407        0.043      337.700        9.851      864.633
10/13/2013  19:42:00      -34.455       96.531       -7.573       41.888       63.488       24.544     1754.587     4030.681      602.389        0.847        0.319      102.496       26.888        0.069      337.649        9.765      864.638
10/13/2013  19:43:00      -43.244       85.647      -10.427       47.466       48.124       25.832     2253.061     2315.902      667.296        0.727        0.262       95.945       24.236        0.064      337.703        9.857      864.630
10/13/2013  19:44:00      -35.350       99.098       -9.346       44.744       56.279       30.945     2002.062     3167.372      957.586        0.864        0.306      105.214       30.461        0.084      337.690        9.833      864.631
10/13/2013  19:45:00      -51.890      108.991      -11.734       41.176       38.147       25.410     1695.458     1455.189      645.647        0.925        0.190      120.713       24.370        0.041      337.739        9.916      864.631
10/13/2013  19:46:00      -46.470      164.829      -24.988       31.463       57.785       22.932      989.915     3339.106      525.858        1.740        0.243      171.255       24.499        0.020      337.742        9.921      864.628
10/13/2013  19:47:00      -28.317      158.112      -21.160       31.264       46.551       22.250      977.429     2167.018      495.076        1.494        0.182      160.628       19.542        0.015      337.703        9.856      864.630
10/13/2013  19:48:00      -34.864      123.583      -16.507       25.443       49.474       22.213      647.347     2447.684      493.397        1.017        0.179      128.407       24.083        0.035      337.749        9.934      864.645
10/13/2013  19:49:00      -35.920      128.200      -16.620       29.336       44.455       17.055      860.618     1976.234      290.886        1.056        0.156      133.137       20.144        0.023      337.774        9.976      864.653
10/13/2013  19:50:00      -29.882       78.095      -13.530       18.965       18.259       16.746      359.658      333.393      280.423        0.407        0.049       83.617       11.569        0.019      337.810       10.037      864.648
10/13/2013  19:51:00      -24.579      112.522      -12.166       27.403       44.750       20.589      750.949     2002.571      423.901        0.829        0.159      115.175       18.329        0.025      337.675        9.809      864.652
10/13/2013  19:52:00      -51.428       62.792      -14.257       26.072       34.022       14.635      679.736     1157.498      214.180        0.442        0.103       81.165       13.407        0.027      337.740        9.919      864.659
10/13/2013  19:53:00      -76.454       60.370      -20.714       24.339       36.089       13.788      592.383     1302.449      190.114        0.600        0.104       97.416        6.070        0.004      337.680        9.818      864.661
10/13/2013  19:54:00      -59.975       30.663      -10.224       35.110       55.866       18.245     1232.680     3121.020      332.867        0.466        0.234       67.359       18.173        0.073      337.635        9.742      864.659
10/13/2013  19:55:00     -100.931      -12.842      -14.544       22.949       17.550       13.462      526.656      308.001      181.220        0.579        0.051      101.745       13.328        0.017      337.395        9.340      864.666
10/13/2013  19:56:00     -140.227      -31.309      -19.880       32.008       23.986       18.147     1024.543      575.332      329.306        1.148        0.096      143.680       15.401        0.011      337.304        9.186      864.678
10/13/2013  19:57:00     -118.580      -15.746      -18.232       23.099       28.070       15.437      533.583      787.907      238.294        0.810        0.078      119.621       10.718        0.008      337.261        9.118      864.682
10/13/2013  19:58:00     -122.152        6.881      -15.966       40.032       49.345       28.536     1602.586     2434.904      814.300        1.004        0.243      122.345       23.794        0.038      337.315        9.207      864.677
10/13/2013  19:59:00      -96.337       22.666      -22.486       22.266       28.802       23.321      495.788      829.555      543.863        0.608        0.093       98.968       15.289        0.024      337.389        9.331      864.668
10/13/2013  20:00:00     -116.388       11.584      -14.951       27.441       29.359       20.985      753.012      861.941      440.356        0.798        0.103      116.963       15.653        0.018      337.402        9.352      864.664
10/13/2013  20:01:00      -57.434      -21.285       -3.385       26.834       27.071       17.116      720.069      732.828      292.953        0.275        0.087       61.251        8.675        0.020      337.385        9.324      864.660
10/13/2013  20:02:00      -66.985      -23.485       -7.121       22.302       18.043       11.277      497.395      325.543      127.164        0.302        0.048       70.983        8.475        0.014      337.345        9.257      864.659
10/13/2013  20:03:00      -30.937        6.554       -7.018       21.227       21.961       17.444      450.603      482.299      304.310        0.114        0.062       31.624       14.585        0.213      337.436        9.407      864.654
10/13/2013  20:04:00      -81.010        5.090      -16.402       24.439       32.316       16.029      597.270     1044.296      256.931        0.438        0.095       81.169       13.670        0.028      337.418        9.377      864.650
10/13/2013  20:05:00      -53.011      -13.603       -4.483       39.115       13.746        8.472     1530.017      188.942       71.783        0.240        0.090       54.728        8.152        0.022      337.339        9.246      864.654
10/13/2013  20:06:00      -86.854      -44.613      -12.561       22.700       14.574       14.217      515.289      212.401      202.110        0.531        0.046       97.642       12.667        0.017      337.253        9.101      864.664
10/13/2013  20:07:00      -98.458      -35.282      -11.961       19.549       18.571       13.018      382.164      344.887      169.468        0.599        0.045      104.589        6.670        0.004      337.206        9.022      864.676
10/13/2013  20:08:00     -120.081      -28.495       -8.488       20.472       20.661       13.261      419.105      426.877      175.847        0.816        0.051      123.416        9.505        0.006      337.133        8.901      864.683
10/13/2013  20:09:00      -86.666      -42.460       -4.619       21.887       26.443       12.959      479.033      699.223      167.942        0.534        0.067       96.508       10.046        0.011      337.127        8.891      864.690
10/13/2013  20:10:00      -67.213       -4.838      -10.759       16.302       24.699       13.039      265.759      610.036      170.007        0.285        0.052       67.387        9.557        0.020      337.152        8.933      864.696
10/13/2013  20:11:00      -57.662      -12.811       -5.422       29.238       18.005       12.868      854.884      324.184      165.595        0.243        0.067       59.069       10.306        0.030      337.243        9.088      864.699
10/13/2013  20:12:00      -77.754       -3.836      -12.016       23.154       21.693       14.514      536.094      470.601      210.650        0.371        0.061       77.849       13.247        0.029      337.183        8.985      864.695
10/13/2013  20:13:00     -100.695      -36.890       -8.655       32.954       18.500       17.448     1085.976      342.251      304.436        0.665        0.087      107.240       18.841        0.031      337.141        8.914      864.701
10/13/2013  20:14:00     -123.288      -17.164      -12.453       17.621       21.446       14.027      310.504      459.939      196.744        0.831        0.048      124.477        8.156        0.004      337.105        8.854      864.712
10/13/2013  20:15:00      -98.634       -6.253      -11.437       16.847       25.114       12.815      283.818      630.700      164.221        0.549        0.054       98.832       10.087        0.010      337.080        8.811      864.725
10/13/2013  20:16:00      -92.071      -18.583      -14.837       25.422       17.109       13.228      646.262      292.711      174.990        0.508        0.056       93.927        9.034        0.009      337.112        8.866      864.731
10/13/2013  20:17:00      -95.963        9.209       -7.807       36.113       24.114       17.720     1304.165      581.470      314.008        0.578        0.110       96.404       15.395        0.026      337.111        8.864      864.728
10/13/2013  20:18:00      -91.827        6.890       -8.297       28.540       17.506       22.765      814.556      306.449      518.238        0.509        0.082       92.085       22.023        0.057      337.216        9.041      864.724
10/13/2013  20:19:00      -84.886      -18.590       -4.856       18.318       18.826       15.473      335.561      354.436      239.426        0.425        0.046       86.898       10.593        0.015      337.160        8.946      864.723
10/13/2013  20:20:00      -83.428       13.014      -10.378       18.787       27.803       11.768      352.943      773.032      138.481        0.425        0.063       84.437       10.298        0.015      337.130        8.897      864.723
10/13/2013  20:21:00      -92.436        0.709       -8.959       24.533       24.081       12.961      601.851      579.914      167.984        0.499        0.067       92.439        9.821        0.011      337.136        8.906      864.728
10/13/2013  20:22:00      -63.164      -19.119       -4.786       22.018       18.185       17.516      484.772      330.684      306.821        0.275        0.056       65.994       12.833        0.038      337.098        8.842      864.730
10/13/2013  20:23:00      -47.156       -2.727       -6.875       41.562       17.473       18.066     1727.366      305.322      326.370        0.232        0.118       47.235       19.767        0.175      337.106        8.855      864.728
10/13/2013  20:24:00      -64.208       -2.444       -8.444       17.312       26.841       13.218      299.704      720.418      174.714        0.270        0.060       64.254        9.255        0.021      337.052        8.765      864.725
10/13/2013  20:25:00      -72.890       68.370      -14.073       32.237       47.406       22.536     1039.228     2247.308      507.881        0.699        0.190       99.937       25.179        0.063      337.094        8.835      864.731
10/13/2013  20:26:00      -79.116       79.020      -17.263       31.312       39.298       17.986      980.412     1544.332      323.500        0.782        0.142      111.819       16.963        0.023      337.113        8.868      864.725
10/13/2013  20:27:00     -104.941      109.220      -29.872       33.153       35.134       22.774     1099.105     1234.432      518.663        1.334        0.143      151.465       22.282        0.022      337.150        8.930      864.725
10/13/2013  20:28:00      -71.071       90.606      -18.765       28.520       29.458       18.579      813.379      867.783      345.173        0.782        0.101      115.154       15.679        0.019      337.107        8.858      864.737
10/13/2013  20:29:00      -52.399       68.301       -8.340       39.782       36.451       18.382     1582.645     1328.678      337.914        0.536        0.162       86.085       20.800        0.058      337.146        8.925      864.747
10/13/2013  20:30:00      -67.317       69.395      -15.869       22.990       31.000       13.522      528.551      960.976      182.842        0.564        0.084       96.681       13.843        0.021      337.094        8.836      864.760
10/13/2013  20:31:00      -50.395       23.158      -10.840       18.685       24.394       12.558      349.128      595.078      157.707        0.215        0.055       55.461       10.571        0.036      337.124        8.887      864.771
10/13/2013  20:32:00      -39.895      -11.405       -8.589       17.178       16.353       12.667      295.069      267.435      160.445        0.126        0.036       41.493        9.897        0.057      337.099        8.844      864.792
10/13/2013  20:33:00      -39.646       -6.621       -3.554        9.793       12.928       12.244       95.901      167.143      149.927        0.102        0.021       40.195        6.894        0.029      337.088        8.826      864.806
10/13/2013  20:34:00      -39.812      -31.851       -7.456       10.269       15.116        7.837      105.458      228.490       61.416        0.153        0.020       50.985        3.928        0.006      337.113        8.866      864.822
10/13/2013  20:35:00      -64.105      -22.004       -5.519       10.274       11.638       10.650      105.562      135.437      113.433        0.249        0.018       67.776        6.451        0.009      336.943        8.583      864.830
10/13/2013  20:36:00      -56.325      -21.647       -3.465       22.776       17.333        9.506      518.730      300.420       90.355        0.228        0.045       60.342        7.133        0.014      336.933        8.566      864.840
10/13/2013  20:37:00      -85.089      -28.685      -11.964       11.109       14.644       10.892      123.416      214.434      118.641        0.433        0.023       89.794        8.779        0.010      336.913        8.532      864.862
10/13/2013  20:38:00      -91.847      -38.502       -9.993       20.943       18.095        8.279      438.601      327.415       68.535        0.543        0.042       99.590        7.248        0.005      336.854        8.435      864.864
10/13/2013  20:39:00     -108.068      -51.172       -5.210       16.179       19.376       12.271      261.747      375.413      150.581        0.756        0.039      119.571        8.149        0.005      336.771        8.298      864.880
10/13/2013  20:40:00      -90.313      -59.426       -0.808       30.738       23.266       20.964      944.833      541.308      439.505        0.681        0.096      108.111       15.154        0.020      336.733        8.233      864.880
10/13/2013  20:41:00      -99.394      -54.558       -4.302       31.340       23.766       15.080      982.189      564.834      227.400        0.732        0.089      113.383       15.075        0.018      336.779        8.311      864.896
10/13/2013  20:42:00     -104.613      -56.236       -7.333       17.782       22.306       16.842      316.198      497.560      283.657        0.763        0.055      118.770       13.282        0.013      336.789        8.327      864.915
10/13/2013  20:43:00     -120.098      -34.793       -5.372       28.357       16.977       15.397      804.100      288.204      237.066        0.850        0.066      125.036       11.690        0.009      336.755        8.269      864.930
10/13/2013  20:44:00      -73.674      -29.274        4.306       34.628       26.337       17.691     1199.116      693.642      312.956        0.425        0.110       79.277       11.760        0.022      336.743        8.251      864.930
10/13/2013  20:45:00      -84.115      -27.894        2.529       41.770       25.640       18.641     1744.751      657.415      347.492        0.530        0.137       88.620       20.129        0.052      336.740        8.246      864.930
10/13/2013  20:46:00      -90.284      -53.310      -10.801       29.741       18.084       13.096      884.511      327.020      171.502        0.625        0.069      104.848        8.286        0.006      336.801        8.347      864.939
10/13/2013  20:47:00      -85.377      -42.885        0.002       47.896       35.200       20.326     2294.040     1239.030      413.147        0.654        0.197       95.542       20.890        0.048      336.665        8.120      864.947
10/13/2013  20:48:00      -62.310      -40.787       -0.589       31.339       25.815       19.005      982.136      666.400      361.174        0.378        0.100       74.472       14.465        0.038      336.726        8.221      864.962
10/13/2013  20:49:00      -78.539      -49.042        4.998       29.176       24.397       19.666      851.249      595.209      386.733        0.522        0.092       92.593       17.644        0.036      336.686        8.156      864.985
10/13/2013  20:50:00     -113.861      -42.844       -0.956       25.507       22.749       18.186      650.595      517.507      330.721        0.815        0.075      121.655       10.633        0.008      336.687        8.157      865.001
10/13/2013  20:51:00     -103.079      -29.589        3.031       39.567       27.969       21.210     1565.562      782.277      449.863        0.715        0.140      107.241       21.281        0.039      336.586        7.987      865.017
10/13/2013  20:52:00     -111.853      -66.896       -7.253       32.225       26.358       19.869     1038.428      694.724      394.791        0.958        0.106      130.331       14.231        0.012      336.693        8.167      865.044
10/13/2013  20:53:00     -113.987      -36.360      -11.038       23.645       25.508       13.764      559.101      650.673      189.450        0.792        0.070      119.646        5.034        0.002      336.663        8.118      865.056
10/13/2013  20:54:00      -81.296      -42.890        0.527       33.902       29.059       17.524     1149.332      844.444      307.090        0.537        0.115       91.916       14.030        0.023      336.591        7.995      865.066
10/13/2013  20:55:00     -121.860      -39.417       -1.019       45.063       38.656       24.738     2030.691     1494.265      611.958        1.027        0.207      128.076       26.201        0.042      336.537        7.906      865.072
10/13/2013  20:56:00     -122.911      -32.551       -4.423       26.393       27.581       19.073      696.588      760.738      363.777        0.900        0.091      127.149       15.856        0.016      336.536        7.904      865.083
10/13/2013  20:57:00     -108.037      -47.783       -2.407       55.704       29.987       18.547     3102.967      899.199      343.993        0.915        0.217      118.133       19.295        0.027      336.576        7.972      865.103
10/13/2013  20:58:00      -99.229      -42.807       -1.989       45.716       36.054       17.883     2089.975     1299.885      319.785        0.770        0.185      108.069       23.558        0.048      336.528        7.889      865.126
10/13/2013  20:59:00     -101.868      -40.598       -5.014       37.841       44.343       24.536     1431.954     1966.298      601.998        0.802        0.200      109.660       21.478        0.038      336.465        7.784      865.134
10/13/2013  21:00:00     -136.821      -59.754       -1.089       44.646       38.939       27.894     1993.274     1516.265      778.093        1.329        0.214      149.300       26.687        0.032      336.431        7.727      865.138
10/13/2013  21:01:00     -127.858      -50.627       -1.936       35.500       32.826       20.682     1260.242     1077.558      427.738        1.084        0.138      137.517       16.604        0.015      336.414        7.700      865.146
10/13/2013  21:02:00     -169.150      -50.065      -18.564       24.736       23.073       21.293      611.894      532.367      453.406        1.653        0.080      176.404       11.946        0.005      336.393        7.666      865.165
10/13/2013  21:03:00     -126.809      -42.108       -3.322       31.713       26.656       21.415     1005.732      710.538      458.605        1.002        0.109      133.617       18.099        0.018      336.348        7.589      865.188
10/13/2013  21:04:00      -96.863      -28.325        0.683       38.629       33.063       24.719     1492.181     1093.190      611.022        0.669        0.160      100.920       23.033        0.052      336.301        7.511      865.209
10/13/2013  21:05:00      -93.340      -31.560        0.328       39.230       25.570       18.548     1538.967      653.814      344.033        0.612        0.127       98.531       21.404        0.047      336.290        7.493      865.217
10/13/2013  21:06:00     -118.348      -22.640       -3.872       38.478       32.826       21.875     1480.569     1077.514      478.513        0.878        0.152      120.494       22.089        0.034      336.325        7.550      865.216
10/13/2013  21:07:00     -119.529      -55.796       -5.547       40.658       32.241       21.108     1653.113     1039.501      445.565        1.028        0.157      131.911       22.106        0.028      336.347        7.588      865.214
10/13/2013  21:08:00     -133.404      -38.620       -5.181       36.784       30.952       20.186     1353.087      958.049      407.475        1.102        0.136      138.882       18.227        0.017      336.276        7.468      865.218
10/13/2013  21:09:00     -124.164      -43.080      -12.402       32.848       24.634       17.396     1078.996      606.820      302.629        0.971        0.099      131.425       17.775        0.018      336.297        7.504      865.208
10/13/2013  21:10:00     -121.690      -35.503       -0.289       43.310       28.661       19.220     1875.795      821.437      369.402        0.957        0.153      126.764       18.098        0.020      336.307        7.522      865.200
10/13/2013  21:11:00     -123.450      -43.553       -0.231       26.094       29.970       14.197      680.876      898.180      201.543        0.946        0.089      130.907       14.478        0.012      336.266        7.451      865.201
10/13/2013  21:12:00     -112.661      -39.683        0.341       40.170       31.885       18.161     1613.656     1016.630      329.810        0.861        0.148      119.445       17.735        0.022      336.319        7.541      865.207
10/13/2013  21:13:00     -103.671      -39.803       -0.711       21.932       20.819       13.495      481.011      433.420      182.103        0.671        0.055      111.049        9.515        0.007      336.342        7.580      865.209
10/13/2013  21:14:00      -74.549      -13.242       -3.296       35.448       22.855       18.180     1256.571      522.338      330.496        0.393        0.105       75.716       17.571        0.054      336.255        7.434      865.217
10/13/2013  21:15:00      -97.657      -26.853       -7.576       20.595       17.480       13.177      424.135      305.564      173.642        0.561        0.045      101.281        6.668        0.004      336.273        7.463      865.225
10/13/2013  21:16:00      -92.393        0.829       -4.814       29.569       25.331       14.768      874.340      641.657      218.081        0.515        0.087       92.397       14.930        0.026      336.261        7.443      865.247
10/13/2013  21:17:00     -116.987       15.698      -15.656       31.531       17.941       14.050      994.177      321.863      197.415        0.785        0.076      118.036        9.257        0.006      336.230        7.391      865.261
10/13/2013  21:18:00      -72.979      -17.402       -0.891       19.730       19.204       13.982      389.256      368.789      195.502        0.329        0.048       75.025        9.914        0.017      336.233        7.397      865.261
10/13/2013  21:19:00      -77.172      -23.834        1.427       20.326       16.796       11.802      413.131      282.105      139.279        0.368        0.042       80.768        6.332        0.006      336.220        7.376      865.255
10/13/2013  21:20:00      -86.110      -19.747       -4.820       16.694       13.528       11.018      278.691      183.019      121.392        0.421        0.029       88.345        8.632        0.010      336.195        7.335      865.269
10/13/2013  21:21:00      -72.014      -26.253      -14.212       14.814       13.796        9.996      219.454      190.331       99.923        0.329        0.025       76.650        6.718        0.008      336.210        7.359      865.273
10/13/2013  21:22:00      -86.844      -13.561      -11.865       24.805       19.263       10.359      615.306      371.051      107.300        0.448        0.055       87.897        7.679        0.008      336.151        7.261      865.273
10/13/2013  21:23:00      -91.786      -26.121       -9.779       27.623       18.996       15.199      763.030      360.839      231.020        0.528        0.068       95.431       10.213        0.011      336.097        7.168      865.278
10/13/2013  21:24:00      -94.706      -11.162       -9.617       31.795       34.454       17.424     1010.927     1187.049      303.610        0.584        0.125       95.361       17.373        0.033      335.953        6.930      865.287
10/13/2013  21:25:00      -95.582      -27.921       -4.729       35.831       23.474       16.769     1283.884      551.013      281.210        0.603        0.106       99.576       19.313        0.038      335.925        6.882      865.289
10/13/2013  21:26:00      -59.407      -13.964      -10.684       39.564       28.669       17.445     1565.274      821.912      304.345        0.326        0.135       61.026       21.671        0.126      335.943        6.912      865.290
10/13/2013  21:27:00      -76.993       -8.467      -13.347       24.514       21.747       16.240      600.934      472.932      263.750        0.376        0.067       77.457       14.026        0.033      335.894        6.833      865.294
10/13/2013  21:28:00      -87.475      -28.205      -11.354       25.867       22.736       14.770      669.116      516.920      218.144        0.499        0.070       91.910        9.153        0.010      335.880        6.809      865.318
10/13/2013  21:29:00      -92.209      -21.766      -19.652       24.046       21.349       13.237      578.231      455.762      175.227        0.529        0.060       94.744        9.798        0.011      335.915        6.865      865.323
10/13/2013  21:30:00     -103.105      -28.108      -13.204       21.907       22.018       14.115      479.908      484.785      199.224        0.638        0.058      106.868       10.055        0.009      335.868        6.788      865.321
10/13/2013  21:31:00      -85.529      -21.235      -10.059       24.574       25.183       14.671      603.862      634.195      215.238        0.466        0.073       88.125       13.000        0.022      335.848        6.755      865.315
10/13/2013  21:32:00      -68.745      -13.093      -16.327       17.126       12.922       10.859      293.295      166.966      117.907        0.287        0.029       69.981        8.655        0.015      335.914        6.865      865.320
10/13/2013  21:33:00      -43.042      -26.150       -2.875       28.572       14.968       16.645      816.372      224.049      277.047        0.193        0.066       50.363       10.191        0.041      335.970        6.959      865.318
10/13/2013  21:34:00      -36.847      -36.392       -0.105       35.948       28.603       21.416     1292.262      818.127      458.648        0.263        0.128       51.788       21.294        0.169      335.914        6.865      865.323
10/13/2013  21:35:00       -1.875      -14.666       11.590       18.831       23.224       20.438      354.619      539.365      417.707        0.083        0.066       14.786       10.880        0.542      335.836        6.735      865.335
10/13/2013  21:36:00      -45.161       -6.103       -4.140       25.936       24.587       16.727      672.651      604.531      279.788        0.183        0.078       45.572       14.682        0.104      335.901        6.843      865.342
10/13/2013  21:37:00      -43.425      -21.546       -2.244       23.326       18.277       14.381      544.119      334.061      206.826        0.172        0.054       48.476        6.548        0.018      335.924        6.882      865.355
10/13/2013  21:38:00      -57.978      -32.910       -9.679       17.087       21.646       13.470      291.961      468.530      181.443        0.274        0.047       66.668        7.064        0.011      335.874        6.799      865.363
10/13/2013  21:39:00      -60.826      -17.696       -9.705       17.908       25.184       11.865      320.681      634.249      140.772        0.260        0.055       63.348        9.810        0.024      335.872        6.795      865.378
10/13/2013  21:40:00      -60.604      -26.742       -3.591       22.870       17.288       10.013      523.020      298.869      100.260        0.266        0.046       66.242        9.644        0.021      335.853        6.763      865.386
10/13/2013  21:41:00     -102.848      -21.418      -10.457       22.369       21.047       12.742      500.375      442.962      162.367        0.613        0.055      105.054        9.782        0.009      335.857        6.770      865.388
10/13/2013  21:42:00     -105.197      -23.599      -10.949       24.947       16.968       13.543      622.367      287.912      183.419        0.642        0.055      107.811       12.566        0.014      335.780        6.642      865.394
10/13/2013  21:43:00      -61.208       -6.057       -3.095       34.960       19.649       16.403     1222.184      386.085      269.055        0.283        0.094       61.507        8.856        0.021      335.736        6.570      865.408
10/13/2013  21:44:00      -44.482      -15.003        0.336       34.733       16.818       10.966     1206.404      282.847      120.253        0.191        0.080       46.944       11.490        0.060      335.696        6.503      865.413
10/13/2013  21:45:00      -83.814       -3.214       -9.675       15.386       19.973       12.683      236.731      398.903      160.859        0.396        0.040       83.875        5.675        0.005      335.769        6.624      865.416
10/13/2013  21:46:00      -42.167      -26.216       -0.619       28.307       25.223       15.884      801.304      636.183      252.312        0.208        0.084       49.652       10.033        0.041      335.823        6.714      865.418
10/13/2013  21:47:00      -58.827      -52.390       -6.647       19.262       21.094       18.315      371.008      444.947      335.452        0.370        0.058       78.774       11.936        0.023      335.753        6.598      865.426
10/13/2013  21:48:00      -56.771      -50.800       -9.015       15.849       13.685       11.309      251.179      187.269      127.888        0.323        0.028       76.181        7.488        0.010      335.767        6.621      865.432
10/13/2013  21:49:00      -66.869      -29.475      -14.615        7.011        7.231        7.075       49.154       52.291       50.049        0.285        0.008       73.077        2.784        0.001      335.780        6.645      865.418
10/13/2013  21:50:00      -72.558      -22.601      -12.703        7.618        8.186        6.238       58.033       67.008       38.914        0.305        0.008       75.996        3.740        0.002      335.790        6.661      865.410
10/13/2013  21:51:00      -77.624      -24.537       -9.276       11.660       13.138        9.822      135.965      172.605       96.464        0.356        0.020       81.410        5.368        0.004      335.821        6.710      865.407
10/13/2013  21:52:00      -80.328      -20.008      -10.498        7.928       11.236        8.630       62.853      126.251       74.468        0.361        0.013       82.783        2.801        0.001      335.835        6.735      865.420
10/13/2013  21:53:00      -85.695      -21.856       -9.862       10.964       15.945        9.888      120.215      254.236       97.777        0.420        0.024       88.438        6.384        0.005      335.836        6.737      865.433
10/13/2013  21:54:00     -102.799      -37.749      -12.871        8.188        9.215        8.202       67.040       84.915       67.273        0.619        0.011      109.511        3.847        0.001      335.793        6.665      865.450
10/13/2013  21:55:00      -97.983      -30.342       -6.447       10.167       13.772       10.405      103.369      189.662      108.255        0.548        0.020      102.573        6.946        0.005      335.785        6.650      865.456
10/13/2013  21:56:00      -92.108      -33.563       -3.413       13.819       11.786       10.518      190.964      138.921      110.628        0.503        0.022       98.033        7.942        0.007      335.826        6.720      865.472
10/13/2013  21:57:00      -73.717      -45.923        2.101       33.425       25.416       19.530     1117.234      645.973      381.429        0.485        0.107       86.851       17.941        0.043      335.787        6.653      865.493
10/13/2013  21:58:00      -58.481      -53.533        3.974       39.155       23.069       19.530     1533.076      532.190      381.426        0.437        0.122       79.283       20.696        0.068      335.773        6.630      865.505
10/13/2013  21:59:00      -95.196      -83.717       -6.221       24.264       24.429       19.372      588.741      596.770      375.270        0.883        0.078      126.771       17.050        0.018      335.825        6.717      865.508
10/13/2013  22:00:00      -91.196      -57.820       -1.311       22.844       29.946       14.084      521.856      896.750      198.352        0.664        0.081      107.981       11.202        0.011      335.864        6.781      865.519
10/13/2013  22:01:00      -22.702      -25.725       12.330       27.181       26.523       18.556      738.821      703.492      344.318        0.156        0.089       34.309       14.654        0.182      335.798        6.673      865.537
10/13/2013  22:02:00      -66.107      -36.053       -1.334       29.379       17.929       16.828      863.137      321.455      283.174        0.357        0.073       75.299       17.071        0.051      335.692        6.497      865.549
10/13/2013  22:03:00      -85.382      -37.035       -8.092       19.043       14.525       11.992      362.648      210.980      143.808        0.472        0.036       93.068        8.812        0.009      335.663        6.447      865.556
10/13/2013  22:04:00      -84.664      -19.995       -1.806       23.119       15.766       13.632      534.502      248.564      185.843        0.427        0.048       86.993       10.922        0.016      335.611        6.360      865.562
10/13/2013  22:05:00      -70.283      -34.372       -0.086       24.798       18.028       13.661      614.938      325.003      186.619        0.362        0.056       78.238       13.264        0.029      335.579        6.306      865.572
10/13/2013  22:06:00      -69.289      -21.949        1.892       28.639       16.856       16.369      820.208      284.133      267.929        0.333        0.069       72.682       15.936        0.048      335.570        6.293      865.590
10/13/2013  22:07:00      -88.859      -41.057        1.465       17.607       18.382       14.353      310.020      337.903      206.013        0.522        0.043       97.886        7.770        0.006      335.575        6.300      865.605
10/13/2013  22:08:00      -86.416      -35.537       -4.145       20.917       20.544       14.120      437.527      422.070      199.371        0.490        0.053       93.438       11.941        0.016      335.566        6.285      865.607
10/13/2013  22:09:00     -101.651      -20.551       -4.870       20.141       16.348       12.240      405.658      267.246      149.807        0.580        0.041      103.707       10.458        0.010      335.555        6.267      865.601
10/13/2013  22:10:00     -107.724      -43.200       -4.189       20.168       16.324       11.083      406.760      266.478      122.841        0.714        0.040      116.063        7.299        0.004      335.487        6.153      865.601
10/13/2013  22:11:00      -85.214      -24.652        2.556       28.752       26.058       17.336      826.669      679.040      300.547        0.484        0.090       88.708       16.552        0.035      335.371        5.960      865.612
10/13/2013  22:12:00      -98.301      -34.918       -8.077       26.891       20.400       16.832      723.131      416.144      283.316        0.618        0.071      104.319       15.487        0.022      335.371        5.960      865.614
10/13/2013  22:13:00      -84.304      -32.476       -5.667       27.298       24.736       14.923      745.192      611.884      222.690        0.489        0.079       90.343        7.822        0.007      335.388        5.987      865.623
10/13/2013  22:14:00      -92.448      -40.022       -7.668       18.846       25.307       16.583      355.164      640.424      275.003        0.574        0.064      100.739       11.628        0.013      335.404        6.015      865.633
10/13/2013  22:15:00     -107.021      -20.197       -9.932       21.212       18.640       11.524      449.939      347.454      132.802        0.644        0.047      108.910        9.718        0.008      335.378        5.970      865.646
10/13/2013  22:16:00      -99.592      -47.166       -2.969       27.178       18.446       13.613      738.653      340.247      185.327        0.671        0.063      110.196       12.633        0.013      335.315        5.866      865.648
10/13/2013  22:17:00     -101.589      -42.200       -0.805       19.294       20.401       14.496      372.250      416.181      210.146        0.655        0.050      110.005       10.547        0.009      335.448        6.089      865.641
10/13/2013  22:18:00     -112.773      -37.160      -10.646       15.590       23.227       13.723      243.047      539.505      188.325        0.759        0.049      118.738        8.291        0.005      335.393        5.995      865.630
10/13/2013  22:19:00     -141.660      -37.909      -11.532       25.072       22.086       17.189      628.599      487.810      295.470        1.152        0.071      146.645        6.236        0.002      335.301        5.844      865.631
10/13/2013  22:20:00     -121.349      -41.591       -6.595       19.755       21.438       15.838      390.258      459.580      250.847        0.880        0.055      128.278        5.682        0.002      335.272        5.795      865.639
10/13/2013  22:21:00     -115.172      -38.801       -9.019       40.202       24.576       14.283     1616.173      603.978      204.004        0.864        0.121      121.532        6.143        0.003      335.314        5.862      865.630
10/13/2013  22:22:00      -81.405      -31.215        1.057       26.999       32.838       20.587      728.969     1078.366      423.820        0.492        0.112       87.184       13.342        0.023      335.276        5.800      865.621
10/13/2013  22:23:00      -76.254      -32.135        0.004       23.785       31.653       14.095      565.712     1001.919      198.676        0.431        0.088       82.749        9.304        0.013      335.251        5.759      865.614
10/13/2013  22:24:00      -99.439      -28.476      -10.670       32.306       35.311       19.804     1043.685     1246.854      392.198        0.675        0.134      103.436       17.934        0.030      335.290        5.824      865.619
10/13/2013  22:25:00      -76.025      -16.035        0.777       61.959       40.550       24.976     3838.883     1644.311      623.799        0.607        0.305       77.697       28.605        0.136      335.222        5.712      865.626
10/13/2013  22:26:00      -92.157        3.458       -0.010       51.561       40.769       29.228     2658.515     1662.107      854.296        0.684        0.259       92.222       26.981        0.086      335.215        5.701      865.626
10/13/2013  22:27:00      -67.427      -13.170       -1.488       41.887       46.269       24.961     1754.500     2140.827      623.029        0.462        0.226       68.701       19.640        0.082      335.244        5.747      865.628
10/13/2013  22:28:00      -88.912       -8.062       -8.786       37.259       37.628       30.413     1388.237     1415.876      924.955        0.589        0.186       89.277       24.768        0.077      335.259        5.774      865.643
10/13/2013  22:29:00      -90.402      -24.544        2.459       33.735       43.175       26.938     1138.019     1864.099      725.673        0.625        0.186       93.674       21.315        0.052      335.285        5.817      865.649
10/13/2013  22:30:00      -99.277      -13.139      -10.925       35.076       34.329       21.178     1230.353     1178.461      448.497        0.650        0.143      100.143       17.239        0.030      335.313        5.863      865.640
10/13/2013  22:31:00     -112.103        4.285      -18.963       42.341       30.494       23.256     1792.721      929.857      540.842        0.810        0.163      112.185       18.493        0.027      335.226        5.718      865.636
10/13/2013  22:32:00      -43.290       -8.173       -0.756       29.349       23.867       17.239      861.388      569.626      297.198        0.183        0.086       44.055       17.367        0.155      335.239        5.741      865.641
10/13/2013  22:33:00      -29.768       -3.290        2.514       20.148       32.983       23.697      405.932     1087.879      561.528        0.148        0.103       29.949       19.444        0.421      335.267        5.787      865.638
10/13/2013  22:34:00      -15.403      -15.942       -3.343       32.710       28.168       17.960     1069.937      793.440      322.545        0.134        0.109       22.167        7.709        0.121      335.267        5.786      865.628
10/13/2013  22:35:00      -31.006      -19.111        8.226       66.123       39.857       30.008     4372.293     1588.581      900.488        0.413        0.343       36.422       42.194        1.342      335.309        5.857      865.630
10/13/2013  22:36:00      -79.411      -36.213       -7.983       48.448       34.178       23.845     2347.170     1168.114      568.590        0.588        0.204       87.278       27.860        0.102      335.303        5.845      865.622
10/13/2013  22:37:00     -109.611      -55.744       -7.646       41.605       28.152       21.198     1730.942      792.521      449.351        0.908        0.149      122.972       20.366        0.027      335.213        5.695      865.612
10/13/2013  22:38:00     -141.158      -50.710      -10.862       39.821       26.455       20.951     1585.750      699.879      438.948        1.267        0.136      149.991       18.226        0.015      335.273        5.796      865.617
10/13/2013  22:39:00      -70.454      -37.043       -1.724       48.239       47.900       25.219     2326.956     2294.436      636.017        0.580        0.263       79.598       24.387        0.094      335.238        5.738      865.619
10/13/2013  22:40:00      -95.730      -26.049       -5.610       37.224       38.374       22.674     1385.608     1472.564      514.108        0.662        0.169       99.211       11.455        0.013      335.245        5.749      865.614
10/13/2013  22:41:00      -84.755      -38.418      -10.734       32.388       37.575       21.591     1048.966     1411.890      466.161        0.585        0.146       93.056       17.795        0.037      335.256        5.769      865.611
10/13/2013  22:42:00     -118.523       -9.460       -6.514       61.929       27.832       22.664     3835.209      774.627      513.675        0.965        0.256      118.900       31.152        0.069      335.262        5.777      865.626
10/13/2013  22:43:00     -112.619       -3.870      -15.555       26.363       35.700       22.330      695.033     1274.466      498.625        0.770        0.123      112.685       12.273        0.012      335.298        5.838      865.630
10/13/2013  22:44:00     -112.878        2.182      -14.606       45.485       33.935       21.637     2068.863     1151.607      468.180        0.832        0.184      112.899       13.852        0.015      335.294        5.832      865.627
10/13/2013  22:45:00     -134.320       -5.027      -12.365       38.682       33.785       19.713     1496.262     1141.440      388.609        1.062        0.151      134.414       15.362        0.013      335.262        5.778      865.638
10/13/2013  22:46:00      -99.855      -44.901       -3.053       48.619       29.463       24.638     2363.787      868.092      607.041        0.792        0.192      109.486       26.246        0.057      335.209        5.689      865.649
10/13/2013  22:47:00      -30.419      -32.735        8.064       40.069       32.674       19.356     1605.515     1067.568      374.638        0.255        0.152       44.687       18.603        0.173      335.231        5.727      865.653
10/13/2013  22:48:00      -61.766       -7.566      -12.181       21.230       19.048       13.517      450.693      362.839      182.705        0.251        0.050       62.227       11.133        0.032      335.268        5.787      865.656
10/13/2013  22:49:00      -41.145      -14.029       -8.669       29.528       18.650       15.074      871.898      347.824      227.216        0.171        0.072       43.471        9.401        0.047      335.280        5.807      865.667
10/13/2013  22:50:00      -76.833      -29.312       -6.766       24.751       23.758       17.770      612.591      564.457      315.773        0.415        0.075       82.234       13.321        0.026      335.273        5.797      865.661
10/13/2013  22:51:00      -87.176      -30.343       -7.332       21.820       29.561       13.556      476.132      873.877      183.772        0.505        0.077       92.306        8.385        0.008      335.244        5.747      865.651
10/13/2013  22:52:00      -57.037      -45.370       -4.236       30.041       26.368       18.381      902.445      695.297      337.845        0.363        0.097       72.881       14.467        0.039      335.269        5.789      865.658
10/13/2013  22:53:00      -38.154      -33.481        0.612       36.115       21.309       17.585     1304.258      454.067      309.228        0.232        0.103       50.761       18.646        0.135      335.239        5.740      865.657
10/13/2013  22:54:00      -11.604      -35.578       -5.041       22.001       18.607       16.920      484.030      346.218      286.298        0.127        0.056       37.422       12.983        0.120      335.289        5.824      865.650
10/13/2013  22:55:00       16.406      -52.193        0.647       22.720       24.872       16.568      516.203      618.597      274.502        0.220        0.070       54.711       10.635        0.038      335.289        5.822      865.662
10/13/2013  22:56:00      -32.420      -38.074      -11.419       22.541       27.340       17.783      508.101      747.482      316.225        0.210        0.079       50.007       16.098        0.104      335.193        5.665      865.666
10/13/2013  22:57:00      -58.434      -24.859      -13.729       23.651       17.031       14.981      559.352      290.068      224.442        0.265        0.054       63.502       10.321        0.026      335.151        5.594      865.663
10/13/2013  22:58:00      -90.422      -27.048      -12.857       17.805       11.883       10.340      317.017      141.198      106.911        0.482        0.028       94.381        5.690        0.004      335.110        5.526      865.667
10/13/2013  22:59:00      -69.167      -19.542       -6.056       16.074       15.864       12.815      258.360      251.672      164.235        0.294        0.034       71.875        7.093        0.010      335.106        5.520      865.667
10/13/2013  23:00:00      -17.029      -13.630        1.154       23.081       18.282       15.089      532.717      334.226      227.678        0.079        0.055       21.812       10.204        0.219      335.141        5.578      865.661
10/13/2013  23:01:00      -57.194       -2.322      -11.312       10.541       10.335        7.902      111.119      106.818       62.434        0.184        0.014       57.241        3.474        0.004      335.089        5.493      865.657
10/13/2013  23:02:00      -43.463      -11.361      -12.502        6.647        8.035        7.073       44.188       64.559       50.034        0.117        0.008       44.923        4.711        0.011      335.057        5.440      865.666
10/13/2013  23:03:00      -41.216      -11.963       -8.329       12.560        9.188        9.258      157.747       84.415       85.707        0.112        0.016       42.917        6.576        0.023      335.153        5.598      865.673
10/13/2013  23:04:00      -72.544       -5.097      -10.302        8.178        9.084        7.393       66.881       82.517       54.661        0.280        0.010       72.723        3.801        0.003      335.108        5.524      865.683
10/13/2013  23:05:00      -58.025      -19.986       -5.653       15.897       11.356        9.993      252.729      128.969       99.855        0.214        0.024       61.371        7.883        0.016      335.008        5.358      865.680
10/13/2013  23:06:00      -74.912      -15.296       -8.718       13.525       12.881       10.170      182.925      165.929      103.438        0.319        0.023       76.457        8.306        0.012      335.031        5.395      865.677
10/13/2013  23:07:00      -77.048      -23.549      -12.323       13.476       16.341       11.150      181.608      267.019      124.333        0.361        0.029       80.566        6.494        0.006      334.990        5.328      865.676
10/13/2013  23:08:00      -99.081      -14.478      -12.252       19.947       15.799       15.393      397.864      249.611      236.953        0.553        0.044      100.133        8.582        0.007      334.893        5.167      865.671
10/13/2013  23:09:00      -98.218      -10.766      -12.985       24.029       16.086       10.833      577.405      258.775      117.356        0.544        0.048       98.807       10.046        0.010      334.920        5.210      865.663
10/13/2013  23:10:00      -98.290      -13.363      -11.642       14.117       15.889        9.529      199.283      252.463       90.803        0.526        0.027       99.194        7.945        0.006      334.844        5.085      865.660
10/13/2013  23:11:00      -86.906      -22.568      -12.413       14.349       13.754       10.770      205.881      189.180      115.990        0.436        0.026       89.788        7.445        0.007      334.844        5.086      865.666
10/13/2013  23:12:00      -94.523      -37.050      -18.173       11.291        9.023       10.661      127.482       81.406      113.661        0.548        0.016      101.525        6.695        0.004      334.867        5.123      865.667
10/13/2013  23:13:00      -96.540      -54.884      -11.505       20.544       19.033       14.765      422.035      362.243      217.992        0.673        0.050      111.051        9.801        0.008      334.872        5.132      865.668
10/13/2013  23:14:00     -110.443      -35.913      -15.243       21.746       17.705       13.004      472.882      313.473      169.097        0.734        0.048      116.136        7.554        0.004      334.881        5.147      865.669
10/13/2013  23:15:00     -108.340      -33.327      -10.494       16.600       11.920        8.699      275.550      142.097       75.670        0.673        0.025      113.350        8.175        0.005      334.858        5.106      865.682
10/13/2013  23:16:00      -92.299      -23.577      -17.619       13.509       14.801       13.774      182.487      219.064      189.734        0.499        0.030       95.262        2.358        0.001      334.909        5.193      865.678
10/13/2013  23:17:00      -87.023      -20.745       -9.602       17.658       16.705       13.983      311.815      279.059      195.529        0.444        0.039       89.462        8.153        0.008      334.903        5.183      865.677
10/13/2013  23:18:00      -71.222      -38.513       -8.840       15.740       19.636       11.236      247.744      385.553      126.237        0.370        0.038       80.968        6.261        0.006      334.877        5.140      865.676
10/13/2013  23:19:00      -82.614      -40.860      -12.567       19.524       15.946       12.869      381.173      254.288      165.601        0.473        0.040       92.166        8.056        0.008      334.863        5.116      865.674
10/13/2013  23:20:00      -78.725      -44.354       -1.239       32.582       17.880       14.756     1061.557      319.687      217.730        0.488        0.080       90.360       14.670        0.026      334.791        4.997      865.686
10/13/2013  23:21:00      -90.114      -49.710      -17.567       18.542       16.992        8.634      343.823      288.737       74.538        0.580        0.035      102.915        6.390        0.004      334.795        5.002      865.686
10/13/2013  23:22:00      -85.004      -49.108       -3.672       27.608       19.352       14.515      762.177      374.482      210.686        0.550        0.067       98.169       11.752        0.014      334.780        4.979      865.692
10/13/2013  23:23:00      -52.648      -43.297        8.819       36.276       28.204       21.849     1315.953      795.475      477.391        0.366        0.129       68.165       24.509        0.129      334.806        5.021      865.691
10/13/2013  23:24:00      -54.101      -45.777       -8.477       23.745       22.532       12.724      563.813      507.698      161.895        0.316        0.062       70.869       11.342        0.026      334.902        5.181      865.692
10/13/2013  23:25:00      -90.798      -50.035      -11.662       15.403       14.877       10.148      237.246      221.319      102.974        0.572        0.028      103.672        7.511        0.005      334.807        5.023      865.700
10/13/2013  23:26:00      -87.909      -53.699      -18.983       12.692       13.959        9.271      161.087      194.850       85.944        0.571        0.022      103.012        4.354        0.002      334.775        4.970      865.722
10/13/2013  23:27:00      -87.933      -39.601      -10.811       12.074       13.442       10.323      145.775      180.685      106.556        0.493        0.022       96.438        6.960        0.005      334.761        4.947      865.726
10/13/2013  23:28:00      -90.881      -39.336      -11.636       16.119        9.252        7.476      259.832       85.597       55.893        0.517        0.020       99.028        3.743        0.001      334.745        4.920      865.729
10/13/2013  23:29:00     -105.140      -39.337       -6.486       13.566       13.330       11.476      184.048      177.680      131.694        0.657        0.025      112.258        8.990        0.006      334.800        5.011      865.735
10/13/2013  23:30:00     -121.863      -34.787       -9.369       17.712       16.736       10.208      313.732      280.103      104.194        0.842        0.035      126.731        7.230        0.003      334.791        4.996      865.753
10/13/2013  23:31:00     -121.164      -38.014      -13.338       17.178       13.275       11.691      295.091      176.219      136.683        0.846        0.030      126.987        6.741        0.003      334.782        4.980      865.766
10/13/2013  23:32:00     -122.031      -35.240       -8.938       20.847       15.150       13.394      434.598      229.522      179.406        0.853        0.042      127.018        7.924        0.004      334.794        5.002      865.766
10/13/2013  23:33:00     -110.660      -39.684      -10.367       14.661       17.040       13.740      214.933      290.364      188.786        0.731        0.035      117.560        9.467        0.006      334.787        4.989      865.763
10/13/2013  23:34:00      -74.948      -46.962       -0.825       29.403       19.589       16.647      864.537      383.735      277.132        0.467        0.076       88.446       14.463        0.027      334.826        5.055      865.755
10/13/2013  23:35:00      -35.121      -17.381       -3.143       20.011       15.765        9.713      400.452      248.525       94.335        0.114        0.037       39.187        8.159        0.043      334.852        5.098      865.758
10/13/2013  23:36:00      -79.675      -13.675      -11.361       13.645       11.325       10.932      186.199      128.264      119.510        0.355        0.022       80.840        8.277        0.010      334.900        5.177      865.754
10/13/2013  23:37:00      -62.556      -28.596      -13.527       25.348       17.418        9.741      642.527      303.400       94.882        0.298        0.052       68.782        8.754        0.016      334.915        5.202      865.747
10/13/2013  23:38:00      -46.488      -29.200       -3.032       31.939       16.497       15.373     1020.118      272.154      236.337        0.228        0.076       54.898        7.214        0.017      334.874        5.137      865.744
10/13/2013  23:39:00      -79.876      -31.789      -11.821       14.312       15.341       10.230      204.834      235.347      104.663        0.404        0.027       85.970        7.071        0.007      334.830        5.060      865.755
10/13/2013  23:40:00      -84.846      -37.724      -12.896       11.166       18.065        7.604      124.689      326.347       57.820        0.465        0.025       92.854        7.082        0.006      334.867        5.125      865.754
10/13/2013  23:41:00      -87.476      -29.315      -15.427       13.835       20.821       10.176      191.397      433.513      103.556        0.474        0.036       92.257        6.966        0.006      334.861        5.114      865.752
10/13/2013  23:42:00      -81.025      -43.067      -12.157       17.770       19.168       13.824      315.766      367.395      191.107        0.472        0.044       91.760        5.469        0.004      334.851        5.097      865.760
10/13/2013  23:43:00     -106.088       -7.010      -14.760       17.179       17.711       11.943      295.125      313.671      142.637        0.614        0.038      106.319        6.674        0.004      334.793        5.001      865.774
10/13/2013  23:44:00      -72.386       -8.695      -15.179       26.665       12.215       12.327      711.009      149.210      151.945        0.328        0.051       72.907        8.904        0.015      334.792        4.998      865.784
10/13/2013  23:45:00      -46.148      -18.942       -7.551       20.151       12.629        8.292      406.061      159.496       68.763        0.159        0.032       49.884        4.555        0.008      334.819        5.042      865.789
10/13/2013  23:46:00      -51.365      -23.807       -8.368       11.372       15.159        9.693      129.326      229.807       93.948        0.186        0.023       56.614        6.890        0.015      334.850        5.094      865.796
10/13/2013  23:47:00      -51.883       -6.345       -2.579       16.814       13.382        9.454      282.713      179.087       89.372        0.164        0.028       52.270        5.901        0.013      334.896        5.170      865.804
10/13/2013  23:48:00      -44.535      -17.226       -9.971       13.522       12.098        8.703      182.834      146.362       75.741        0.139        0.020       47.750        7.112        0.022      334.853        5.101      865.813
10/13/2013  23:49:00      -51.228      -23.841       -4.698       19.443       11.558       10.989      378.015      133.590      120.763        0.192        0.032       56.504        8.621        0.023      334.844        5.085      865.831
10/13/2013  23:50:00      -20.378       -6.398        3.804       13.614       11.828       13.597      185.349      139.906      184.887        0.049        0.026       21.359        8.874        0.173      334.822        5.047      865.840
10/13/2013  23:51:00      -35.392      -13.481       -7.992        9.453       10.275        7.532       89.354      105.585       56.724        0.087        0.013       37.872        5.590        0.022      334.871        5.129      865.841
10/13/2013  23:52:00      -47.827       -4.327       -2.428       10.377       11.705        7.744      107.672      137.002       59.962        0.131        0.015       48.022        5.565        0.013      334.859        5.110      865.837
10/13/2013  23:53:00      -30.934      -14.254       -8.504       17.921       12.812        8.041      321.145      164.157       64.651        0.089        0.027       34.060        6.991        0.042      334.955        5.268      865.826
10/13/2013  23:54:00        4.658       -4.585       -2.053        7.832        9.692        7.079       61.348       93.926       50.114        0.013        0.010        6.536        3.205        0.240      335.081        5.480      865.808
10/13/2013  23:55:00      -11.321      -14.819        1.334       10.260        8.451        9.735      105.274       71.425       94.763        0.031        0.014       18.648        7.458        0.160      335.091        5.494      865.798
10/13/2013  23:56:00       -8.553      -10.379        1.613        5.899        6.090        5.450       34.798       37.088       29.702        0.014        0.005       13.449        4.496        0.112      335.311        5.860      865.792
10/13/2013  23:57:00      -21.577      -13.565       -2.098        9.901        8.793        6.179       98.022       77.317       38.184        0.043        0.011       25.487        1.515        0.004      335.044        5.417      865.791
10/13/2013  23:58:00       -7.337       -5.468       -3.160       15.622        7.207        9.445      244.042       51.938       89.208        0.024        0.019        9.150        8.605        0.884      335.158        5.605      865.793
10/13/2013  23:59:00      -37.426      -13.810      -13.709        9.265       11.221        8.828       85.837      125.911       77.929        0.103        0.014       39.893        3.659        0.008      335.010        5.360      865.793
